<?xml version="1.0" encoding="UTF-8" standalone="no" ?>
<gpx xmlns="http://www.topografix.com/GPX/1/1" xmlns:xsi="http://www.w3.org/2001/XMLSchema-instance" xsi:schemaLocation="http://www.topografix.com/GPX/1/1 http://www.topografix.com/GPX/1/1/gpx.xsd" version="1.1" creator="VisuGPX - https://www.visugpx.com">
  <metadata>
    <name>18 fevrier 2021, par le Chatelard, avec 2 chutes</name>
    <desc><![CDATA[Jeudi 18 après midi, beau temps, Chris est partie en promenade pédestre avec Sylvie.
Je part en VTT une heure plus tard pensant les rattraper mais :
-1)  au km 2,5 : passage trop gras en bas de Fanicamp, le vélo n'avance plus, roues coincées par la boue, je marche sur 150m et nettoie tans bien que mal. Je monte Fanicamp , col de Roussey, puis le bois. 
2) au km 8 : je chute sérieusement en descente, je suis couvert de boue
3) au km10 : seconde chute, je décide de marcher au nouveau sur 200 m, c'est impossible de tenir sur le vélo (et un arbre en travers du chemin)
Je décide alors de rentrer au plus vite. Lavage du vélo et douleur persistante à l'épaule.
Mauvaise pioche ! Et je n'ai jamais rattrapé les filles... ]]></desc>
  </metadata>
  <wpt lat="47.64445" lon="6.18311">
    <ele>240.8</ele>
    <name><![CDATA[0000191]]></name>
    <type><![CDATA[Point de départ]]></type>
  </wpt>
  <wpt lat="47.64437" lon="6.18315">
    <ele>211.63</ele>
    <name><![CDATA[0000192]]></name>
    <desc><![CDATA[<p><br /><h3>Nom: Segment: 1</h3><br />Heure de départ: 02/18/2021 15:03<br/>Heure d'arrivée: 02/18/2021 16:44<br/>Distance: 15,3km (01:41)<br/>Temps déplacement: 01:28<br/>Vitesse moyenne: 9,06 km/h<br/>Vitesse moyenne mouv.: 10,31 km/h<br/>Vitesse Max.: 35,21 km/h<br/>Altitude minimale: 174 m<br/>Altitude maximale: 343 m<br/>Vitesse de montée: 295,1 m/h<br/>Vitesse de descente: -723,7 m/h<br/>Gain d'altitude: 232 m<br/>Perte d'altitude: -249 m<br/>Temps de montée: 00:47<br/>Temps de descente: 00:20<br/></p>]]></desc>
    <type><![CDATA[Point d'arrivée]]></type>
  </wpt>
  <trk>
    <name><![CDATA[2021-02-18 15:03]]></name>
    <desc><![CDATA[<p>Heure de départ: 02/18/2021 15:03<br/>Heure d'arrivée: 02/18/2021 16:44<br/>Distance: 15,3 km (01:41)<br/>Temps déplacement: 01:28<br/>Vitesse moyenne: 9,06 km/h<br/>Vitesse moyenne mouv.: 10,37 km/h<br/>Vitesse Max.: 35,21 km/h<br/>Altitude minimale: 174 m<br/>Altitude maximale: 343 m<br/>Vitesse de montée: 296,9 m/h<br/>Vitesse de descente: -579 m/h<br/>Gain d'altitude: 222 m<br/>Perte d'altitude: -245 m<br/>Temps de montée: 00:44<br/>Temps de descente: 00:25<br/></p><hr align="center" width="480" style="height: 2px; width: 517px"/>]]></desc>
    <trkseg>
      <trkpt lat="47.64445" lon="6.18311">
        <ele>240.8</ele>
        <time>2021-02-18T14:03:10Z</time>
      </trkpt>
      <trkpt lat="47.64449" lon="6.18313">
        <ele>241.3</ele>
        <time>2021-02-18T14:03:26Z</time>
      </trkpt>
      <trkpt lat="47.64448" lon="6.18305">
        <ele>241.55</ele>
        <time>2021-02-18T14:03:44Z</time>
      </trkpt>
      <trkpt lat="47.64444" lon="6.18299">
        <ele>241.55</ele>
        <time>2021-02-18T14:03:47Z</time>
      </trkpt>
      <trkpt lat="47.6444" lon="6.18295">
        <ele>241.48</ele>
        <time>2021-02-18T14:03:49Z</time>
      </trkpt>
      <trkpt lat="47.64435" lon="6.18291">
        <ele>241.46</ele>
        <time>2021-02-18T14:03:51Z</time>
      </trkpt>
      <trkpt lat="47.6443" lon="6.18286">
        <ele>241.44</ele>
        <time>2021-02-18T14:03:53Z</time>
      </trkpt>
      <trkpt lat="47.64426" lon="6.18283">
        <ele>241.48</ele>
        <time>2021-02-18T14:03:55Z</time>
      </trkpt>
      <trkpt lat="47.64423" lon="6.18277">
        <ele>241.44</ele>
        <time>2021-02-18T14:04:00Z</time>
      </trkpt>
      <trkpt lat="47.64418" lon="6.18274">
        <ele>241.46</ele>
        <time>2021-02-18T14:04:03Z</time>
      </trkpt>
      <trkpt lat="47.64417" lon="6.18281">
        <ele>241.47</ele>
        <time>2021-02-18T14:04:06Z</time>
      </trkpt>
      <trkpt lat="47.6442" lon="6.18287">
        <ele>241.54</ele>
        <time>2021-02-18T14:04:08Z</time>
      </trkpt>
      <trkpt lat="47.64426" lon="6.18294">
        <ele>241.58</ele>
        <time>2021-02-18T14:04:11Z</time>
      </trkpt>
      <trkpt lat="47.64429" lon="6.18299">
        <ele>241.64</ele>
        <time>2021-02-18T14:04:13Z</time>
      </trkpt>
      <trkpt lat="47.64435" lon="6.18303">
        <ele>241.67</ele>
        <time>2021-02-18T14:04:13Z</time>
      </trkpt>
      <trkpt lat="47.64439" lon="6.18304">
        <ele>241.69</ele>
        <time>2021-02-18T14:04:18Z</time>
      </trkpt>
      <trkpt lat="47.64444" lon="6.18301">
        <ele>241.83</ele>
        <time>2021-02-18T14:04:18Z</time>
      </trkpt>
      <trkpt lat="47.64448" lon="6.18297">
        <ele>241.85</ele>
        <time>2021-02-18T14:04:20Z</time>
      </trkpt>
      <trkpt lat="47.64452" lon="6.18292">
        <ele>241.9</ele>
        <time>2021-02-18T14:04:22Z</time>
      </trkpt>
      <trkpt lat="47.64456" lon="6.18285">
        <ele>242.3</ele>
        <time>2021-02-18T14:04:25Z</time>
      </trkpt>
      <trkpt lat="47.64461" lon="6.18279">
        <ele>242.37</ele>
        <time>2021-02-18T14:04:28Z</time>
      </trkpt>
      <trkpt lat="47.64464" lon="6.18274">
        <ele>242.4</ele>
        <time>2021-02-18T14:04:33Z</time>
      </trkpt>
      <trkpt lat="47.64468" lon="6.18268">
        <ele>242.31</ele>
        <time>2021-02-18T14:04:36Z</time>
      </trkpt>
      <trkpt lat="47.64473" lon="6.18261">
        <ele>242.31</ele>
        <time>2021-02-18T14:04:38Z</time>
      </trkpt>
      <trkpt lat="47.64478" lon="6.18252">
        <ele>242.11</ele>
        <time>2021-02-18T14:04:40Z</time>
      </trkpt>
      <trkpt lat="47.64482" lon="6.18245">
        <ele>242.12</ele>
        <time>2021-02-18T14:04:42Z</time>
      </trkpt>
      <trkpt lat="47.64487" lon="6.18229">
        <ele>242.07</ele>
        <time>2021-02-18T14:04:42Z</time>
      </trkpt>
      <trkpt lat="47.64491" lon="6.18218">
        <ele>242.06</ele>
        <time>2021-02-18T14:04:44Z</time>
      </trkpt>
      <trkpt lat="47.64493" lon="6.1821">
        <ele>242.07</ele>
        <time>2021-02-18T14:04:48Z</time>
      </trkpt>
      <trkpt lat="47.64496" lon="6.182">
        <ele>242.07</ele>
        <time>2021-02-18T14:04:50Z</time>
      </trkpt>
      <trkpt lat="47.64498" lon="6.18192">
        <ele>242.07</ele>
        <time>2021-02-18T14:04:51Z</time>
      </trkpt>
      <trkpt lat="47.64499" lon="6.18183">
        <ele>242.04</ele>
        <time>2021-02-18T14:04:52Z</time>
      </trkpt>
      <trkpt lat="47.64497" lon="6.18175">
        <ele>242.03</ele>
        <time>2021-02-18T14:04:54Z</time>
      </trkpt>
      <trkpt lat="47.64492" lon="6.18145">
        <ele>242.06</ele>
        <time>2021-02-18T14:04:57Z</time>
      </trkpt>
      <trkpt lat="47.6449" lon="6.18138">
        <ele>242.04</ele>
        <time>2021-02-18T14:04:59Z</time>
      </trkpt>
      <trkpt lat="47.6449" lon="6.18131">
        <ele>242.03</ele>
        <time>2021-02-18T14:05:00Z</time>
      </trkpt>
      <trkpt lat="47.64492" lon="6.18118">
        <ele>241.96</ele>
        <time>2021-02-18T14:05:02Z</time>
      </trkpt>
      <trkpt lat="47.64495" lon="6.18102">
        <ele>241.95</ele>
        <time>2021-02-18T14:05:05Z</time>
      </trkpt>
      <trkpt lat="47.64497" lon="6.18093">
        <ele>241.97</ele>
        <time>2021-02-18T14:05:07Z</time>
      </trkpt>
      <trkpt lat="47.64501" lon="6.18076">
        <ele>241.94</ele>
        <time>2021-02-18T14:05:11Z</time>
      </trkpt>
      <trkpt lat="47.64502" lon="6.1807">
        <ele>241.89</ele>
        <time>2021-02-18T14:05:12Z</time>
      </trkpt>
      <trkpt lat="47.64505" lon="6.18063">
        <ele>241.87</ele>
        <time>2021-02-18T14:05:14Z</time>
      </trkpt>
      <trkpt lat="47.64507" lon="6.18054">
        <ele>241.94</ele>
        <time>2021-02-18T14:05:14Z</time>
      </trkpt>
      <trkpt lat="47.64506" lon="6.18046">
        <ele>241.91</ele>
        <time>2021-02-18T14:05:17Z</time>
      </trkpt>
      <trkpt lat="47.64499" lon="6.18046">
        <ele>241.89</ele>
        <time>2021-02-18T14:05:20Z</time>
      </trkpt>
      <trkpt lat="47.64493" lon="6.18043">
        <ele>241.9</ele>
        <time>2021-02-18T14:05:22Z</time>
      </trkpt>
      <trkpt lat="47.64488" lon="6.18041">
        <ele>241.93</ele>
        <time>2021-02-18T14:05:26Z</time>
      </trkpt>
      <trkpt lat="47.64482" lon="6.18037">
        <ele>241.91</ele>
        <time>2021-02-18T14:05:28Z</time>
      </trkpt>
      <trkpt lat="47.64475" lon="6.18033">
        <ele>241.93</ele>
        <time>2021-02-18T14:05:29Z</time>
      </trkpt>
      <trkpt lat="47.64461" lon="6.18025">
        <ele>241.92</ele>
        <time>2021-02-18T14:05:30Z</time>
      </trkpt>
      <trkpt lat="47.64456" lon="6.18017">
        <ele>241.92</ele>
        <time>2021-02-18T14:05:34Z</time>
      </trkpt>
      <trkpt lat="47.64453" lon="6.1801">
        <ele>241.93</ele>
        <time>2021-02-18T14:05:36Z</time>
      </trkpt>
      <trkpt lat="47.64449" lon="6.18003">
        <ele>241.89</ele>
        <time>2021-02-18T14:05:37Z</time>
      </trkpt>
      <trkpt lat="47.64441" lon="6.17991">
        <ele>241.87</ele>
        <time>2021-02-18T14:05:40Z</time>
      </trkpt>
      <trkpt lat="47.64438" lon="6.17984">
        <ele>241.85</ele>
        <time>2021-02-18T14:05:41Z</time>
      </trkpt>
      <trkpt lat="47.64435" lon="6.17977">
        <ele>241.84</ele>
        <time>2021-02-18T14:05:43Z</time>
      </trkpt>
      <trkpt lat="47.64431" lon="6.17969">
        <ele>241.83</ele>
        <time>2021-02-18T14:05:45Z</time>
      </trkpt>
      <trkpt lat="47.64427" lon="6.17962">
        <ele>241.81</ele>
        <time>2021-02-18T14:05:47Z</time>
      </trkpt>
      <trkpt lat="47.64424" lon="6.17955">
        <ele>241.86</ele>
        <time>2021-02-18T14:05:47Z</time>
      </trkpt>
      <trkpt lat="47.6442" lon="6.17948">
        <ele>241.85</ele>
        <time>2021-02-18T14:05:52Z</time>
      </trkpt>
      <trkpt lat="47.64416" lon="6.17941">
        <ele>241.88</ele>
        <time>2021-02-18T14:05:52Z</time>
      </trkpt>
      <trkpt lat="47.64413" lon="6.17936">
        <ele>241.91</ele>
        <time>2021-02-18T14:05:56Z</time>
      </trkpt>
      <trkpt lat="47.6441" lon="6.17925">
        <ele>241.86</ele>
        <time>2021-02-18T14:05:59Z</time>
      </trkpt>
      <trkpt lat="47.64405" lon="6.17918">
        <ele>241.81</ele>
        <time>2021-02-18T14:05:59Z</time>
      </trkpt>
      <trkpt lat="47.644" lon="6.17909">
        <ele>241.83</ele>
        <time>2021-02-18T14:06:04Z</time>
      </trkpt>
      <trkpt lat="47.64396" lon="6.17901">
        <ele>241.88</ele>
        <time>2021-02-18T14:06:06Z</time>
      </trkpt>
      <trkpt lat="47.64392" lon="6.17894">
        <ele>241.87</ele>
        <time>2021-02-18T14:06:08Z</time>
      </trkpt>
      <trkpt lat="47.64389" lon="6.17889">
        <ele>241.85</ele>
        <time>2021-02-18T14:06:09Z</time>
      </trkpt>
      <trkpt lat="47.64384" lon="6.17881">
        <ele>241.84</ele>
        <time>2021-02-18T14:06:11Z</time>
      </trkpt>
      <trkpt lat="47.64379" lon="6.17873">
        <ele>241.86</ele>
        <time>2021-02-18T14:06:11Z</time>
      </trkpt>
      <trkpt lat="47.64375" lon="6.17866">
        <ele>241.83</ele>
        <time>2021-02-18T14:06:15Z</time>
      </trkpt>
      <trkpt lat="47.6437" lon="6.1786">
        <ele>241.91</ele>
        <time>2021-02-18T14:06:17Z</time>
      </trkpt>
      <trkpt lat="47.64364" lon="6.17852">
        <ele>241.87</ele>
        <time>2021-02-18T14:06:20Z</time>
      </trkpt>
      <trkpt lat="47.64355" lon="6.17841">
        <ele>241.94</ele>
        <time>2021-02-18T14:06:23Z</time>
      </trkpt>
      <trkpt lat="47.64344" lon="6.17831">
        <ele>241.95</ele>
        <time>2021-02-18T14:06:26Z</time>
      </trkpt>
      <trkpt lat="47.64336" lon="6.17825">
        <ele>241.96</ele>
        <time>2021-02-18T14:06:28Z</time>
      </trkpt>
      <trkpt lat="47.64329" lon="6.1782">
        <ele>241.96</ele>
        <time>2021-02-18T14:06:30Z</time>
      </trkpt>
      <trkpt lat="47.64322" lon="6.17814">
        <ele>241.96</ele>
        <time>2021-02-18T14:06:30Z</time>
      </trkpt>
      <trkpt lat="47.64316" lon="6.17808">
        <ele>241.95</ele>
        <time>2021-02-18T14:06:32Z</time>
      </trkpt>
      <trkpt lat="47.64319" lon="6.178">
        <ele>241.89</ele>
        <time>2021-02-18T14:06:37Z</time>
      </trkpt>
      <trkpt lat="47.64323" lon="6.17802">
        <ele>241.86</ele>
        <time>2021-02-18T14:06:40Z</time>
      </trkpt>
      <trkpt lat="47.64329" lon="6.17807">
        <ele>241.93</ele>
        <time>2021-02-18T14:06:41Z</time>
      </trkpt>
      <trkpt lat="47.64334" lon="6.17809">
        <ele>241.92</ele>
        <time>2021-02-18T14:06:45Z</time>
      </trkpt>
      <trkpt lat="47.64339" lon="6.17813">
        <ele>241.96</ele>
        <time>2021-02-18T14:06:47Z</time>
      </trkpt>
      <trkpt lat="47.64344" lon="6.17817">
        <ele>241.97</ele>
        <time>2021-02-18T14:06:49Z</time>
      </trkpt>
      <trkpt lat="47.64352" lon="6.17825">
        <ele>242.03</ele>
        <time>2021-02-18T14:06:52Z</time>
      </trkpt>
      <trkpt lat="47.64354" lon="6.17832">
        <ele>242.06</ele>
        <time>2021-02-18T14:06:54Z</time>
      </trkpt>
      <trkpt lat="47.64354" lon="6.17841">
        <ele>242.17</ele>
        <time>2021-02-18T14:06:54Z</time>
      </trkpt>
      <trkpt lat="47.64357" lon="6.17851">
        <ele>242.21</ele>
        <time>2021-02-18T14:06:57Z</time>
      </trkpt>
      <trkpt lat="47.64361" lon="6.17857">
        <ele>242.23</ele>
        <time>2021-02-18T14:07:01Z</time>
      </trkpt>
      <trkpt lat="47.64366" lon="6.17863">
        <ele>242.15</ele>
        <time>2021-02-18T14:07:03Z</time>
      </trkpt>
      <trkpt lat="47.64371" lon="6.17871">
        <ele>242.12</ele>
        <time>2021-02-18T14:07:03Z</time>
      </trkpt>
      <trkpt lat="47.64376" lon="6.17876">
        <ele>242.09</ele>
        <time>2021-02-18T14:07:07Z</time>
      </trkpt>
      <trkpt lat="47.64379" lon="6.17881">
        <ele>242.09</ele>
        <time>2021-02-18T14:07:09Z</time>
      </trkpt>
      <trkpt lat="47.64383" lon="6.17886">
        <ele>242.07</ele>
        <time>2021-02-18T14:07:10Z</time>
      </trkpt>
      <trkpt lat="47.64387" lon="6.17893">
        <ele>242.1</ele>
        <time>2021-02-18T14:07:12Z</time>
      </trkpt>
      <trkpt lat="47.64391" lon="6.17899">
        <ele>242.08</ele>
        <time>2021-02-18T14:07:14Z</time>
      </trkpt>
      <trkpt lat="47.64394" lon="6.17904">
        <ele>242.08</ele>
        <time>2021-02-18T14:07:15Z</time>
      </trkpt>
      <trkpt lat="47.64398" lon="6.17912">
        <ele>242.06</ele>
        <time>2021-02-18T14:07:18Z</time>
      </trkpt>
      <trkpt lat="47.64401" lon="6.17919">
        <ele>242.02</ele>
        <time>2021-02-18T14:07:19Z</time>
      </trkpt>
      <trkpt lat="47.64405" lon="6.17925">
        <ele>242.08</ele>
        <time>2021-02-18T14:07:21Z</time>
      </trkpt>
      <trkpt lat="47.64407" lon="6.17931">
        <ele>242.09</ele>
        <time>2021-02-18T14:07:23Z</time>
      </trkpt>
      <trkpt lat="47.64411" lon="6.17938">
        <ele>242.12</ele>
        <time>2021-02-18T14:07:24Z</time>
      </trkpt>
      <trkpt lat="47.64416" lon="6.17947">
        <ele>242.17</ele>
        <time>2021-02-18T14:07:24Z</time>
      </trkpt>
      <trkpt lat="47.64419" lon="6.17951">
        <ele>242.17</ele>
        <time>2021-02-18T14:07:28Z</time>
      </trkpt>
      <trkpt lat="47.64424" lon="6.17958">
        <ele>242.19</ele>
        <time>2021-02-18T14:07:30Z</time>
      </trkpt>
      <trkpt lat="47.64429" lon="6.17964">
        <ele>242.15</ele>
        <time>2021-02-18T14:07:30Z</time>
      </trkpt>
      <trkpt lat="47.64432" lon="6.17971">
        <ele>242.14</ele>
        <time>2021-02-18T14:07:32Z</time>
      </trkpt>
      <trkpt lat="47.64437" lon="6.17976">
        <ele>242.15</ele>
        <time>2021-02-18T14:07:36Z</time>
      </trkpt>
      <trkpt lat="47.64444" lon="6.17987">
        <ele>242.15</ele>
        <time>2021-02-18T14:07:39Z</time>
      </trkpt>
      <trkpt lat="47.64447" lon="6.17994">
        <ele>242.16</ele>
        <time>2021-02-18T14:07:40Z</time>
      </trkpt>
      <trkpt lat="47.64451" lon="6.18001">
        <ele>242.17</ele>
        <time>2021-02-18T14:07:41Z</time>
      </trkpt>
      <trkpt lat="47.64455" lon="6.18009">
        <ele>242.14</ele>
        <time>2021-02-18T14:07:43Z</time>
      </trkpt>
      <trkpt lat="47.64462" lon="6.18022">
        <ele>242.18</ele>
        <time>2021-02-18T14:07:45Z</time>
      </trkpt>
      <trkpt lat="47.64467" lon="6.18032">
        <ele>242.2</ele>
        <time>2021-02-18T14:07:48Z</time>
      </trkpt>
      <trkpt lat="47.64476" lon="6.18042">
        <ele>242.32</ele>
        <time>2021-02-18T14:07:52Z</time>
      </trkpt>
      <trkpt lat="47.6448" lon="6.18045">
        <ele>242.34</ele>
        <time>2021-02-18T14:07:53Z</time>
      </trkpt>
      <trkpt lat="47.64485" lon="6.18048">
        <ele>242.29</ele>
        <time>2021-02-18T14:07:56Z</time>
      </trkpt>
      <trkpt lat="47.64491" lon="6.18051">
        <ele>242.31</ele>
        <time>2021-02-18T14:07:58Z</time>
      </trkpt>
      <trkpt lat="47.64497" lon="6.18054">
        <ele>242.36</ele>
        <time>2021-02-18T14:07:58Z</time>
      </trkpt>
      <trkpt lat="47.64501" lon="6.18056">
        <ele>242.35</ele>
        <time>2021-02-18T14:08:02Z</time>
      </trkpt>
      <trkpt lat="47.64505" lon="6.1806">
        <ele>242.34</ele>
        <time>2021-02-18T14:08:02Z</time>
      </trkpt>
      <trkpt lat="47.64511" lon="6.18054">
        <ele>242.39</ele>
        <time>2021-02-18T14:08:07Z</time>
      </trkpt>
      <trkpt lat="47.64516" lon="6.18049">
        <ele>242.36</ele>
        <time>2021-02-18T14:08:07Z</time>
      </trkpt>
      <trkpt lat="47.64519" lon="6.18045">
        <ele>242.38</ele>
        <time>2021-02-18T14:08:11Z</time>
      </trkpt>
      <trkpt lat="47.64524" lon="6.18041">
        <ele>242.34</ele>
        <time>2021-02-18T14:08:13Z</time>
      </trkpt>
      <trkpt lat="47.6453" lon="6.18035">
        <ele>242.32</ele>
        <time>2021-02-18T14:08:16Z</time>
      </trkpt>
      <trkpt lat="47.64535" lon="6.18035">
        <ele>242.34</ele>
        <time>2021-02-18T14:08:20Z</time>
      </trkpt>
      <trkpt lat="47.64535" lon="6.18041">
        <ele>242.4</ele>
        <time>2021-02-18T14:08:20Z</time>
      </trkpt>
      <trkpt lat="47.64537" lon="6.18048">
        <ele>242.46</ele>
        <time>2021-02-18T14:08:26Z</time>
      </trkpt>
      <trkpt lat="47.6454" lon="6.18055">
        <ele>250.61</ele>
        <time>2021-02-18T14:08:26Z</time>
      </trkpt>
      <trkpt lat="47.64542" lon="6.18061">
        <ele>250.75</ele>
        <time>2021-02-18T14:08:32Z</time>
      </trkpt>
      <trkpt lat="47.64543" lon="6.18069">
        <ele>250.77</ele>
        <time>2021-02-18T14:08:33Z</time>
      </trkpt>
      <trkpt lat="47.64543" lon="6.18076">
        <ele>250.8</ele>
        <time>2021-02-18T14:08:39Z</time>
      </trkpt>
      <trkpt lat="47.64544" lon="6.18083">
        <ele>250.83</ele>
        <time>2021-02-18T14:08:43Z</time>
      </trkpt>
      <trkpt lat="47.64545" lon="6.1809">
        <ele>229.63</ele>
        <time>2021-02-18T14:08:44Z</time>
      </trkpt>
      <trkpt lat="47.64546" lon="6.18096">
        <ele>227.96</ele>
        <time>2021-02-18T14:08:50Z</time>
      </trkpt>
      <trkpt lat="47.64549" lon="6.18102">
        <ele>228.16</ele>
        <time>2021-02-18T14:08:54Z</time>
      </trkpt>
      <trkpt lat="47.64554" lon="6.18102">
        <ele>228.41</ele>
        <time>2021-02-18T14:09:09Z</time>
      </trkpt>
      <trkpt lat="47.64558" lon="6.18096">
        <ele>228.74</ele>
        <time>2021-02-18T14:09:11Z</time>
      </trkpt>
      <trkpt lat="47.64563" lon="6.18087">
        <ele>229.16</ele>
        <time>2021-02-18T14:09:14Z</time>
      </trkpt>
      <trkpt lat="47.64566" lon="6.1808">
        <ele>229.94</ele>
        <time>2021-02-18T14:09:20Z</time>
      </trkpt>
      <trkpt lat="47.64569" lon="6.18073">
        <ele>230.12</ele>
        <time>2021-02-18T14:09:23Z</time>
      </trkpt>
      <trkpt lat="47.64569" lon="6.18066">
        <ele>228.78</ele>
        <time>2021-02-18T14:09:27Z</time>
      </trkpt>
      <trkpt lat="47.64571" lon="6.18058">
        <ele>229.7</ele>
        <time>2021-02-18T14:09:38Z</time>
      </trkpt>
      <trkpt lat="47.64573" lon="6.18052">
        <ele>230.5</ele>
        <time>2021-02-18T14:09:39Z</time>
      </trkpt>
      <trkpt lat="47.64576" lon="6.18046">
        <ele>230.99</ele>
        <time>2021-02-18T14:09:45Z</time>
      </trkpt>
      <trkpt lat="47.6458" lon="6.18042">
        <ele>228.03</ele>
        <time>2021-02-18T14:09:46Z</time>
      </trkpt>
      <trkpt lat="47.64583" lon="6.18037">
        <ele>229.79</ele>
        <time>2021-02-18T14:09:52Z</time>
      </trkpt>
      <trkpt lat="47.64586" lon="6.18032">
        <ele>231.89</ele>
        <time>2021-02-18T14:10:01Z</time>
      </trkpt>
      <trkpt lat="47.64589" lon="6.18027">
        <ele>228.1</ele>
        <time>2021-02-18T14:10:09Z</time>
      </trkpt>
      <trkpt lat="47.64592" lon="6.18022">
        <ele>229.88</ele>
        <time>2021-02-18T14:10:12Z</time>
      </trkpt>
      <trkpt lat="47.64597" lon="6.1802">
        <ele>231.94</ele>
        <time>2021-02-18T14:10:18Z</time>
      </trkpt>
      <trkpt lat="47.64602" lon="6.18017">
        <ele>234.3</ele>
        <time>2021-02-18T14:10:26Z</time>
      </trkpt>
      <trkpt lat="47.64607" lon="6.18016">
        <ele>236.83</ele>
        <time>2021-02-18T14:10:36Z</time>
      </trkpt>
      <trkpt lat="47.64612" lon="6.18017">
        <ele>238.15</ele>
        <time>2021-02-18T14:10:45Z</time>
      </trkpt>
      <trkpt lat="47.64616" lon="6.18019">
        <ele>239.4</ele>
        <time>2021-02-18T14:10:50Z</time>
      </trkpt>
      <trkpt lat="47.6462" lon="6.18022">
        <ele>240.57</ele>
        <time>2021-02-18T14:10:53Z</time>
      </trkpt>
      <trkpt lat="47.64626" lon="6.18026">
        <ele>241.28</ele>
        <time>2021-02-18T14:10:58Z</time>
      </trkpt>
      <trkpt lat="47.64629" lon="6.1803">
        <ele>242.03</ele>
        <time>2021-02-18T14:11:01Z</time>
      </trkpt>
      <trkpt lat="47.64635" lon="6.18034">
        <ele>242.31</ele>
        <time>2021-02-18T14:11:06Z</time>
      </trkpt>
      <trkpt lat="47.6464" lon="6.18038">
        <ele>242.91</ele>
        <time>2021-02-18T14:11:08Z</time>
      </trkpt>
      <trkpt lat="47.64645" lon="6.18041">
        <ele>243.73</ele>
        <time>2021-02-18T14:11:11Z</time>
      </trkpt>
      <trkpt lat="47.6465" lon="6.18047">
        <ele>243.95</ele>
        <time>2021-02-18T14:11:13Z</time>
      </trkpt>
      <trkpt lat="47.64654" lon="6.18052">
        <ele>244.26</ele>
        <time>2021-02-18T14:11:17Z</time>
      </trkpt>
      <trkpt lat="47.64658" lon="6.18056">
        <ele>244.35</ele>
        <time>2021-02-18T14:11:20Z</time>
      </trkpt>
      <trkpt lat="47.64663" lon="6.18061">
        <ele>244.91</ele>
        <time>2021-02-18T14:11:22Z</time>
      </trkpt>
      <trkpt lat="47.64668" lon="6.18064">
        <ele>245.12</ele>
        <time>2021-02-18T14:11:26Z</time>
      </trkpt>
      <trkpt lat="47.64671" lon="6.18068">
        <ele>245.18</ele>
        <time>2021-02-18T14:11:29Z</time>
      </trkpt>
      <trkpt lat="47.64674" lon="6.18073">
        <ele>245.27</ele>
        <time>2021-02-18T14:11:32Z</time>
      </trkpt>
      <trkpt lat="47.64678" lon="6.18078">
        <ele>245.29</ele>
        <time>2021-02-18T14:11:34Z</time>
      </trkpt>
      <trkpt lat="47.64682" lon="6.18083">
        <ele>245.25</ele>
        <time>2021-02-18T14:11:37Z</time>
      </trkpt>
      <trkpt lat="47.64686" lon="6.18088">
        <ele>245.28</ele>
        <time>2021-02-18T14:11:39Z</time>
      </trkpt>
      <trkpt lat="47.6469" lon="6.18095">
        <ele>245.25</ele>
        <time>2021-02-18T14:11:43Z</time>
      </trkpt>
      <trkpt lat="47.64694" lon="6.181">
        <ele>245.24</ele>
        <time>2021-02-18T14:11:46Z</time>
      </trkpt>
      <trkpt lat="47.64698" lon="6.18105">
        <ele>245.26</ele>
        <time>2021-02-18T14:11:50Z</time>
      </trkpt>
      <trkpt lat="47.64701" lon="6.18112">
        <ele>245.32</ele>
        <time>2021-02-18T14:11:54Z</time>
      </trkpt>
      <trkpt lat="47.64704" lon="6.18117">
        <ele>245.36</ele>
        <time>2021-02-18T14:11:56Z</time>
      </trkpt>
      <trkpt lat="47.64708" lon="6.18123">
        <ele>245.37</ele>
        <time>2021-02-18T14:11:58Z</time>
      </trkpt>
      <trkpt lat="47.64712" lon="6.1813">
        <ele>245.36</ele>
        <time>2021-02-18T14:12:01Z</time>
      </trkpt>
      <trkpt lat="47.64715" lon="6.18136">
        <ele>245.34</ele>
        <time>2021-02-18T14:12:04Z</time>
      </trkpt>
      <trkpt lat="47.6472" lon="6.18143">
        <ele>245.3</ele>
        <time>2021-02-18T14:12:06Z</time>
      </trkpt>
      <trkpt lat="47.64724" lon="6.18149">
        <ele>245.22</ele>
        <time>2021-02-18T14:12:08Z</time>
      </trkpt>
      <trkpt lat="47.64727" lon="6.18154">
        <ele>245.3</ele>
        <time>2021-02-18T14:12:10Z</time>
      </trkpt>
      <trkpt lat="47.6473" lon="6.1816">
        <ele>245.38</ele>
        <time>2021-02-18T14:12:12Z</time>
      </trkpt>
      <trkpt lat="47.64734" lon="6.18166">
        <ele>245.4</ele>
        <time>2021-02-18T14:12:15Z</time>
      </trkpt>
      <trkpt lat="47.64738" lon="6.18171">
        <ele>248.04</ele>
        <time>2021-02-18T14:12:16Z</time>
      </trkpt>
      <trkpt lat="47.64742" lon="6.18178">
        <ele>249.13</ele>
        <time>2021-02-18T14:12:17Z</time>
      </trkpt>
      <trkpt lat="47.64746" lon="6.18182">
        <ele>249.24</ele>
        <time>2021-02-18T14:12:20Z</time>
      </trkpt>
      <trkpt lat="47.64752" lon="6.18189">
        <ele>249.19</ele>
        <time>2021-02-18T14:12:22Z</time>
      </trkpt>
      <trkpt lat="47.64756" lon="6.18194">
        <ele>249.21</ele>
        <time>2021-02-18T14:12:24Z</time>
      </trkpt>
      <trkpt lat="47.6476" lon="6.18198">
        <ele>249.26</ele>
        <time>2021-02-18T14:12:26Z</time>
      </trkpt>
      <trkpt lat="47.64766" lon="6.18205">
        <ele>249.25</ele>
        <time>2021-02-18T14:12:28Z</time>
      </trkpt>
      <trkpt lat="47.64772" lon="6.18211">
        <ele>249.14</ele>
        <time>2021-02-18T14:12:29Z</time>
      </trkpt>
      <trkpt lat="47.64782" lon="6.18219">
        <ele>249.15</ele>
        <time>2021-02-18T14:12:30Z</time>
      </trkpt>
      <trkpt lat="47.64789" lon="6.18224">
        <ele>249.15</ele>
        <time>2021-02-18T14:12:33Z</time>
      </trkpt>
      <trkpt lat="47.64795" lon="6.18227">
        <ele>249.15</ele>
        <time>2021-02-18T14:12:34Z</time>
      </trkpt>
      <trkpt lat="47.64801" lon="6.18231">
        <ele>249.17</ele>
        <time>2021-02-18T14:12:35Z</time>
      </trkpt>
      <trkpt lat="47.64811" lon="6.18236">
        <ele>249.2</ele>
        <time>2021-02-18T14:12:36Z</time>
      </trkpt>
      <trkpt lat="47.6482" lon="6.18242">
        <ele>249.16</ele>
        <time>2021-02-18T14:12:40Z</time>
      </trkpt>
      <trkpt lat="47.64826" lon="6.18244">
        <ele>249.12</ele>
        <time>2021-02-18T14:12:41Z</time>
      </trkpt>
      <trkpt lat="47.64832" lon="6.18247">
        <ele>249.1</ele>
        <time>2021-02-18T14:12:43Z</time>
      </trkpt>
      <trkpt lat="47.64839" lon="6.18252">
        <ele>249.06</ele>
        <time>2021-02-18T14:12:45Z</time>
      </trkpt>
      <trkpt lat="47.64843" lon="6.18255">
        <ele>248.99</ele>
        <time>2021-02-18T14:12:47Z</time>
      </trkpt>
      <trkpt lat="47.64848" lon="6.18259">
        <ele>249.2</ele>
        <time>2021-02-18T14:12:49Z</time>
      </trkpt>
      <trkpt lat="47.64854" lon="6.18264">
        <ele>249.48</ele>
        <time>2021-02-18T14:12:50Z</time>
      </trkpt>
      <trkpt lat="47.64859" lon="6.18268">
        <ele>249.49</ele>
        <time>2021-02-18T14:12:54Z</time>
      </trkpt>
      <trkpt lat="47.64868" lon="6.18275">
        <ele>249.46</ele>
        <time>2021-02-18T14:12:57Z</time>
      </trkpt>
      <trkpt lat="47.64873" lon="6.18278">
        <ele>249.5</ele>
        <time>2021-02-18T14:12:59Z</time>
      </trkpt>
      <trkpt lat="47.64879" lon="6.18283">
        <ele>249.76</ele>
        <time>2021-02-18T14:13:01Z</time>
      </trkpt>
      <trkpt lat="47.64884" lon="6.18286">
        <ele>249.83</ele>
        <time>2021-02-18T14:13:03Z</time>
      </trkpt>
      <trkpt lat="47.64889" lon="6.18289">
        <ele>249.75</ele>
        <time>2021-02-18T14:13:06Z</time>
      </trkpt>
      <trkpt lat="47.64894" lon="6.18292">
        <ele>249.7</ele>
        <time>2021-02-18T14:13:10Z</time>
      </trkpt>
      <trkpt lat="47.649" lon="6.18296">
        <ele>250.33</ele>
        <time>2021-02-18T14:13:12Z</time>
      </trkpt>
      <trkpt lat="47.64904" lon="6.18299">
        <ele>250.45</ele>
        <time>2021-02-18T14:13:17Z</time>
      </trkpt>
      <trkpt lat="47.64908" lon="6.18302">
        <ele>250.55</ele>
        <time>2021-02-18T14:13:18Z</time>
      </trkpt>
      <trkpt lat="47.64913" lon="6.18304">
        <ele>250.53</ele>
        <time>2021-02-18T14:13:22Z</time>
      </trkpt>
      <trkpt lat="47.64917" lon="6.18306">
        <ele>251.47</ele>
        <time>2021-02-18T14:13:25Z</time>
      </trkpt>
      <trkpt lat="47.64924" lon="6.18308">
        <ele>251.65</ele>
        <time>2021-02-18T14:13:26Z</time>
      </trkpt>
      <trkpt lat="47.64929" lon="6.18308">
        <ele>251.67</ele>
        <time>2021-02-18T14:13:29Z</time>
      </trkpt>
      <trkpt lat="47.64935" lon="6.18309">
        <ele>251.72</ele>
        <time>2021-02-18T14:13:31Z</time>
      </trkpt>
      <trkpt lat="47.6494" lon="6.18309">
        <ele>251.74</ele>
        <time>2021-02-18T14:13:33Z</time>
      </trkpt>
      <trkpt lat="47.64946" lon="6.1831">
        <ele>251.75</ele>
        <time>2021-02-18T14:13:34Z</time>
      </trkpt>
      <trkpt lat="47.64953" lon="6.1831">
        <ele>252.27</ele>
        <time>2021-02-18T14:13:38Z</time>
      </trkpt>
      <trkpt lat="47.6496" lon="6.1831">
        <ele>252.22</ele>
        <time>2021-02-18T14:13:41Z</time>
      </trkpt>
      <trkpt lat="47.64965" lon="6.18311">
        <ele>252.24</ele>
        <time>2021-02-18T14:13:42Z</time>
      </trkpt>
      <trkpt lat="47.64973" lon="6.18311">
        <ele>252.22</ele>
        <time>2021-02-18T14:13:45Z</time>
      </trkpt>
      <trkpt lat="47.64979" lon="6.18312">
        <ele>252.1</ele>
        <time>2021-02-18T14:13:47Z</time>
      </trkpt>
      <trkpt lat="47.64985" lon="6.18312">
        <ele>252.55</ele>
        <time>2021-02-18T14:13:49Z</time>
      </trkpt>
      <trkpt lat="47.64992" lon="6.18313">
        <ele>252.62</ele>
        <time>2021-02-18T14:13:51Z</time>
      </trkpt>
      <trkpt lat="47.64998" lon="6.18313">
        <ele>252.69</ele>
        <time>2021-02-18T14:13:53Z</time>
      </trkpt>
      <trkpt lat="47.65003" lon="6.18314">
        <ele>252.71</ele>
        <time>2021-02-18T14:13:55Z</time>
      </trkpt>
      <trkpt lat="47.65011" lon="6.18315">
        <ele>252.69</ele>
        <time>2021-02-18T14:13:56Z</time>
      </trkpt>
      <trkpt lat="47.65016" lon="6.18316">
        <ele>253.11</ele>
        <time>2021-02-18T14:14:00Z</time>
      </trkpt>
      <trkpt lat="47.65022" lon="6.18317">
        <ele>253.29</ele>
        <time>2021-02-18T14:14:02Z</time>
      </trkpt>
      <trkpt lat="47.65028" lon="6.18319">
        <ele>253.26</ele>
        <time>2021-02-18T14:14:03Z</time>
      </trkpt>
      <trkpt lat="47.65033" lon="6.1832">
        <ele>253.33</ele>
        <time>2021-02-18T14:14:05Z</time>
      </trkpt>
      <trkpt lat="47.65037" lon="6.18321">
        <ele>253.35</ele>
        <time>2021-02-18T14:14:07Z</time>
      </trkpt>
      <trkpt lat="47.65043" lon="6.18322">
        <ele>253.33</ele>
        <time>2021-02-18T14:14:09Z</time>
      </trkpt>
      <trkpt lat="47.65048" lon="6.18324">
        <ele>253.88</ele>
        <time>2021-02-18T14:14:12Z</time>
      </trkpt>
      <trkpt lat="47.65055" lon="6.18328">
        <ele>254.3</ele>
        <time>2021-02-18T14:14:14Z</time>
      </trkpt>
      <trkpt lat="47.65059" lon="6.18331">
        <ele>254.32</ele>
        <time>2021-02-18T14:14:16Z</time>
      </trkpt>
      <trkpt lat="47.65064" lon="6.18334">
        <ele>254.28</ele>
        <time>2021-02-18T14:14:18Z</time>
      </trkpt>
      <trkpt lat="47.65068" lon="6.18338">
        <ele>254.3</ele>
        <time>2021-02-18T14:14:20Z</time>
      </trkpt>
      <trkpt lat="47.65073" lon="6.18343">
        <ele>254.27</ele>
        <time>2021-02-18T14:14:22Z</time>
      </trkpt>
      <trkpt lat="47.65078" lon="6.18347">
        <ele>254.21</ele>
        <time>2021-02-18T14:14:24Z</time>
      </trkpt>
      <trkpt lat="47.65082" lon="6.18351">
        <ele>254.22</ele>
        <time>2021-02-18T14:14:26Z</time>
      </trkpt>
      <trkpt lat="47.65086" lon="6.18355">
        <ele>254.18</ele>
        <time>2021-02-18T14:14:28Z</time>
      </trkpt>
      <trkpt lat="47.65092" lon="6.18359">
        <ele>254.19</ele>
        <time>2021-02-18T14:14:31Z</time>
      </trkpt>
      <trkpt lat="47.65096" lon="6.18363">
        <ele>254.2</ele>
        <time>2021-02-18T14:14:32Z</time>
      </trkpt>
      <trkpt lat="47.651" lon="6.18367">
        <ele>254.23</ele>
        <time>2021-02-18T14:14:33Z</time>
      </trkpt>
      <trkpt lat="47.65105" lon="6.18371">
        <ele>254.18</ele>
        <time>2021-02-18T14:14:37Z</time>
      </trkpt>
      <trkpt lat="47.65108" lon="6.18376">
        <ele>254.25</ele>
        <time>2021-02-18T14:14:40Z</time>
      </trkpt>
      <trkpt lat="47.65112" lon="6.1838">
        <ele>254.2</ele>
        <time>2021-02-18T14:14:43Z</time>
      </trkpt>
      <trkpt lat="47.65116" lon="6.18384">
        <ele>254.19</ele>
        <time>2021-02-18T14:14:44Z</time>
      </trkpt>
      <trkpt lat="47.6512" lon="6.18388">
        <ele>254.23</ele>
        <time>2021-02-18T14:14:48Z</time>
      </trkpt>
      <trkpt lat="47.65124" lon="6.18392">
        <ele>254.25</ele>
        <time>2021-02-18T14:14:50Z</time>
      </trkpt>
      <trkpt lat="47.65128" lon="6.18396">
        <ele>254.25</ele>
        <time>2021-02-18T14:14:53Z</time>
      </trkpt>
      <trkpt lat="47.65132" lon="6.184">
        <ele>254.3</ele>
        <time>2021-02-18T14:14:56Z</time>
      </trkpt>
      <trkpt lat="47.65137" lon="6.18404">
        <ele>254.33</ele>
        <time>2021-02-18T14:14:59Z</time>
      </trkpt>
      <trkpt lat="47.65141" lon="6.18406">
        <ele>254.41</ele>
        <time>2021-02-18T14:15:02Z</time>
      </trkpt>
      <trkpt lat="47.65146" lon="6.1841">
        <ele>254.47</ele>
        <time>2021-02-18T14:15:06Z</time>
      </trkpt>
      <trkpt lat="47.65151" lon="6.18413">
        <ele>254.42</ele>
        <time>2021-02-18T14:15:09Z</time>
      </trkpt>
      <trkpt lat="47.65156" lon="6.18417">
        <ele>254.44</ele>
        <time>2021-02-18T14:15:10Z</time>
      </trkpt>
      <trkpt lat="47.65162" lon="6.1842">
        <ele>254.5</ele>
        <time>2021-02-18T14:15:15Z</time>
      </trkpt>
      <trkpt lat="47.65166" lon="6.18424">
        <ele>254.48</ele>
        <time>2021-02-18T14:15:17Z</time>
      </trkpt>
      <trkpt lat="47.65171" lon="6.18428">
        <ele>254.49</ele>
        <time>2021-02-18T14:15:18Z</time>
      </trkpt>
      <trkpt lat="47.65175" lon="6.18431">
        <ele>254.51</ele>
        <time>2021-02-18T14:15:22Z</time>
      </trkpt>
      <trkpt lat="47.6518" lon="6.18438">
        <ele>254.46</ele>
        <time>2021-02-18T14:15:25Z</time>
      </trkpt>
      <trkpt lat="47.65184" lon="6.18442">
        <ele>254.42</ele>
        <time>2021-02-18T14:15:28Z</time>
      </trkpt>
      <trkpt lat="47.65188" lon="6.18449">
        <ele>254.43</ele>
        <time>2021-02-18T14:15:32Z</time>
      </trkpt>
      <trkpt lat="47.65193" lon="6.18456">
        <ele>254.42</ele>
        <time>2021-02-18T14:15:35Z</time>
      </trkpt>
      <trkpt lat="47.65197" lon="6.18462">
        <ele>254.43</ele>
        <time>2021-02-18T14:15:38Z</time>
      </trkpt>
      <trkpt lat="47.65201" lon="6.18468">
        <ele>254.45</ele>
        <time>2021-02-18T14:15:41Z</time>
      </trkpt>
      <trkpt lat="47.65205" lon="6.18473">
        <ele>254.43</ele>
        <time>2021-02-18T14:15:44Z</time>
      </trkpt>
      <trkpt lat="47.65209" lon="6.18479">
        <ele>254.43</ele>
        <time>2021-02-18T14:15:47Z</time>
      </trkpt>
      <trkpt lat="47.65212" lon="6.18485">
        <ele>254.41</ele>
        <time>2021-02-18T14:15:50Z</time>
      </trkpt>
      <trkpt lat="47.65216" lon="6.18491">
        <ele>254.51</ele>
        <time>2021-02-18T14:15:51Z</time>
      </trkpt>
      <trkpt lat="47.65219" lon="6.18498">
        <ele>254.53</ele>
        <time>2021-02-18T14:15:54Z</time>
      </trkpt>
      <trkpt lat="47.65223" lon="6.18505">
        <ele>254.51</ele>
        <time>2021-02-18T14:15:58Z</time>
      </trkpt>
      <trkpt lat="47.65226" lon="6.1851">
        <ele>254.53</ele>
        <time>2021-02-18T14:15:59Z</time>
      </trkpt>
      <trkpt lat="47.6523" lon="6.18518">
        <ele>254.51</ele>
        <time>2021-02-18T14:16:04Z</time>
      </trkpt>
      <trkpt lat="47.65233" lon="6.18526">
        <ele>254.48</ele>
        <time>2021-02-18T14:16:06Z</time>
      </trkpt>
      <trkpt lat="47.65237" lon="6.18534">
        <ele>254.5</ele>
        <time>2021-02-18T14:16:09Z</time>
      </trkpt>
      <trkpt lat="47.6524" lon="6.18541">
        <ele>254.44</ele>
        <time>2021-02-18T14:16:12Z</time>
      </trkpt>
      <trkpt lat="47.65242" lon="6.18546">
        <ele>254.43</ele>
        <time>2021-02-18T14:16:13Z</time>
      </trkpt>
      <trkpt lat="47.65245" lon="6.18553">
        <ele>254.46</ele>
        <time>2021-02-18T14:16:17Z</time>
      </trkpt>
      <trkpt lat="47.65249" lon="6.18561">
        <ele>254.5</ele>
        <time>2021-02-18T14:16:21Z</time>
      </trkpt>
      <trkpt lat="47.65252" lon="6.18567">
        <ele>254.53</ele>
        <time>2021-02-18T14:16:23Z</time>
      </trkpt>
      <trkpt lat="47.65255" lon="6.18576">
        <ele>254.55</ele>
        <time>2021-02-18T14:16:26Z</time>
      </trkpt>
      <trkpt lat="47.65258" lon="6.18583">
        <ele>254.47</ele>
        <time>2021-02-18T14:16:29Z</time>
      </trkpt>
      <trkpt lat="47.65262" lon="6.18592">
        <ele>254.38</ele>
        <time>2021-02-18T14:16:31Z</time>
      </trkpt>
      <trkpt lat="47.65265" lon="6.186">
        <ele>254.36</ele>
        <time>2021-02-18T14:16:35Z</time>
      </trkpt>
      <trkpt lat="47.65268" lon="6.18606">
        <ele>254.32</ele>
        <time>2021-02-18T14:16:37Z</time>
      </trkpt>
      <trkpt lat="47.65271" lon="6.18613">
        <ele>254.32</ele>
        <time>2021-02-18T14:16:40Z</time>
      </trkpt>
      <trkpt lat="47.65274" lon="6.18621">
        <ele>254.29</ele>
        <time>2021-02-18T14:16:42Z</time>
      </trkpt>
      <trkpt lat="47.65277" lon="6.18627">
        <ele>254.27</ele>
        <time>2021-02-18T14:16:45Z</time>
      </trkpt>
      <trkpt lat="47.6528" lon="6.18633">
        <ele>254.26</ele>
        <time>2021-02-18T14:16:48Z</time>
      </trkpt>
      <trkpt lat="47.65283" lon="6.18639">
        <ele>254.23</ele>
        <time>2021-02-18T14:16:52Z</time>
      </trkpt>
      <trkpt lat="47.65286" lon="6.18646">
        <ele>254.23</ele>
        <time>2021-02-18T14:16:56Z</time>
      </trkpt>
      <trkpt lat="47.6529" lon="6.18651">
        <ele>254.19</ele>
        <time>2021-02-18T14:16:59Z</time>
      </trkpt>
      <trkpt lat="47.65293" lon="6.18656">
        <ele>254.25</ele>
        <time>2021-02-18T14:17:00Z</time>
      </trkpt>
      <trkpt lat="47.65297" lon="6.18661">
        <ele>254.23</ele>
        <time>2021-02-18T14:17:04Z</time>
      </trkpt>
      <trkpt lat="47.65302" lon="6.18667">
        <ele>254.2</ele>
        <time>2021-02-18T14:17:08Z</time>
      </trkpt>
      <trkpt lat="47.65306" lon="6.18672">
        <ele>254.17</ele>
        <time>2021-02-18T14:17:11Z</time>
      </trkpt>
      <trkpt lat="47.65309" lon="6.1868">
        <ele>254.21</ele>
        <time>2021-02-18T14:17:14Z</time>
      </trkpt>
      <trkpt lat="47.65309" lon="6.18688">
        <ele>254.22</ele>
        <time>2021-02-18T14:17:16Z</time>
      </trkpt>
      <trkpt lat="47.65305" lon="6.18693">
        <ele>254.17</ele>
        <time>2021-02-18T14:17:20Z</time>
      </trkpt>
      <trkpt lat="47.653" lon="6.18699">
        <ele>254.15</ele>
        <time>2021-02-18T14:17:23Z</time>
      </trkpt>
      <trkpt lat="47.65296" lon="6.18705">
        <ele>254.12</ele>
        <time>2021-02-18T14:17:25Z</time>
      </trkpt>
      <trkpt lat="47.65291" lon="6.18711">
        <ele>254.12</ele>
        <time>2021-02-18T14:17:27Z</time>
      </trkpt>
      <trkpt lat="47.65285" lon="6.18718">
        <ele>254.1</ele>
        <time>2021-02-18T14:17:28Z</time>
      </trkpt>
      <trkpt lat="47.65279" lon="6.18724">
        <ele>254.09</ele>
        <time>2021-02-18T14:17:31Z</time>
      </trkpt>
      <trkpt lat="47.65268" lon="6.18737">
        <ele>254.04</ele>
        <time>2021-02-18T14:17:34Z</time>
      </trkpt>
      <trkpt lat="47.65264" lon="6.18741">
        <ele>254.04</ele>
        <time>2021-02-18T14:17:35Z</time>
      </trkpt>
      <trkpt lat="47.65259" lon="6.18746">
        <ele>254.03</ele>
        <time>2021-02-18T14:17:36Z</time>
      </trkpt>
      <trkpt lat="47.65252" lon="6.18754">
        <ele>254.04</ele>
        <time>2021-02-18T14:17:38Z</time>
      </trkpt>
      <trkpt lat="47.65244" lon="6.18762">
        <ele>254.04</ele>
        <time>2021-02-18T14:17:40Z</time>
      </trkpt>
      <trkpt lat="47.6524" lon="6.18768">
        <ele>254.05</ele>
        <time>2021-02-18T14:17:41Z</time>
      </trkpt>
      <trkpt lat="47.65234" lon="6.18774">
        <ele>254.07</ele>
        <time>2021-02-18T14:17:43Z</time>
      </trkpt>
      <trkpt lat="47.6523" lon="6.18778">
        <ele>254.07</ele>
        <time>2021-02-18T14:17:44Z</time>
      </trkpt>
      <trkpt lat="47.65218" lon="6.18793">
        <ele>254.06</ele>
        <time>2021-02-18T14:17:45Z</time>
      </trkpt>
      <trkpt lat="47.65212" lon="6.18801">
        <ele>254.02</ele>
        <time>2021-02-18T14:17:47Z</time>
      </trkpt>
      <trkpt lat="47.65206" lon="6.18809">
        <ele>253.99</ele>
        <time>2021-02-18T14:17:49Z</time>
      </trkpt>
      <trkpt lat="47.65201" lon="6.18816">
        <ele>253.96</ele>
        <time>2021-02-18T14:17:52Z</time>
      </trkpt>
      <trkpt lat="47.65196" lon="6.18818">
        <ele>254</ele>
        <time>2021-02-18T14:17:54Z</time>
      </trkpt>
      <trkpt lat="47.65189" lon="6.18826">
        <ele>254.03</ele>
        <time>2021-02-18T14:17:56Z</time>
      </trkpt>
      <trkpt lat="47.65185" lon="6.18831">
        <ele>254.06</ele>
        <time>2021-02-18T14:17:57Z</time>
      </trkpt>
      <trkpt lat="47.6518" lon="6.18837">
        <ele>254.08</ele>
        <time>2021-02-18T14:17:59Z</time>
      </trkpt>
      <trkpt lat="47.65175" lon="6.18843">
        <ele>254.06</ele>
        <time>2021-02-18T14:18:01Z</time>
      </trkpt>
      <trkpt lat="47.65167" lon="6.18852">
        <ele>254.06</ele>
        <time>2021-02-18T14:18:04Z</time>
      </trkpt>
      <trkpt lat="47.65162" lon="6.18856">
        <ele>254.03</ele>
        <time>2021-02-18T14:18:06Z</time>
      </trkpt>
      <trkpt lat="47.65158" lon="6.18861">
        <ele>254</ele>
        <time>2021-02-18T14:18:08Z</time>
      </trkpt>
      <trkpt lat="47.65153" lon="6.18866">
        <ele>253.97</ele>
        <time>2021-02-18T14:18:10Z</time>
      </trkpt>
      <trkpt lat="47.65149" lon="6.18871">
        <ele>253.91</ele>
        <time>2021-02-18T14:18:12Z</time>
      </trkpt>
      <trkpt lat="47.65143" lon="6.18877">
        <ele>253.9</ele>
        <time>2021-02-18T14:18:13Z</time>
      </trkpt>
      <trkpt lat="47.65139" lon="6.18882">
        <ele>253.94</ele>
        <time>2021-02-18T14:18:16Z</time>
      </trkpt>
      <trkpt lat="47.65135" lon="6.18886">
        <ele>253.94</ele>
        <time>2021-02-18T14:18:17Z</time>
      </trkpt>
      <trkpt lat="47.6513" lon="6.18891">
        <ele>253.96</ele>
        <time>2021-02-18T14:18:19Z</time>
      </trkpt>
      <trkpt lat="47.65118" lon="6.18905">
        <ele>253.94</ele>
        <time>2021-02-18T14:18:22Z</time>
      </trkpt>
      <trkpt lat="47.65113" lon="6.1891">
        <ele>253.96</ele>
        <time>2021-02-18T14:18:23Z</time>
      </trkpt>
      <trkpt lat="47.65109" lon="6.18914">
        <ele>253.94</ele>
        <time>2021-02-18T14:18:25Z</time>
      </trkpt>
      <trkpt lat="47.65103" lon="6.1892">
        <ele>253.98</ele>
        <time>2021-02-18T14:18:26Z</time>
      </trkpt>
      <trkpt lat="47.65099" lon="6.18925">
        <ele>253.99</ele>
        <time>2021-02-18T14:18:28Z</time>
      </trkpt>
      <trkpt lat="47.65092" lon="6.1893">
        <ele>254.06</ele>
        <time>2021-02-18T14:18:29Z</time>
      </trkpt>
      <trkpt lat="47.65088" lon="6.18935">
        <ele>254.15</ele>
        <time>2021-02-18T14:18:33Z</time>
      </trkpt>
      <trkpt lat="47.65083" lon="6.18939">
        <ele>254.17</ele>
        <time>2021-02-18T14:18:34Z</time>
      </trkpt>
      <trkpt lat="47.65078" lon="6.18945">
        <ele>254.21</ele>
        <time>2021-02-18T14:18:40Z</time>
      </trkpt>
      <trkpt lat="47.65074" lon="6.1895">
        <ele>254.12</ele>
        <time>2021-02-18T14:18:43Z</time>
      </trkpt>
      <trkpt lat="47.6507" lon="6.18955">
        <ele>254.06</ele>
        <time>2021-02-18T14:18:45Z</time>
      </trkpt>
      <trkpt lat="47.65065" lon="6.18959">
        <ele>254.02</ele>
        <time>2021-02-18T14:18:47Z</time>
      </trkpt>
      <trkpt lat="47.65059" lon="6.18965">
        <ele>254.03</ele>
        <time>2021-02-18T14:18:48Z</time>
      </trkpt>
      <trkpt lat="47.65054" lon="6.1897">
        <ele>254.01</ele>
        <time>2021-02-18T14:18:51Z</time>
      </trkpt>
      <trkpt lat="47.65044" lon="6.18981">
        <ele>253.99</ele>
        <time>2021-02-18T14:18:55Z</time>
      </trkpt>
      <trkpt lat="47.65039" lon="6.18986">
        <ele>253.92</ele>
        <time>2021-02-18T14:18:56Z</time>
      </trkpt>
      <trkpt lat="47.65033" lon="6.18992">
        <ele>253.91</ele>
        <time>2021-02-18T14:18:58Z</time>
      </trkpt>
      <trkpt lat="47.6502" lon="6.19006">
        <ele>253.95</ele>
        <time>2021-02-18T14:19:01Z</time>
      </trkpt>
      <trkpt lat="47.65013" lon="6.19013">
        <ele>254</ele>
        <time>2021-02-18T14:19:03Z</time>
      </trkpt>
      <trkpt lat="47.65007" lon="6.19019">
        <ele>254.01</ele>
        <time>2021-02-18T14:19:04Z</time>
      </trkpt>
      <trkpt lat="47.64994" lon="6.19033">
        <ele>254</ele>
        <time>2021-02-18T14:19:05Z</time>
      </trkpt>
      <trkpt lat="47.6499" lon="6.1904">
        <ele>254</ele>
        <time>2021-02-18T14:19:06Z</time>
      </trkpt>
      <trkpt lat="47.64987" lon="6.19047">
        <ele>254.02</ele>
        <time>2021-02-18T14:19:07Z</time>
      </trkpt>
      <trkpt lat="47.64986" lon="6.19054">
        <ele>254.03</ele>
        <time>2021-02-18T14:19:08Z</time>
      </trkpt>
      <trkpt lat="47.64986" lon="6.19061">
        <ele>254.01</ele>
        <time>2021-02-18T14:19:09Z</time>
      </trkpt>
      <trkpt lat="47.64987" lon="6.19068">
        <ele>254.01</ele>
        <time>2021-02-18T14:19:10Z</time>
      </trkpt>
      <trkpt lat="47.64992" lon="6.19079">
        <ele>253.98</ele>
        <time>2021-02-18T14:19:12Z</time>
      </trkpt>
      <trkpt lat="47.64997" lon="6.19084">
        <ele>253.96</ele>
        <time>2021-02-18T14:19:16Z</time>
      </trkpt>
      <trkpt lat="47.65003" lon="6.19096">
        <ele>254</ele>
        <time>2021-02-18T14:19:17Z</time>
      </trkpt>
      <trkpt lat="47.65007" lon="6.19103">
        <ele>254.03</ele>
        <time>2021-02-18T14:19:20Z</time>
      </trkpt>
      <trkpt lat="47.65012" lon="6.19111">
        <ele>254.06</ele>
        <time>2021-02-18T14:19:22Z</time>
      </trkpt>
      <trkpt lat="47.65015" lon="6.19118">
        <ele>254.03</ele>
        <time>2021-02-18T14:19:24Z</time>
      </trkpt>
      <trkpt lat="47.65022" lon="6.19128">
        <ele>254.01</ele>
        <time>2021-02-18T14:19:27Z</time>
      </trkpt>
      <trkpt lat="47.65027" lon="6.19135">
        <ele>254</ele>
        <time>2021-02-18T14:19:29Z</time>
      </trkpt>
      <trkpt lat="47.65032" lon="6.19143">
        <ele>254.04</ele>
        <time>2021-02-18T14:19:31Z</time>
      </trkpt>
      <trkpt lat="47.65036" lon="6.19149">
        <ele>254.06</ele>
        <time>2021-02-18T14:19:33Z</time>
      </trkpt>
      <trkpt lat="47.65041" lon="6.19157">
        <ele>254.07</ele>
        <time>2021-02-18T14:19:34Z</time>
      </trkpt>
      <trkpt lat="47.65044" lon="6.19163">
        <ele>254.08</ele>
        <time>2021-02-18T14:19:37Z</time>
      </trkpt>
      <trkpt lat="47.65047" lon="6.19169">
        <ele>254.07</ele>
        <time>2021-02-18T14:19:39Z</time>
      </trkpt>
      <trkpt lat="47.65051" lon="6.19174">
        <ele>254.05</ele>
        <time>2021-02-18T14:19:40Z</time>
      </trkpt>
      <trkpt lat="47.65055" lon="6.19181">
        <ele>254.04</ele>
        <time>2021-02-18T14:19:42Z</time>
      </trkpt>
      <trkpt lat="47.6506" lon="6.19187">
        <ele>254.01</ele>
        <time>2021-02-18T14:19:44Z</time>
      </trkpt>
      <trkpt lat="47.65063" lon="6.19192">
        <ele>254</ele>
        <time>2021-02-18T14:19:46Z</time>
      </trkpt>
      <trkpt lat="47.65068" lon="6.19199">
        <ele>254.01</ele>
        <time>2021-02-18T14:19:47Z</time>
      </trkpt>
      <trkpt lat="47.65073" lon="6.19207">
        <ele>254</ele>
        <time>2021-02-18T14:19:48Z</time>
      </trkpt>
      <trkpt lat="47.65077" lon="6.19212">
        <ele>253.97</ele>
        <time>2021-02-18T14:19:51Z</time>
      </trkpt>
      <trkpt lat="47.65083" lon="6.19221">
        <ele>253.92</ele>
        <time>2021-02-18T14:19:52Z</time>
      </trkpt>
      <trkpt lat="47.65086" lon="6.19227">
        <ele>253.95</ele>
        <time>2021-02-18T14:19:55Z</time>
      </trkpt>
      <trkpt lat="47.65091" lon="6.19235">
        <ele>253.98</ele>
        <time>2021-02-18T14:19:57Z</time>
      </trkpt>
      <trkpt lat="47.65094" lon="6.1924">
        <ele>253.95</ele>
        <time>2021-02-18T14:19:59Z</time>
      </trkpt>
      <trkpt lat="47.65103" lon="6.19251">
        <ele>253.89</ele>
        <time>2021-02-18T14:20:02Z</time>
      </trkpt>
      <trkpt lat="47.65106" lon="6.19256">
        <ele>253.88</ele>
        <time>2021-02-18T14:20:03Z</time>
      </trkpt>
      <trkpt lat="47.6511" lon="6.19261">
        <ele>253.84</ele>
        <time>2021-02-18T14:20:05Z</time>
      </trkpt>
      <trkpt lat="47.65114" lon="6.19267">
        <ele>253.85</ele>
        <time>2021-02-18T14:20:06Z</time>
      </trkpt>
      <trkpt lat="47.6512" lon="6.19275">
        <ele>253.89</ele>
        <time>2021-02-18T14:20:09Z</time>
      </trkpt>
      <trkpt lat="47.6513" lon="6.19286">
        <ele>253.99</ele>
        <time>2021-02-18T14:20:12Z</time>
      </trkpt>
      <trkpt lat="47.65135" lon="6.19292">
        <ele>253.99</ele>
        <time>2021-02-18T14:20:14Z</time>
      </trkpt>
      <trkpt lat="47.6514" lon="6.19297">
        <ele>253.99</ele>
        <time>2021-02-18T14:20:15Z</time>
      </trkpt>
      <trkpt lat="47.65145" lon="6.19303">
        <ele>253.95</ele>
        <time>2021-02-18T14:20:17Z</time>
      </trkpt>
      <trkpt lat="47.65149" lon="6.19306">
        <ele>253.96</ele>
        <time>2021-02-18T14:20:18Z</time>
      </trkpt>
      <trkpt lat="47.65154" lon="6.19311">
        <ele>253.94</ele>
        <time>2021-02-18T14:20:20Z</time>
      </trkpt>
      <trkpt lat="47.65159" lon="6.19315">
        <ele>253.93</ele>
        <time>2021-02-18T14:20:21Z</time>
      </trkpt>
      <trkpt lat="47.65165" lon="6.19321">
        <ele>253.89</ele>
        <time>2021-02-18T14:20:23Z</time>
      </trkpt>
      <trkpt lat="47.65169" lon="6.19325">
        <ele>253.87</ele>
        <time>2021-02-18T14:20:24Z</time>
      </trkpt>
      <trkpt lat="47.65172" lon="6.1933">
        <ele>253.83</ele>
        <time>2021-02-18T14:20:25Z</time>
      </trkpt>
      <trkpt lat="47.6518" lon="6.19344">
        <ele>253.78</ele>
        <time>2021-02-18T14:20:28Z</time>
      </trkpt>
      <trkpt lat="47.65184" lon="6.19348">
        <ele>253.81</ele>
        <time>2021-02-18T14:20:29Z</time>
      </trkpt>
      <trkpt lat="47.65188" lon="6.19354">
        <ele>253.83</ele>
        <time>2021-02-18T14:20:30Z</time>
      </trkpt>
      <trkpt lat="47.65191" lon="6.19359">
        <ele>253.83</ele>
        <time>2021-02-18T14:20:31Z</time>
      </trkpt>
      <trkpt lat="47.65195" lon="6.19367">
        <ele>253.82</ele>
        <time>2021-02-18T14:20:33Z</time>
      </trkpt>
      <trkpt lat="47.65199" lon="6.19373">
        <ele>253.86</ele>
        <time>2021-02-18T14:20:33Z</time>
      </trkpt>
      <trkpt lat="47.65208" lon="6.19389">
        <ele>253.88</ele>
        <time>2021-02-18T14:20:34Z</time>
      </trkpt>
      <trkpt lat="47.65212" lon="6.19396">
        <ele>253.89</ele>
        <time>2021-02-18T14:20:35Z</time>
      </trkpt>
      <trkpt lat="47.65215" lon="6.19402">
        <ele>253.92</ele>
        <time>2021-02-18T14:20:36Z</time>
      </trkpt>
      <trkpt lat="47.65219" lon="6.19408">
        <ele>253.94</ele>
        <time>2021-02-18T14:20:37Z</time>
      </trkpt>
      <trkpt lat="47.65222" lon="6.19414">
        <ele>253.95</ele>
        <time>2021-02-18T14:20:38Z</time>
      </trkpt>
      <trkpt lat="47.65226" lon="6.1942">
        <ele>253.95</ele>
        <time>2021-02-18T14:20:39Z</time>
      </trkpt>
      <trkpt lat="47.65229" lon="6.19426">
        <ele>253.96</ele>
        <time>2021-02-18T14:20:40Z</time>
      </trkpt>
      <trkpt lat="47.65232" lon="6.19431">
        <ele>253.96</ele>
        <time>2021-02-18T14:20:41Z</time>
      </trkpt>
      <trkpt lat="47.65235" lon="6.19436">
        <ele>253.96</ele>
        <time>2021-02-18T14:20:42Z</time>
      </trkpt>
      <trkpt lat="47.65241" lon="6.19444">
        <ele>254.02</ele>
        <time>2021-02-18T14:20:44Z</time>
      </trkpt>
      <trkpt lat="47.65246" lon="6.19452">
        <ele>254</ele>
        <time>2021-02-18T14:20:46Z</time>
      </trkpt>
      <trkpt lat="47.65251" lon="6.19459">
        <ele>253.99</ele>
        <time>2021-02-18T14:20:48Z</time>
      </trkpt>
      <trkpt lat="47.65255" lon="6.19465">
        <ele>254</ele>
        <time>2021-02-18T14:20:50Z</time>
      </trkpt>
      <trkpt lat="47.6526" lon="6.19475">
        <ele>254</ele>
        <time>2021-02-18T14:20:52Z</time>
      </trkpt>
      <trkpt lat="47.65263" lon="6.19483">
        <ele>266.91</ele>
        <time>2021-02-18T14:20:54Z</time>
      </trkpt>
      <trkpt lat="47.65259" lon="6.19493">
        <ele>271.96</ele>
        <time>2021-02-18T14:20:57Z</time>
      </trkpt>
      <trkpt lat="47.65267" lon="6.19502">
        <ele>272.44</ele>
        <time>2021-02-18T14:20:59Z</time>
      </trkpt>
      <trkpt lat="47.65272" lon="6.1951">
        <ele>272.47</ele>
        <time>2021-02-18T14:21:01Z</time>
      </trkpt>
      <trkpt lat="47.65277" lon="6.19521">
        <ele>272.45</ele>
        <time>2021-02-18T14:21:03Z</time>
      </trkpt>
      <trkpt lat="47.65279" lon="6.19529">
        <ele>272.46</ele>
        <time>2021-02-18T14:21:04Z</time>
      </trkpt>
      <trkpt lat="47.65282" lon="6.19537">
        <ele>272.5</ele>
        <time>2021-02-18T14:21:05Z</time>
      </trkpt>
      <trkpt lat="47.65284" lon="6.19545">
        <ele>272.5</ele>
        <time>2021-02-18T14:21:07Z</time>
      </trkpt>
      <trkpt lat="47.65287" lon="6.1955">
        <ele>272.51</ele>
        <time>2021-02-18T14:21:08Z</time>
      </trkpt>
      <trkpt lat="47.6529" lon="6.19557">
        <ele>272.58</ele>
        <time>2021-02-18T14:21:10Z</time>
      </trkpt>
      <trkpt lat="47.65298" lon="6.19576">
        <ele>272.61</ele>
        <time>2021-02-18T14:21:11Z</time>
      </trkpt>
      <trkpt lat="47.65301" lon="6.19583">
        <ele>272.6</ele>
        <time>2021-02-18T14:21:13Z</time>
      </trkpt>
      <trkpt lat="47.65312" lon="6.1961">
        <ele>272.64</ele>
        <time>2021-02-18T14:21:14Z</time>
      </trkpt>
      <trkpt lat="47.65315" lon="6.19618">
        <ele>272.63</ele>
        <time>2021-02-18T14:21:15Z</time>
      </trkpt>
      <trkpt lat="47.65319" lon="6.19626">
        <ele>272.6</ele>
        <time>2021-02-18T14:21:16Z</time>
      </trkpt>
      <trkpt lat="47.65321" lon="6.19634">
        <ele>272.6</ele>
        <time>2021-02-18T14:21:17Z</time>
      </trkpt>
      <trkpt lat="47.65323" lon="6.19641">
        <ele>272.62</ele>
        <time>2021-02-18T14:21:18Z</time>
      </trkpt>
      <trkpt lat="47.65326" lon="6.19648">
        <ele>272.63</ele>
        <time>2021-02-18T14:21:19Z</time>
      </trkpt>
      <trkpt lat="47.65329" lon="6.19653">
        <ele>272.62</ele>
        <time>2021-02-18T14:21:20Z</time>
      </trkpt>
      <trkpt lat="47.65332" lon="6.19659">
        <ele>272.65</ele>
        <time>2021-02-18T14:21:21Z</time>
      </trkpt>
      <trkpt lat="47.65334" lon="6.19664">
        <ele>272.67</ele>
        <time>2021-02-18T14:21:22Z</time>
      </trkpt>
      <trkpt lat="47.65336" lon="6.1967">
        <ele>272.72</ele>
        <time>2021-02-18T14:21:22Z</time>
      </trkpt>
      <trkpt lat="47.65342" lon="6.19677">
        <ele>272.72</ele>
        <time>2021-02-18T14:21:25Z</time>
      </trkpt>
      <trkpt lat="47.65344" lon="6.19684">
        <ele>272.75</ele>
        <time>2021-02-18T14:21:26Z</time>
      </trkpt>
      <trkpt lat="47.65347" lon="6.19696">
        <ele>272.76</ele>
        <time>2021-02-18T14:21:28Z</time>
      </trkpt>
      <trkpt lat="47.6535" lon="6.19705">
        <ele>272.79</ele>
        <time>2021-02-18T14:21:32Z</time>
      </trkpt>
      <trkpt lat="47.65356" lon="6.19721">
        <ele>272.78</ele>
        <time>2021-02-18T14:21:33Z</time>
      </trkpt>
      <trkpt lat="47.65358" lon="6.19728">
        <ele>272.74</ele>
        <time>2021-02-18T14:21:37Z</time>
      </trkpt>
      <trkpt lat="47.65363" lon="6.19741">
        <ele>272.79</ele>
        <time>2021-02-18T14:21:40Z</time>
      </trkpt>
      <trkpt lat="47.65365" lon="6.19747">
        <ele>272.76</ele>
        <time>2021-02-18T14:21:41Z</time>
      </trkpt>
      <trkpt lat="47.65368" lon="6.19754">
        <ele>272.75</ele>
        <time>2021-02-18T14:21:43Z</time>
      </trkpt>
      <trkpt lat="47.65371" lon="6.19761">
        <ele>272.73</ele>
        <time>2021-02-18T14:21:44Z</time>
      </trkpt>
      <trkpt lat="47.65375" lon="6.19768">
        <ele>272.66</ele>
        <time>2021-02-18T14:21:44Z</time>
      </trkpt>
      <trkpt lat="47.65379" lon="6.19774">
        <ele>272.67</ele>
        <time>2021-02-18T14:21:48Z</time>
      </trkpt>
      <trkpt lat="47.65382" lon="6.19781">
        <ele>272.64</ele>
        <time>2021-02-18T14:21:50Z</time>
      </trkpt>
      <trkpt lat="47.65386" lon="6.19788">
        <ele>272.56</ele>
        <time>2021-02-18T14:21:52Z</time>
      </trkpt>
      <trkpt lat="47.65389" lon="6.19794">
        <ele>272.52</ele>
        <time>2021-02-18T14:21:54Z</time>
      </trkpt>
      <trkpt lat="47.65393" lon="6.19803">
        <ele>272.52</ele>
        <time>2021-02-18T14:21:56Z</time>
      </trkpt>
      <trkpt lat="47.65395" lon="6.19811">
        <ele>272.55</ele>
        <time>2021-02-18T14:21:56Z</time>
      </trkpt>
      <trkpt lat="47.65398" lon="6.19817">
        <ele>272.58</ele>
        <time>2021-02-18T14:22:01Z</time>
      </trkpt>
      <trkpt lat="47.65403" lon="6.19825">
        <ele>272.5</ele>
        <time>2021-02-18T14:22:04Z</time>
      </trkpt>
      <trkpt lat="47.65407" lon="6.19832">
        <ele>272.61</ele>
        <time>2021-02-18T14:22:06Z</time>
      </trkpt>
      <trkpt lat="47.65411" lon="6.19838">
        <ele>272.54</ele>
        <time>2021-02-18T14:22:08Z</time>
      </trkpt>
      <trkpt lat="47.65414" lon="6.19845">
        <ele>272.56</ele>
        <time>2021-02-18T14:22:11Z</time>
      </trkpt>
      <trkpt lat="47.65418" lon="6.1985">
        <ele>272.52</ele>
        <time>2021-02-18T14:22:14Z</time>
      </trkpt>
      <trkpt lat="47.65422" lon="6.19856">
        <ele>272.51</ele>
        <time>2021-02-18T14:22:16Z</time>
      </trkpt>
      <trkpt lat="47.65426" lon="6.19862">
        <ele>272.54</ele>
        <time>2021-02-18T14:22:18Z</time>
      </trkpt>
      <trkpt lat="47.6543" lon="6.19869">
        <ele>272.51</ele>
        <time>2021-02-18T14:22:19Z</time>
      </trkpt>
      <trkpt lat="47.65433" lon="6.19875">
        <ele>272.5</ele>
        <time>2021-02-18T14:22:21Z</time>
      </trkpt>
      <trkpt lat="47.65435" lon="6.19882">
        <ele>272.49</ele>
        <time>2021-02-18T14:22:26Z</time>
      </trkpt>
      <trkpt lat="47.65438" lon="6.1989">
        <ele>272.55</ele>
        <time>2021-02-18T14:22:29Z</time>
      </trkpt>
      <trkpt lat="47.6544" lon="6.19897">
        <ele>272.58</ele>
        <time>2021-02-18T14:22:31Z</time>
      </trkpt>
      <trkpt lat="47.65443" lon="6.19904">
        <ele>272.54</ele>
        <time>2021-02-18T14:22:33Z</time>
      </trkpt>
      <trkpt lat="47.65446" lon="6.1991">
        <ele>272.55</ele>
        <time>2021-02-18T14:22:35Z</time>
      </trkpt>
      <trkpt lat="47.65449" lon="6.19918">
        <ele>272.52</ele>
        <time>2021-02-18T14:22:37Z</time>
      </trkpt>
      <trkpt lat="47.65452" lon="6.19925">
        <ele>272.53</ele>
        <time>2021-02-18T14:22:39Z</time>
      </trkpt>
      <trkpt lat="47.65454" lon="6.19932">
        <ele>272.52</ele>
        <time>2021-02-18T14:22:41Z</time>
      </trkpt>
      <trkpt lat="47.65458" lon="6.19936">
        <ele>272.47</ele>
        <time>2021-02-18T14:22:43Z</time>
      </trkpt>
      <trkpt lat="47.65462" lon="6.1994">
        <ele>273.55</ele>
        <time>2021-02-18T14:22:49Z</time>
      </trkpt>
      <trkpt lat="47.65465" lon="6.19945">
        <ele>273.5</ele>
        <time>2021-02-18T14:23:01Z</time>
      </trkpt>
      <trkpt lat="47.65467" lon="6.19954">
        <ele>273.46</ele>
        <time>2021-02-18T14:23:03Z</time>
      </trkpt>
      <trkpt lat="47.65468" lon="6.19961">
        <ele>273.62</ele>
        <time>2021-02-18T14:23:09Z</time>
      </trkpt>
      <trkpt lat="47.65471" lon="6.19967">
        <ele>273.56</ele>
        <time>2021-02-18T14:23:13Z</time>
      </trkpt>
      <trkpt lat="47.65475" lon="6.19973">
        <ele>273.55</ele>
        <time>2021-02-18T14:23:16Z</time>
      </trkpt>
      <trkpt lat="47.65477" lon="6.1998">
        <ele>273.58</ele>
        <time>2021-02-18T14:23:23Z</time>
      </trkpt>
      <trkpt lat="47.65479" lon="6.19986">
        <ele>273.66</ele>
        <time>2021-02-18T14:23:26Z</time>
      </trkpt>
      <trkpt lat="47.65482" lon="6.19992">
        <ele>273.8</ele>
        <time>2021-02-18T14:23:34Z</time>
      </trkpt>
      <trkpt lat="47.65486" lon="6.19996">
        <ele>273.86</ele>
        <time>2021-02-18T14:23:37Z</time>
      </trkpt>
      <trkpt lat="47.65491" lon="6.2">
        <ele>273.98</ele>
        <time>2021-02-18T14:23:44Z</time>
      </trkpt>
      <trkpt lat="47.65496" lon="6.20003">
        <ele>274.06</ele>
        <time>2021-02-18T14:23:47Z</time>
      </trkpt>
      <trkpt lat="47.655" lon="6.20008">
        <ele>274.15</ele>
        <time>2021-02-18T14:23:56Z</time>
      </trkpt>
      <trkpt lat="47.65503" lon="6.20015">
        <ele>274.13</ele>
        <time>2021-02-18T14:24:01Z</time>
      </trkpt>
      <trkpt lat="47.65505" lon="6.20021">
        <ele>274.12</ele>
        <time>2021-02-18T14:24:06Z</time>
      </trkpt>
      <trkpt lat="47.65509" lon="6.20026">
        <ele>274.32</ele>
        <time>2021-02-18T14:24:10Z</time>
      </trkpt>
      <trkpt lat="47.65512" lon="6.20031">
        <ele>274.3</ele>
        <time>2021-02-18T14:24:17Z</time>
      </trkpt>
      <trkpt lat="47.65516" lon="6.20035">
        <ele>274.31</ele>
        <time>2021-02-18T14:24:21Z</time>
      </trkpt>
      <trkpt lat="47.65519" lon="6.20041">
        <ele>274.31</ele>
        <time>2021-02-18T14:24:27Z</time>
      </trkpt>
      <trkpt lat="47.65522" lon="6.20046">
        <ele>274.33</ele>
        <time>2021-02-18T14:24:32Z</time>
      </trkpt>
      <trkpt lat="47.65525" lon="6.20054">
        <ele>274.38</ele>
        <time>2021-02-18T14:24:37Z</time>
      </trkpt>
      <trkpt lat="47.65529" lon="6.20058">
        <ele>274.46</ele>
        <time>2021-02-18T14:24:43Z</time>
      </trkpt>
      <trkpt lat="47.65533" lon="6.20062">
        <ele>274.41</ele>
        <time>2021-02-18T14:24:47Z</time>
      </trkpt>
      <trkpt lat="47.65537" lon="6.20067">
        <ele>274.31</ele>
        <time>2021-02-18T14:24:53Z</time>
      </trkpt>
      <trkpt lat="47.65541" lon="6.2007">
        <ele>274.32</ele>
        <time>2021-02-18T14:24:59Z</time>
      </trkpt>
      <trkpt lat="47.65545" lon="6.20075">
        <ele>274.36</ele>
        <time>2021-02-18T14:25:03Z</time>
      </trkpt>
      <trkpt lat="47.65549" lon="6.20078">
        <ele>274.52</ele>
        <time>2021-02-18T14:25:11Z</time>
      </trkpt>
      <trkpt lat="47.65554" lon="6.20083">
        <ele>274.55</ele>
        <time>2021-02-18T14:25:17Z</time>
      </trkpt>
      <trkpt lat="47.65558" lon="6.20087">
        <ele>274.55</ele>
        <time>2021-02-18T14:25:21Z</time>
      </trkpt>
      <trkpt lat="47.65561" lon="6.20091">
        <ele>274.62</ele>
        <time>2021-02-18T14:25:24Z</time>
      </trkpt>
      <trkpt lat="47.65565" lon="6.20096">
        <ele>274.66</ele>
        <time>2021-02-18T14:25:34Z</time>
      </trkpt>
      <trkpt lat="47.65569" lon="6.201">
        <ele>274.65</ele>
        <time>2021-02-18T14:25:36Z</time>
      </trkpt>
      <trkpt lat="47.65572" lon="6.20104">
        <ele>274.68</ele>
        <time>2021-02-18T14:25:41Z</time>
      </trkpt>
      <trkpt lat="47.65578" lon="6.20108">
        <ele>274.83</ele>
        <time>2021-02-18T14:25:46Z</time>
      </trkpt>
      <trkpt lat="47.65582" lon="6.20113">
        <ele>274.98</ele>
        <time>2021-02-18T14:25:53Z</time>
      </trkpt>
      <trkpt lat="47.65586" lon="6.20115">
        <ele>274.99</ele>
        <time>2021-02-18T14:26:01Z</time>
      </trkpt>
      <trkpt lat="47.65591" lon="6.20119">
        <ele>275.19</ele>
        <time>2021-02-18T14:26:07Z</time>
      </trkpt>
      <trkpt lat="47.65596" lon="6.20122">
        <ele>275.28</ele>
        <time>2021-02-18T14:26:13Z</time>
      </trkpt>
      <trkpt lat="47.656" lon="6.20126">
        <ele>275.19</ele>
        <time>2021-02-18T14:26:20Z</time>
      </trkpt>
      <trkpt lat="47.65604" lon="6.2013">
        <ele>275.21</ele>
        <time>2021-02-18T14:26:25Z</time>
      </trkpt>
      <trkpt lat="47.65609" lon="6.20134">
        <ele>275.4</ele>
        <time>2021-02-18T14:26:39Z</time>
      </trkpt>
      <trkpt lat="47.65613" lon="6.20139">
        <ele>275.32</ele>
        <time>2021-02-18T14:26:44Z</time>
      </trkpt>
      <trkpt lat="47.65617" lon="6.20145">
        <ele>275.34</ele>
        <time>2021-02-18T14:26:46Z</time>
      </trkpt>
      <trkpt lat="47.6562" lon="6.2015">
        <ele>275.4</ele>
        <time>2021-02-18T14:26:53Z</time>
      </trkpt>
      <trkpt lat="47.65624" lon="6.20155">
        <ele>275.53</ele>
        <time>2021-02-18T14:26:56Z</time>
      </trkpt>
      <trkpt lat="47.65628" lon="6.2016">
        <ele>275.59</ele>
        <time>2021-02-18T14:27:02Z</time>
      </trkpt>
      <trkpt lat="47.65632" lon="6.20164">
        <ele>275.73</ele>
        <time>2021-02-18T14:27:12Z</time>
      </trkpt>
      <trkpt lat="47.65635" lon="6.20169">
        <ele>275.86</ele>
        <time>2021-02-18T14:27:17Z</time>
      </trkpt>
      <trkpt lat="47.65635" lon="6.20162">
        <ele>276.38</ele>
        <time>2021-02-18T14:29:28Z</time>
      </trkpt>
      <trkpt lat="47.65636" lon="6.20152">
        <ele>276.41</ele>
        <time>2021-02-18T14:29:29Z</time>
      </trkpt>
      <trkpt lat="47.65638" lon="6.20145">
        <ele>276.44</ele>
        <time>2021-02-18T14:29:34Z</time>
      </trkpt>
      <trkpt lat="47.65641" lon="6.20137">
        <ele>276.48</ele>
        <time>2021-02-18T14:29:37Z</time>
      </trkpt>
      <trkpt lat="47.65644" lon="6.20132">
        <ele>276.47</ele>
        <time>2021-02-18T14:29:39Z</time>
      </trkpt>
      <trkpt lat="47.65647" lon="6.20125">
        <ele>276.48</ele>
        <time>2021-02-18T14:29:39Z</time>
      </trkpt>
      <trkpt lat="47.65651" lon="6.2012">
        <ele>276.45</ele>
        <time>2021-02-18T14:29:45Z</time>
      </trkpt>
      <trkpt lat="47.65655" lon="6.20116">
        <ele>276.44</ele>
        <time>2021-02-18T14:29:48Z</time>
      </trkpt>
      <trkpt lat="47.6566" lon="6.2011">
        <ele>276.38</ele>
        <time>2021-02-18T14:29:51Z</time>
      </trkpt>
      <trkpt lat="47.65664" lon="6.20104">
        <ele>277.33</ele>
        <time>2021-02-18T14:29:57Z</time>
      </trkpt>
      <trkpt lat="47.65667" lon="6.20097">
        <ele>277.91</ele>
        <time>2021-02-18T14:30:00Z</time>
      </trkpt>
      <trkpt lat="47.6567" lon="6.20089">
        <ele>278.53</ele>
        <time>2021-02-18T14:30:05Z</time>
      </trkpt>
      <trkpt lat="47.65673" lon="6.20084">
        <ele>278.96</ele>
        <time>2021-02-18T14:30:13Z</time>
      </trkpt>
      <trkpt lat="47.65678" lon="6.20079">
        <ele>279.26</ele>
        <time>2021-02-18T14:30:17Z</time>
      </trkpt>
      <trkpt lat="47.65682" lon="6.20074">
        <ele>279.85</ele>
        <time>2021-02-18T14:30:22Z</time>
      </trkpt>
      <trkpt lat="47.65687" lon="6.20068">
        <ele>280.16</ele>
        <time>2021-02-18T14:30:27Z</time>
      </trkpt>
      <trkpt lat="47.6569" lon="6.20062">
        <ele>280.81</ele>
        <time>2021-02-18T14:30:33Z</time>
      </trkpt>
      <trkpt lat="47.65694" lon="6.20055">
        <ele>281.45</ele>
        <time>2021-02-18T14:30:35Z</time>
      </trkpt>
      <trkpt lat="47.65697" lon="6.20051">
        <ele>282.17</ele>
        <time>2021-02-18T14:30:40Z</time>
      </trkpt>
      <trkpt lat="47.65702" lon="6.20045">
        <ele>282.52</ele>
        <time>2021-02-18T14:30:47Z</time>
      </trkpt>
      <trkpt lat="47.65706" lon="6.2004">
        <ele>282.97</ele>
        <time>2021-02-18T14:30:50Z</time>
      </trkpt>
      <trkpt lat="47.65709" lon="6.20036">
        <ele>283.58</ele>
        <time>2021-02-18T14:30:54Z</time>
      </trkpt>
      <trkpt lat="47.65713" lon="6.20031">
        <ele>284.3</ele>
        <time>2021-02-18T14:31:01Z</time>
      </trkpt>
      <trkpt lat="47.65717" lon="6.20025">
        <ele>284.8</ele>
        <time>2021-02-18T14:31:04Z</time>
      </trkpt>
      <trkpt lat="47.6572" lon="6.2002">
        <ele>285.14</ele>
        <time>2021-02-18T14:31:11Z</time>
      </trkpt>
      <trkpt lat="47.65723" lon="6.20014">
        <ele>285.57</ele>
        <time>2021-02-18T14:31:15Z</time>
      </trkpt>
      <trkpt lat="47.65726" lon="6.20009">
        <ele>285.82</ele>
        <time>2021-02-18T14:31:20Z</time>
      </trkpt>
      <trkpt lat="47.65729" lon="6.20003">
        <ele>286.31</ele>
        <time>2021-02-18T14:31:22Z</time>
      </trkpt>
      <trkpt lat="47.65732" lon="6.19997">
        <ele>286.66</ele>
        <time>2021-02-18T14:31:26Z</time>
      </trkpt>
      <trkpt lat="47.65735" lon="6.19992">
        <ele>287.39</ele>
        <time>2021-02-18T14:31:34Z</time>
      </trkpt>
      <trkpt lat="47.65739" lon="6.19984">
        <ele>288.44</ele>
        <time>2021-02-18T14:31:36Z</time>
      </trkpt>
      <trkpt lat="47.65742" lon="6.19978">
        <ele>288.98</ele>
        <time>2021-02-18T14:31:44Z</time>
      </trkpt>
      <trkpt lat="47.65745" lon="6.19972">
        <ele>289.55</ele>
        <time>2021-02-18T14:31:48Z</time>
      </trkpt>
      <trkpt lat="47.65748" lon="6.19965">
        <ele>290.07</ele>
        <time>2021-02-18T14:31:55Z</time>
      </trkpt>
      <trkpt lat="47.6575" lon="6.19957">
        <ele>290.7</ele>
        <time>2021-02-18T14:31:58Z</time>
      </trkpt>
      <trkpt lat="47.65753" lon="6.19951">
        <ele>292.03</ele>
        <time>2021-02-18T14:32:02Z</time>
      </trkpt>
      <trkpt lat="47.65754" lon="6.19944">
        <ele>292.24</ele>
        <time>2021-02-18T14:32:06Z</time>
      </trkpt>
      <trkpt lat="47.6575" lon="6.19942">
        <ele>295.74</ele>
        <time>2021-02-18T14:34:12Z</time>
      </trkpt>
      <trkpt lat="47.65751" lon="6.19935">
        <ele>295.88</ele>
        <time>2021-02-18T14:34:17Z</time>
      </trkpt>
      <trkpt lat="47.65754" lon="6.19928">
        <ele>296.01</ele>
        <time>2021-02-18T14:34:20Z</time>
      </trkpt>
      <trkpt lat="47.65759" lon="6.19927">
        <ele>296.74</ele>
        <time>2021-02-18T14:34:42Z</time>
      </trkpt>
      <trkpt lat="47.65763" lon="6.19923">
        <ele>297.01</ele>
        <time>2021-02-18T14:34:43Z</time>
      </trkpt>
      <trkpt lat="47.65767" lon="6.19917">
        <ele>297.05</ele>
        <time>2021-02-18T14:34:48Z</time>
      </trkpt>
      <trkpt lat="47.65771" lon="6.19913">
        <ele>296.96</ele>
        <time>2021-02-18T14:34:51Z</time>
      </trkpt>
      <trkpt lat="47.65776" lon="6.19909">
        <ele>297</ele>
        <time>2021-02-18T14:34:53Z</time>
      </trkpt>
      <trkpt lat="47.6578" lon="6.19904">
        <ele>296.96</ele>
        <time>2021-02-18T14:34:57Z</time>
      </trkpt>
      <trkpt lat="47.65783" lon="6.19898">
        <ele>296.94</ele>
        <time>2021-02-18T14:35:02Z</time>
      </trkpt>
      <trkpt lat="47.65786" lon="6.19891">
        <ele>296.88</ele>
        <time>2021-02-18T14:35:06Z</time>
      </trkpt>
      <trkpt lat="47.65788" lon="6.19885">
        <ele>296.84</ele>
        <time>2021-02-18T14:35:09Z</time>
      </trkpt>
      <trkpt lat="47.65792" lon="6.1988">
        <ele>299.1</ele>
        <time>2021-02-18T14:35:13Z</time>
      </trkpt>
      <trkpt lat="47.65795" lon="6.19875">
        <ele>299.46</ele>
        <time>2021-02-18T14:35:17Z</time>
      </trkpt>
      <trkpt lat="47.658" lon="6.1987">
        <ele>299.72</ele>
        <time>2021-02-18T14:35:21Z</time>
      </trkpt>
      <trkpt lat="47.65805" lon="6.19866">
        <ele>300.25</ele>
        <time>2021-02-18T14:35:27Z</time>
      </trkpt>
      <trkpt lat="47.65809" lon="6.19864">
        <ele>300.46</ele>
        <time>2021-02-18T14:35:31Z</time>
      </trkpt>
      <trkpt lat="47.65814" lon="6.19861">
        <ele>300.64</ele>
        <time>2021-02-18T14:35:35Z</time>
      </trkpt>
      <trkpt lat="47.65818" lon="6.19857">
        <ele>301.55</ele>
        <time>2021-02-18T14:35:39Z</time>
      </trkpt>
      <trkpt lat="47.65821" lon="6.1985">
        <ele>301.99</ele>
        <time>2021-02-18T14:35:43Z</time>
      </trkpt>
      <trkpt lat="47.65825" lon="6.19844">
        <ele>302.46</ele>
        <time>2021-02-18T14:35:48Z</time>
      </trkpt>
      <trkpt lat="47.65829" lon="6.19835">
        <ele>302.84</ele>
        <time>2021-02-18T14:35:52Z</time>
      </trkpt>
      <trkpt lat="47.65832" lon="6.1983">
        <ele>303.57</ele>
        <time>2021-02-18T14:35:58Z</time>
      </trkpt>
      <trkpt lat="47.65834" lon="6.19823">
        <ele>303.84</ele>
        <time>2021-02-18T14:36:01Z</time>
      </trkpt>
      <trkpt lat="47.65836" lon="6.19816">
        <ele>303.98</ele>
        <time>2021-02-18T14:36:05Z</time>
      </trkpt>
      <trkpt lat="47.6584" lon="6.1981">
        <ele>304.39</ele>
        <time>2021-02-18T14:36:08Z</time>
      </trkpt>
      <trkpt lat="47.65843" lon="6.19802">
        <ele>305.05</ele>
        <time>2021-02-18T14:36:14Z</time>
      </trkpt>
      <trkpt lat="47.65847" lon="6.19796">
        <ele>305.68</ele>
        <time>2021-02-18T14:36:19Z</time>
      </trkpt>
      <trkpt lat="47.6585" lon="6.19791">
        <ele>305.9</ele>
        <time>2021-02-18T14:36:23Z</time>
      </trkpt>
      <trkpt lat="47.65853" lon="6.19786">
        <ele>305.83</ele>
        <time>2021-02-18T14:36:27Z</time>
      </trkpt>
      <trkpt lat="47.65856" lon="6.19781">
        <ele>306.37</ele>
        <time>2021-02-18T14:36:31Z</time>
      </trkpt>
      <trkpt lat="47.65859" lon="6.19774">
        <ele>306.83</ele>
        <time>2021-02-18T14:36:36Z</time>
      </trkpt>
      <trkpt lat="47.65863" lon="6.19767">
        <ele>307.3</ele>
        <time>2021-02-18T14:36:39Z</time>
      </trkpt>
      <trkpt lat="47.65866" lon="6.19762">
        <ele>307.77</ele>
        <time>2021-02-18T14:36:44Z</time>
      </trkpt>
      <trkpt lat="47.6587" lon="6.19757">
        <ele>308.13</ele>
        <time>2021-02-18T14:36:47Z</time>
      </trkpt>
      <trkpt lat="47.65874" lon="6.19753">
        <ele>308.35</ele>
        <time>2021-02-18T14:36:52Z</time>
      </trkpt>
      <trkpt lat="47.65878" lon="6.19748">
        <ele>308.59</ele>
        <time>2021-02-18T14:36:56Z</time>
      </trkpt>
      <trkpt lat="47.65882" lon="6.19744">
        <ele>309.11</ele>
        <time>2021-02-18T14:37:00Z</time>
      </trkpt>
      <trkpt lat="47.65886" lon="6.19742">
        <ele>309.58</ele>
        <time>2021-02-18T14:37:03Z</time>
      </trkpt>
      <trkpt lat="47.65891" lon="6.19738">
        <ele>309.85</ele>
        <time>2021-02-18T14:37:09Z</time>
      </trkpt>
      <trkpt lat="47.65896" lon="6.19736">
        <ele>310.09</ele>
        <time>2021-02-18T14:37:13Z</time>
      </trkpt>
      <trkpt lat="47.65901" lon="6.19733">
        <ele>310.23</ele>
        <time>2021-02-18T14:37:17Z</time>
      </trkpt>
      <trkpt lat="47.65905" lon="6.1973">
        <ele>310.53</ele>
        <time>2021-02-18T14:37:20Z</time>
      </trkpt>
      <trkpt lat="47.65911" lon="6.19728">
        <ele>311.5</ele>
        <time>2021-02-18T14:37:24Z</time>
      </trkpt>
      <trkpt lat="47.65915" lon="6.19726">
        <ele>311.76</ele>
        <time>2021-02-18T14:37:26Z</time>
      </trkpt>
      <trkpt lat="47.65919" lon="6.19723">
        <ele>312.12</ele>
        <time>2021-02-18T14:37:31Z</time>
      </trkpt>
      <trkpt lat="47.65924" lon="6.19722">
        <ele>312.61</ele>
        <time>2021-02-18T14:37:36Z</time>
      </trkpt>
      <trkpt lat="47.65929" lon="6.1972">
        <ele>313.08</ele>
        <time>2021-02-18T14:37:40Z</time>
      </trkpt>
      <trkpt lat="47.65933" lon="6.19716">
        <ele>313.99</ele>
        <time>2021-02-18T14:37:46Z</time>
      </trkpt>
      <trkpt lat="47.65938" lon="6.19713">
        <ele>314.37</ele>
        <time>2021-02-18T14:37:50Z</time>
      </trkpt>
      <trkpt lat="47.65943" lon="6.19713">
        <ele>315.35</ele>
        <time>2021-02-18T14:37:55Z</time>
      </trkpt>
      <trkpt lat="47.65947" lon="6.1971">
        <ele>315.91</ele>
        <time>2021-02-18T14:37:57Z</time>
      </trkpt>
      <trkpt lat="47.65952" lon="6.19705">
        <ele>316.2</ele>
        <time>2021-02-18T14:38:02Z</time>
      </trkpt>
      <trkpt lat="47.65955" lon="6.197">
        <ele>316.51</ele>
        <time>2021-02-18T14:38:05Z</time>
      </trkpt>
      <trkpt lat="47.65958" lon="6.19693">
        <ele>316.97</ele>
        <time>2021-02-18T14:38:07Z</time>
      </trkpt>
      <trkpt lat="47.6596" lon="6.19687">
        <ele>317.2</ele>
        <time>2021-02-18T14:38:10Z</time>
      </trkpt>
      <trkpt lat="47.65961" lon="6.19679">
        <ele>317.75</ele>
        <time>2021-02-18T14:38:14Z</time>
      </trkpt>
      <trkpt lat="47.65962" lon="6.19672">
        <ele>317.91</ele>
        <time>2021-02-18T14:38:19Z</time>
      </trkpt>
      <trkpt lat="47.65962" lon="6.19664">
        <ele>318.03</ele>
        <time>2021-02-18T14:38:21Z</time>
      </trkpt>
      <trkpt lat="47.65963" lon="6.19658">
        <ele>318.55</ele>
        <time>2021-02-18T14:38:26Z</time>
      </trkpt>
      <trkpt lat="47.65964" lon="6.1965">
        <ele>318.68</ele>
        <time>2021-02-18T14:38:28Z</time>
      </trkpt>
      <trkpt lat="47.65966" lon="6.19644">
        <ele>318.69</ele>
        <time>2021-02-18T14:38:31Z</time>
      </trkpt>
      <trkpt lat="47.6597" lon="6.19638">
        <ele>318.68</ele>
        <time>2021-02-18T14:38:35Z</time>
      </trkpt>
      <trkpt lat="47.65975" lon="6.19636">
        <ele>318.72</ele>
        <time>2021-02-18T14:38:40Z</time>
      </trkpt>
      <trkpt lat="47.65981" lon="6.19635">
        <ele>318.71</ele>
        <time>2021-02-18T14:38:43Z</time>
      </trkpt>
      <trkpt lat="47.65986" lon="6.19633">
        <ele>318.76</ele>
        <time>2021-02-18T14:38:47Z</time>
      </trkpt>
      <trkpt lat="47.65991" lon="6.1963">
        <ele>320.6</ele>
        <time>2021-02-18T14:38:53Z</time>
      </trkpt>
      <trkpt lat="47.65995" lon="6.19633">
        <ele>320.93</ele>
        <time>2021-02-18T14:38:56Z</time>
      </trkpt>
      <trkpt lat="47.66" lon="6.19636">
        <ele>321.6</ele>
        <time>2021-02-18T14:39:01Z</time>
      </trkpt>
      <trkpt lat="47.66004" lon="6.19638">
        <ele>321.92</ele>
        <time>2021-02-18T14:39:04Z</time>
      </trkpt>
      <trkpt lat="47.66009" lon="6.19638">
        <ele>322.11</ele>
        <time>2021-02-18T14:39:07Z</time>
      </trkpt>
      <trkpt lat="47.66014" lon="6.19637">
        <ele>322.89</ele>
        <time>2021-02-18T14:39:13Z</time>
      </trkpt>
      <trkpt lat="47.66019" lon="6.19635">
        <ele>323.4</ele>
        <time>2021-02-18T14:39:18Z</time>
      </trkpt>
      <trkpt lat="47.66024" lon="6.19634">
        <ele>324.55</ele>
        <time>2021-02-18T14:39:24Z</time>
      </trkpt>
      <trkpt lat="47.6603" lon="6.19633">
        <ele>325.24</ele>
        <time>2021-02-18T14:39:30Z</time>
      </trkpt>
      <trkpt lat="47.66035" lon="6.19631">
        <ele>326.16</ele>
        <time>2021-02-18T14:39:34Z</time>
      </trkpt>
      <trkpt lat="47.6604" lon="6.19628">
        <ele>326.86</ele>
        <time>2021-02-18T14:39:38Z</time>
      </trkpt>
      <trkpt lat="47.66045" lon="6.19625">
        <ele>326.96</ele>
        <time>2021-02-18T14:39:43Z</time>
      </trkpt>
      <trkpt lat="47.66049" lon="6.19621">
        <ele>327.55</ele>
        <time>2021-02-18T14:39:47Z</time>
      </trkpt>
      <trkpt lat="47.66054" lon="6.19617">
        <ele>327.91</ele>
        <time>2021-02-18T14:39:51Z</time>
      </trkpt>
      <trkpt lat="47.66059" lon="6.19615">
        <ele>328.68</ele>
        <time>2021-02-18T14:39:57Z</time>
      </trkpt>
      <trkpt lat="47.66065" lon="6.19611">
        <ele>329.29</ele>
        <time>2021-02-18T14:40:03Z</time>
      </trkpt>
      <trkpt lat="47.6607" lon="6.19607">
        <ele>330.03</ele>
        <time>2021-02-18T14:40:08Z</time>
      </trkpt>
      <trkpt lat="47.66075" lon="6.19604">
        <ele>330.44</ele>
        <time>2021-02-18T14:40:12Z</time>
      </trkpt>
      <trkpt lat="47.6608" lon="6.19604">
        <ele>330.8</ele>
        <time>2021-02-18T14:40:18Z</time>
      </trkpt>
      <trkpt lat="47.66085" lon="6.19603">
        <ele>331.45</ele>
        <time>2021-02-18T14:40:23Z</time>
      </trkpt>
      <trkpt lat="47.66089" lon="6.19602">
        <ele>331.97</ele>
        <time>2021-02-18T14:40:28Z</time>
      </trkpt>
      <trkpt lat="47.66094" lon="6.19599">
        <ele>332.26</ele>
        <time>2021-02-18T14:40:33Z</time>
      </trkpt>
      <trkpt lat="47.66099" lon="6.19595">
        <ele>333.01</ele>
        <time>2021-02-18T14:40:36Z</time>
      </trkpt>
      <trkpt lat="47.66102" lon="6.19591">
        <ele>333.41</ele>
        <time>2021-02-18T14:40:41Z</time>
      </trkpt>
      <trkpt lat="47.66106" lon="6.19585">
        <ele>333.52</ele>
        <time>2021-02-18T14:40:44Z</time>
      </trkpt>
      <trkpt lat="47.6611" lon="6.19577">
        <ele>333.86</ele>
        <time>2021-02-18T14:40:48Z</time>
      </trkpt>
      <trkpt lat="47.66113" lon="6.1957">
        <ele>334.4</ele>
        <time>2021-02-18T14:40:51Z</time>
      </trkpt>
      <trkpt lat="47.66115" lon="6.19564">
        <ele>334.54</ele>
        <time>2021-02-18T14:40:54Z</time>
      </trkpt>
      <trkpt lat="47.66117" lon="6.19557">
        <ele>334.56</ele>
        <time>2021-02-18T14:40:57Z</time>
      </trkpt>
      <trkpt lat="47.66119" lon="6.1955">
        <ele>334.54</ele>
        <time>2021-02-18T14:41:01Z</time>
      </trkpt>
      <trkpt lat="47.6612" lon="6.19542">
        <ele>334.54</ele>
        <time>2021-02-18T14:41:03Z</time>
      </trkpt>
      <trkpt lat="47.66122" lon="6.19536">
        <ele>334.54</ele>
        <time>2021-02-18T14:41:07Z</time>
      </trkpt>
      <trkpt lat="47.66124" lon="6.19527">
        <ele>334.53</ele>
        <time>2021-02-18T14:41:09Z</time>
      </trkpt>
      <trkpt lat="47.66126" lon="6.19521">
        <ele>334.5</ele>
        <time>2021-02-18T14:41:11Z</time>
      </trkpt>
      <trkpt lat="47.66129" lon="6.19515">
        <ele>334.46</ele>
        <time>2021-02-18T14:41:15Z</time>
      </trkpt>
      <trkpt lat="47.66133" lon="6.1951">
        <ele>334.58</ele>
        <time>2021-02-18T14:41:18Z</time>
      </trkpt>
      <trkpt lat="47.66137" lon="6.19506">
        <ele>334.7</ele>
        <time>2021-02-18T14:41:22Z</time>
      </trkpt>
      <trkpt lat="47.66142" lon="6.19503">
        <ele>334.78</ele>
        <time>2021-02-18T14:41:26Z</time>
      </trkpt>
      <trkpt lat="47.66148" lon="6.195">
        <ele>339.47</ele>
        <time>2021-02-18T14:41:31Z</time>
      </trkpt>
      <trkpt lat="47.66152" lon="6.19498">
        <ele>339.88</ele>
        <time>2021-02-18T14:41:32Z</time>
      </trkpt>
      <trkpt lat="47.66157" lon="6.19496">
        <ele>339.9</ele>
        <time>2021-02-18T14:41:37Z</time>
      </trkpt>
      <trkpt lat="47.66162" lon="6.19495">
        <ele>339.91</ele>
        <time>2021-02-18T14:41:40Z</time>
      </trkpt>
      <trkpt lat="47.66166" lon="6.19494">
        <ele>339.91</ele>
        <time>2021-02-18T14:41:43Z</time>
      </trkpt>
      <trkpt lat="47.66172" lon="6.19493">
        <ele>339.92</ele>
        <time>2021-02-18T14:41:45Z</time>
      </trkpt>
      <trkpt lat="47.66178" lon="6.19494">
        <ele>340.71</ele>
        <time>2021-02-18T14:41:49Z</time>
      </trkpt>
      <trkpt lat="47.66184" lon="6.19495">
        <ele>340.95</ele>
        <time>2021-02-18T14:41:51Z</time>
      </trkpt>
      <trkpt lat="47.6619" lon="6.19496">
        <ele>341.12</ele>
        <time>2021-02-18T14:41:54Z</time>
      </trkpt>
      <trkpt lat="47.66195" lon="6.19497">
        <ele>341.12</ele>
        <time>2021-02-18T14:41:58Z</time>
      </trkpt>
      <trkpt lat="47.66201" lon="6.19497">
        <ele>341.25</ele>
        <time>2021-02-18T14:42:00Z</time>
      </trkpt>
      <trkpt lat="47.66208" lon="6.19498">
        <ele>341.35</ele>
        <time>2021-02-18T14:42:02Z</time>
      </trkpt>
      <trkpt lat="47.66212" lon="6.19499">
        <ele>341.58</ele>
        <time>2021-02-18T14:42:06Z</time>
      </trkpt>
      <trkpt lat="47.66217" lon="6.19499">
        <ele>341.61</ele>
        <time>2021-02-18T14:42:08Z</time>
      </trkpt>
      <trkpt lat="47.66222" lon="6.195">
        <ele>341.85</ele>
        <time>2021-02-18T14:42:11Z</time>
      </trkpt>
      <trkpt lat="47.66227" lon="6.19502">
        <ele>341.86</ele>
        <time>2021-02-18T14:42:13Z</time>
      </trkpt>
      <trkpt lat="47.66231" lon="6.19503">
        <ele>341.85</ele>
        <time>2021-02-18T14:42:14Z</time>
      </trkpt>
      <trkpt lat="47.66236" lon="6.19504">
        <ele>341.84</ele>
        <time>2021-02-18T14:42:18Z</time>
      </trkpt>
      <trkpt lat="47.66242" lon="6.19506">
        <ele>341.86</ele>
        <time>2021-02-18T14:42:19Z</time>
      </trkpt>
      <trkpt lat="47.66247" lon="6.19507">
        <ele>341.85</ele>
        <time>2021-02-18T14:42:21Z</time>
      </trkpt>
      <trkpt lat="47.66254" lon="6.19508">
        <ele>341.85</ele>
        <time>2021-02-18T14:42:25Z</time>
      </trkpt>
      <trkpt lat="47.6626" lon="6.19509">
        <ele>341.85</ele>
        <time>2021-02-18T14:42:27Z</time>
      </trkpt>
      <trkpt lat="47.66267" lon="6.1951">
        <ele>341.87</ele>
        <time>2021-02-18T14:42:29Z</time>
      </trkpt>
      <trkpt lat="47.66273" lon="6.19511">
        <ele>341.83</ele>
        <time>2021-02-18T14:42:31Z</time>
      </trkpt>
      <trkpt lat="47.66279" lon="6.19513">
        <ele>341.84</ele>
        <time>2021-02-18T14:42:33Z</time>
      </trkpt>
      <trkpt lat="47.66284" lon="6.19514">
        <ele>341.8</ele>
        <time>2021-02-18T14:42:35Z</time>
      </trkpt>
      <trkpt lat="47.66289" lon="6.19514">
        <ele>341.82</ele>
        <time>2021-02-18T14:42:37Z</time>
      </trkpt>
      <trkpt lat="47.66294" lon="6.19514">
        <ele>341.8</ele>
        <time>2021-02-18T14:42:39Z</time>
      </trkpt>
      <trkpt lat="47.66299" lon="6.19515">
        <ele>341.81</ele>
        <time>2021-02-18T14:42:41Z</time>
      </trkpt>
      <trkpt lat="47.66305" lon="6.19517">
        <ele>341.83</ele>
        <time>2021-02-18T14:42:43Z</time>
      </trkpt>
      <trkpt lat="47.6631" lon="6.19519">
        <ele>341.72</ele>
        <time>2021-02-18T14:42:44Z</time>
      </trkpt>
      <trkpt lat="47.66316" lon="6.19519">
        <ele>341.75</ele>
        <time>2021-02-18T14:42:48Z</time>
      </trkpt>
      <trkpt lat="47.66321" lon="6.19521">
        <ele>341.77</ele>
        <time>2021-02-18T14:42:50Z</time>
      </trkpt>
      <trkpt lat="47.66326" lon="6.19522">
        <ele>341.79</ele>
        <time>2021-02-18T14:42:53Z</time>
      </trkpt>
      <trkpt lat="47.66336" lon="6.19525">
        <ele>341.89</ele>
        <time>2021-02-18T14:42:57Z</time>
      </trkpt>
      <trkpt lat="47.66341" lon="6.19526">
        <ele>341.99</ele>
        <time>2021-02-18T14:42:59Z</time>
      </trkpt>
      <trkpt lat="47.66346" lon="6.19526">
        <ele>342</ele>
        <time>2021-02-18T14:43:01Z</time>
      </trkpt>
      <trkpt lat="47.66352" lon="6.19527">
        <ele>342</ele>
        <time>2021-02-18T14:43:04Z</time>
      </trkpt>
      <trkpt lat="47.66363" lon="6.19528">
        <ele>341.96</ele>
        <time>2021-02-18T14:43:06Z</time>
      </trkpt>
      <trkpt lat="47.6637" lon="6.1953">
        <ele>341.96</ele>
        <time>2021-02-18T14:43:10Z</time>
      </trkpt>
      <trkpt lat="47.66376" lon="6.1953">
        <ele>342</ele>
        <time>2021-02-18T14:43:13Z</time>
      </trkpt>
      <trkpt lat="47.6638" lon="6.19531">
        <ele>342.11</ele>
        <time>2021-02-18T14:43:15Z</time>
      </trkpt>
      <trkpt lat="47.66385" lon="6.19532">
        <ele>342.07</ele>
        <time>2021-02-18T14:43:17Z</time>
      </trkpt>
      <trkpt lat="47.6639" lon="6.19533">
        <ele>342.07</ele>
        <time>2021-02-18T14:43:19Z</time>
      </trkpt>
      <trkpt lat="47.66396" lon="6.19534">
        <ele>342.03</ele>
        <time>2021-02-18T14:43:24Z</time>
      </trkpt>
      <trkpt lat="47.66401" lon="6.19536">
        <ele>342.03</ele>
        <time>2021-02-18T14:43:26Z</time>
      </trkpt>
      <trkpt lat="47.66405" lon="6.19538">
        <ele>342.02</ele>
        <time>2021-02-18T14:43:28Z</time>
      </trkpt>
      <trkpt lat="47.66411" lon="6.19539">
        <ele>342.03</ele>
        <time>2021-02-18T14:43:30Z</time>
      </trkpt>
      <trkpt lat="47.66416" lon="6.19539">
        <ele>342.01</ele>
        <time>2021-02-18T14:43:32Z</time>
      </trkpt>
      <trkpt lat="47.66422" lon="6.1954">
        <ele>342.04</ele>
        <time>2021-02-18T14:43:35Z</time>
      </trkpt>
      <trkpt lat="47.66429" lon="6.19541">
        <ele>342.05</ele>
        <time>2021-02-18T14:43:37Z</time>
      </trkpt>
      <trkpt lat="47.66435" lon="6.19542">
        <ele>342.03</ele>
        <time>2021-02-18T14:43:39Z</time>
      </trkpt>
      <trkpt lat="47.6644" lon="6.19543">
        <ele>342.05</ele>
        <time>2021-02-18T14:43:41Z</time>
      </trkpt>
      <trkpt lat="47.66447" lon="6.19545">
        <ele>342.1</ele>
        <time>2021-02-18T14:43:44Z</time>
      </trkpt>
      <trkpt lat="47.66453" lon="6.19547">
        <ele>342.12</ele>
        <time>2021-02-18T14:43:46Z</time>
      </trkpt>
      <trkpt lat="47.66458" lon="6.19551">
        <ele>342.12</ele>
        <time>2021-02-18T14:43:46Z</time>
      </trkpt>
      <trkpt lat="47.66465" lon="6.19554">
        <ele>342.11</ele>
        <time>2021-02-18T14:43:51Z</time>
      </trkpt>
      <trkpt lat="47.66469" lon="6.19556">
        <ele>342.05</ele>
        <time>2021-02-18T14:43:51Z</time>
      </trkpt>
      <trkpt lat="47.66475" lon="6.19561">
        <ele>342.06</ele>
        <time>2021-02-18T14:43:57Z</time>
      </trkpt>
      <trkpt lat="47.66485" lon="6.19569">
        <ele>342.09</ele>
        <time>2021-02-18T14:44:00Z</time>
      </trkpt>
      <trkpt lat="47.6649" lon="6.19573">
        <ele>342.14</ele>
        <time>2021-02-18T14:44:02Z</time>
      </trkpt>
      <trkpt lat="47.66495" lon="6.19577">
        <ele>342.17</ele>
        <time>2021-02-18T14:44:03Z</time>
      </trkpt>
      <trkpt lat="47.66498" lon="6.19582">
        <ele>342.18</ele>
        <time>2021-02-18T14:44:05Z</time>
      </trkpt>
      <trkpt lat="47.66512" lon="6.19594">
        <ele>342.19</ele>
        <time>2021-02-18T14:44:08Z</time>
      </trkpt>
      <trkpt lat="47.6652" lon="6.19602">
        <ele>342.2</ele>
        <time>2021-02-18T14:44:08Z</time>
      </trkpt>
      <trkpt lat="47.66528" lon="6.19609">
        <ele>342.22</ele>
        <time>2021-02-18T14:44:12Z</time>
      </trkpt>
      <trkpt lat="47.66535" lon="6.19615">
        <ele>342.25</ele>
        <time>2021-02-18T14:44:12Z</time>
      </trkpt>
      <trkpt lat="47.66543" lon="6.19621">
        <ele>342.27</ele>
        <time>2021-02-18T14:44:14Z</time>
      </trkpt>
      <trkpt lat="47.66548" lon="6.19624">
        <ele>342.26</ele>
        <time>2021-02-18T14:44:15Z</time>
      </trkpt>
      <trkpt lat="47.66552" lon="6.19628">
        <ele>342.27</ele>
        <time>2021-02-18T14:44:16Z</time>
      </trkpt>
      <trkpt lat="47.66557" lon="6.19631">
        <ele>342.27</ele>
        <time>2021-02-18T14:44:17Z</time>
      </trkpt>
      <trkpt lat="47.66562" lon="6.19634">
        <ele>342.27</ele>
        <time>2021-02-18T14:44:18Z</time>
      </trkpt>
      <trkpt lat="47.66566" lon="6.19637">
        <ele>342.27</ele>
        <time>2021-02-18T14:44:19Z</time>
      </trkpt>
      <trkpt lat="47.66574" lon="6.19642">
        <ele>342.27</ele>
        <time>2021-02-18T14:44:21Z</time>
      </trkpt>
      <trkpt lat="47.66579" lon="6.19645">
        <ele>342.3</ele>
        <time>2021-02-18T14:44:22Z</time>
      </trkpt>
      <trkpt lat="47.66584" lon="6.19649">
        <ele>342.3</ele>
        <time>2021-02-18T14:44:23Z</time>
      </trkpt>
      <trkpt lat="47.66589" lon="6.19654">
        <ele>342.31</ele>
        <time>2021-02-18T14:44:24Z</time>
      </trkpt>
      <trkpt lat="47.66596" lon="6.1966">
        <ele>342.32</ele>
        <time>2021-02-18T14:44:25Z</time>
      </trkpt>
      <trkpt lat="47.66602" lon="6.19667">
        <ele>342.3</ele>
        <time>2021-02-18T14:44:26Z</time>
      </trkpt>
      <trkpt lat="47.66609" lon="6.19674">
        <ele>342.31</ele>
        <time>2021-02-18T14:44:27Z</time>
      </trkpt>
      <trkpt lat="47.66615" lon="6.19682">
        <ele>342.32</ele>
        <time>2021-02-18T14:44:28Z</time>
      </trkpt>
      <trkpt lat="47.6662" lon="6.1969">
        <ele>342.35</ele>
        <time>2021-02-18T14:44:29Z</time>
      </trkpt>
      <trkpt lat="47.66626" lon="6.19698">
        <ele>342.37</ele>
        <time>2021-02-18T14:44:30Z</time>
      </trkpt>
      <trkpt lat="47.66631" lon="6.19706">
        <ele>342.37</ele>
        <time>2021-02-18T14:44:31Z</time>
      </trkpt>
      <trkpt lat="47.66635" lon="6.19713">
        <ele>342.34</ele>
        <time>2021-02-18T14:44:32Z</time>
      </trkpt>
      <trkpt lat="47.6664" lon="6.19721">
        <ele>342.35</ele>
        <time>2021-02-18T14:44:33Z</time>
      </trkpt>
      <trkpt lat="47.66645" lon="6.19729">
        <ele>342.35</ele>
        <time>2021-02-18T14:44:34Z</time>
      </trkpt>
      <trkpt lat="47.6665" lon="6.19736">
        <ele>342.35</ele>
        <time>2021-02-18T14:44:35Z</time>
      </trkpt>
      <trkpt lat="47.66656" lon="6.19744">
        <ele>342.37</ele>
        <time>2021-02-18T14:44:36Z</time>
      </trkpt>
      <trkpt lat="47.66662" lon="6.19752">
        <ele>342.4</ele>
        <time>2021-02-18T14:44:37Z</time>
      </trkpt>
      <trkpt lat="47.66667" lon="6.1976">
        <ele>342.43</ele>
        <time>2021-02-18T14:44:38Z</time>
      </trkpt>
      <trkpt lat="47.66673" lon="6.19769">
        <ele>342.41</ele>
        <time>2021-02-18T14:44:39Z</time>
      </trkpt>
      <trkpt lat="47.66678" lon="6.19778">
        <ele>342.4</ele>
        <time>2021-02-18T14:44:40Z</time>
      </trkpt>
      <trkpt lat="47.66683" lon="6.19786">
        <ele>342.37</ele>
        <time>2021-02-18T14:44:41Z</time>
      </trkpt>
      <trkpt lat="47.66688" lon="6.19795">
        <ele>342.36</ele>
        <time>2021-02-18T14:44:42Z</time>
      </trkpt>
      <trkpt lat="47.66693" lon="6.19803">
        <ele>342.33</ele>
        <time>2021-02-18T14:44:43Z</time>
      </trkpt>
      <trkpt lat="47.66699" lon="6.19811">
        <ele>342.32</ele>
        <time>2021-02-18T14:44:44Z</time>
      </trkpt>
      <trkpt lat="47.66704" lon="6.19818">
        <ele>342.31</ele>
        <time>2021-02-18T14:44:45Z</time>
      </trkpt>
      <trkpt lat="47.6671" lon="6.19826">
        <ele>342.33</ele>
        <time>2021-02-18T14:44:46Z</time>
      </trkpt>
      <trkpt lat="47.66715" lon="6.19833">
        <ele>342.35</ele>
        <time>2021-02-18T14:44:47Z</time>
      </trkpt>
      <trkpt lat="47.66721" lon="6.1984">
        <ele>342.36</ele>
        <time>2021-02-18T14:44:48Z</time>
      </trkpt>
      <trkpt lat="47.66727" lon="6.19846">
        <ele>342.37</ele>
        <time>2021-02-18T14:44:49Z</time>
      </trkpt>
      <trkpt lat="47.66733" lon="6.19853">
        <ele>342.35</ele>
        <time>2021-02-18T14:44:50Z</time>
      </trkpt>
      <trkpt lat="47.66738" lon="6.1986">
        <ele>342.35</ele>
        <time>2021-02-18T14:44:51Z</time>
      </trkpt>
      <trkpt lat="47.66744" lon="6.19867">
        <ele>342.32</ele>
        <time>2021-02-18T14:44:52Z</time>
      </trkpt>
      <trkpt lat="47.6675" lon="6.19873">
        <ele>342.29</ele>
        <time>2021-02-18T14:44:53Z</time>
      </trkpt>
      <trkpt lat="47.66756" lon="6.19879">
        <ele>342.27</ele>
        <time>2021-02-18T14:44:54Z</time>
      </trkpt>
      <trkpt lat="47.66761" lon="6.19886">
        <ele>342.26</ele>
        <time>2021-02-18T14:44:55Z</time>
      </trkpt>
      <trkpt lat="47.66767" lon="6.19892">
        <ele>342.25</ele>
        <time>2021-02-18T14:44:56Z</time>
      </trkpt>
      <trkpt lat="47.66772" lon="6.19898">
        <ele>342.22</ele>
        <time>2021-02-18T14:44:57Z</time>
      </trkpt>
      <trkpt lat="47.66778" lon="6.19904">
        <ele>342.19</ele>
        <time>2021-02-18T14:44:58Z</time>
      </trkpt>
      <trkpt lat="47.66783" lon="6.1991">
        <ele>342.19</ele>
        <time>2021-02-18T14:44:59Z</time>
      </trkpt>
      <trkpt lat="47.66788" lon="6.19914">
        <ele>342.17</ele>
        <time>2021-02-18T14:45:00Z</time>
      </trkpt>
      <trkpt lat="47.66794" lon="6.19918">
        <ele>342.19</ele>
        <time>2021-02-18T14:45:01Z</time>
      </trkpt>
      <trkpt lat="47.66799" lon="6.19921">
        <ele>342.17</ele>
        <time>2021-02-18T14:45:02Z</time>
      </trkpt>
      <trkpt lat="47.66804" lon="6.19924">
        <ele>342.15</ele>
        <time>2021-02-18T14:45:03Z</time>
      </trkpt>
      <trkpt lat="47.66808" lon="6.19927">
        <ele>342.17</ele>
        <time>2021-02-18T14:45:04Z</time>
      </trkpt>
      <trkpt lat="47.66813" lon="6.19929">
        <ele>342.18</ele>
        <time>2021-02-18T14:45:05Z</time>
      </trkpt>
      <trkpt lat="47.66817" lon="6.19932">
        <ele>342.17</ele>
        <time>2021-02-18T14:45:06Z</time>
      </trkpt>
      <trkpt lat="47.66825" lon="6.19936">
        <ele>342.11</ele>
        <time>2021-02-18T14:45:08Z</time>
      </trkpt>
      <trkpt lat="47.66833" lon="6.19941">
        <ele>342.12</ele>
        <time>2021-02-18T14:45:10Z</time>
      </trkpt>
      <trkpt lat="47.66837" lon="6.19944">
        <ele>342.12</ele>
        <time>2021-02-18T14:45:11Z</time>
      </trkpt>
      <trkpt lat="47.66842" lon="6.19948">
        <ele>342.1</ele>
        <time>2021-02-18T14:45:12Z</time>
      </trkpt>
      <trkpt lat="47.66846" lon="6.19951">
        <ele>342.12</ele>
        <time>2021-02-18T14:45:13Z</time>
      </trkpt>
      <trkpt lat="47.6685" lon="6.19955">
        <ele>342.15</ele>
        <time>2021-02-18T14:45:14Z</time>
      </trkpt>
      <trkpt lat="47.66855" lon="6.19958">
        <ele>342.15</ele>
        <time>2021-02-18T14:45:15Z</time>
      </trkpt>
      <trkpt lat="47.66859" lon="6.19961">
        <ele>342.13</ele>
        <time>2021-02-18T14:45:16Z</time>
      </trkpt>
      <trkpt lat="47.66868" lon="6.19969">
        <ele>342.15</ele>
        <time>2021-02-18T14:45:18Z</time>
      </trkpt>
      <trkpt lat="47.66873" lon="6.19975">
        <ele>342.13</ele>
        <time>2021-02-18T14:45:19Z</time>
      </trkpt>
      <trkpt lat="47.66878" lon="6.19979">
        <ele>342.13</ele>
        <time>2021-02-18T14:45:20Z</time>
      </trkpt>
      <trkpt lat="47.66884" lon="6.19984">
        <ele>342.14</ele>
        <time>2021-02-18T14:45:21Z</time>
      </trkpt>
      <trkpt lat="47.66889" lon="6.19989">
        <ele>325.11</ele>
        <time>2021-02-18T14:45:22Z</time>
      </trkpt>
      <trkpt lat="47.66894" lon="6.19994">
        <ele>319.97</ele>
        <time>2021-02-18T14:45:23Z</time>
      </trkpt>
      <trkpt lat="47.66899" lon="6.19999">
        <ele>318.41</ele>
        <time>2021-02-18T14:45:24Z</time>
      </trkpt>
      <trkpt lat="47.66904" lon="6.20004">
        <ele>317.94</ele>
        <time>2021-02-18T14:45:25Z</time>
      </trkpt>
      <trkpt lat="47.66909" lon="6.20009">
        <ele>317.8</ele>
        <time>2021-02-18T14:45:26Z</time>
      </trkpt>
      <trkpt lat="47.66914" lon="6.20014">
        <ele>317.76</ele>
        <time>2021-02-18T14:45:27Z</time>
      </trkpt>
      <trkpt lat="47.66919" lon="6.20019">
        <ele>317.81</ele>
        <time>2021-02-18T14:45:28Z</time>
      </trkpt>
      <trkpt lat="47.66923" lon="6.20023">
        <ele>317.82</ele>
        <time>2021-02-18T14:45:29Z</time>
      </trkpt>
      <trkpt lat="47.66927" lon="6.20027">
        <ele>317.81</ele>
        <time>2021-02-18T14:45:30Z</time>
      </trkpt>
      <trkpt lat="47.66935" lon="6.20033">
        <ele>317.77</ele>
        <time>2021-02-18T14:45:32Z</time>
      </trkpt>
      <trkpt lat="47.6694" lon="6.20038">
        <ele>317.75</ele>
        <time>2021-02-18T14:45:34Z</time>
      </trkpt>
      <trkpt lat="47.66947" lon="6.20044">
        <ele>317.68</ele>
        <time>2021-02-18T14:45:36Z</time>
      </trkpt>
      <trkpt lat="47.66953" lon="6.2005">
        <ele>317.65</ele>
        <time>2021-02-18T14:45:38Z</time>
      </trkpt>
      <trkpt lat="47.6696" lon="6.20054">
        <ele>316.73</ele>
        <time>2021-02-18T14:45:42Z</time>
      </trkpt>
      <trkpt lat="47.66966" lon="6.20057">
        <ele>316.68</ele>
        <time>2021-02-18T14:45:44Z</time>
      </trkpt>
      <trkpt lat="47.66973" lon="6.20067">
        <ele>316.54</ele>
        <time>2021-02-18T14:45:46Z</time>
      </trkpt>
      <trkpt lat="47.66977" lon="6.20072">
        <ele>316.47</ele>
        <time>2021-02-18T14:45:47Z</time>
      </trkpt>
      <trkpt lat="47.66983" lon="6.2008">
        <ele>316.42</ele>
        <time>2021-02-18T14:45:49Z</time>
      </trkpt>
      <trkpt lat="47.66989" lon="6.20088">
        <ele>316.38</ele>
        <time>2021-02-18T14:45:50Z</time>
      </trkpt>
      <trkpt lat="47.66993" lon="6.20093">
        <ele>316.37</ele>
        <time>2021-02-18T14:45:51Z</time>
      </trkpt>
      <trkpt lat="47.66998" lon="6.20099">
        <ele>316.34</ele>
        <time>2021-02-18T14:45:52Z</time>
      </trkpt>
      <trkpt lat="47.67012" lon="6.20117">
        <ele>316.3</ele>
        <time>2021-02-18T14:45:52Z</time>
      </trkpt>
      <trkpt lat="47.67017" lon="6.20124">
        <ele>316.27</ele>
        <time>2021-02-18T14:45:53Z</time>
      </trkpt>
      <trkpt lat="47.67021" lon="6.20131">
        <ele>316.3</ele>
        <time>2021-02-18T14:45:54Z</time>
      </trkpt>
      <trkpt lat="47.67026" lon="6.20137">
        <ele>316.35</ele>
        <time>2021-02-18T14:45:55Z</time>
      </trkpt>
      <trkpt lat="47.6703" lon="6.20143">
        <ele>316.38</ele>
        <time>2021-02-18T14:45:56Z</time>
      </trkpt>
      <trkpt lat="47.67035" lon="6.20149">
        <ele>316.37</ele>
        <time>2021-02-18T14:45:57Z</time>
      </trkpt>
      <trkpt lat="47.6704" lon="6.20155">
        <ele>316.36</ele>
        <time>2021-02-18T14:45:58Z</time>
      </trkpt>
      <trkpt lat="47.67044" lon="6.2016">
        <ele>316.35</ele>
        <time>2021-02-18T14:45:59Z</time>
      </trkpt>
      <trkpt lat="47.67048" lon="6.20166">
        <ele>316.34</ele>
        <time>2021-02-18T14:46:00Z</time>
      </trkpt>
      <trkpt lat="47.67051" lon="6.2017">
        <ele>316.37</ele>
        <time>2021-02-18T14:46:01Z</time>
      </trkpt>
      <trkpt lat="47.67055" lon="6.20174">
        <ele>316.38</ele>
        <time>2021-02-18T14:46:02Z</time>
      </trkpt>
      <trkpt lat="47.67061" lon="6.2018">
        <ele>316.33</ele>
        <time>2021-02-18T14:46:04Z</time>
      </trkpt>
      <trkpt lat="47.67067" lon="6.20186">
        <ele>316.34</ele>
        <time>2021-02-18T14:46:06Z</time>
      </trkpt>
      <trkpt lat="47.67074" lon="6.20193">
        <ele>314.23</ele>
        <time>2021-02-18T14:46:08Z</time>
      </trkpt>
      <trkpt lat="47.67079" lon="6.20197">
        <ele>313.41</ele>
        <time>2021-02-18T14:46:12Z</time>
      </trkpt>
      <trkpt lat="47.67084" lon="6.20202">
        <ele>313.35</ele>
        <time>2021-02-18T14:46:13Z</time>
      </trkpt>
      <trkpt lat="47.67089" lon="6.20207">
        <ele>313.36</ele>
        <time>2021-02-18T14:46:14Z</time>
      </trkpt>
      <trkpt lat="47.67097" lon="6.20216">
        <ele>313.2</ele>
        <time>2021-02-18T14:46:17Z</time>
      </trkpt>
      <trkpt lat="47.6711" lon="6.20228">
        <ele>313.12</ele>
        <time>2021-02-18T14:46:17Z</time>
      </trkpt>
      <trkpt lat="47.67114" lon="6.20232">
        <ele>313.09</ele>
        <time>2021-02-18T14:46:18Z</time>
      </trkpt>
      <trkpt lat="47.67118" lon="6.20236">
        <ele>313.07</ele>
        <time>2021-02-18T14:46:19Z</time>
      </trkpt>
      <trkpt lat="47.67122" lon="6.20239">
        <ele>313.06</ele>
        <time>2021-02-18T14:46:20Z</time>
      </trkpt>
      <trkpt lat="47.67126" lon="6.20243">
        <ele>313.08</ele>
        <time>2021-02-18T14:46:21Z</time>
      </trkpt>
      <trkpt lat="47.6713" lon="6.20248">
        <ele>313.07</ele>
        <time>2021-02-18T14:46:22Z</time>
      </trkpt>
      <trkpt lat="47.67134" lon="6.20252">
        <ele>313.07</ele>
        <time>2021-02-18T14:46:23Z</time>
      </trkpt>
      <trkpt lat="47.67138" lon="6.20255">
        <ele>313.08</ele>
        <time>2021-02-18T14:46:24Z</time>
      </trkpt>
      <trkpt lat="47.67143" lon="6.20259">
        <ele>313.08</ele>
        <time>2021-02-18T14:46:25Z</time>
      </trkpt>
      <trkpt lat="47.67147" lon="6.20263">
        <ele>313.1</ele>
        <time>2021-02-18T14:46:26Z</time>
      </trkpt>
      <trkpt lat="47.67151" lon="6.20267">
        <ele>313.08</ele>
        <time>2021-02-18T14:46:27Z</time>
      </trkpt>
      <trkpt lat="47.67156" lon="6.20271">
        <ele>313.08</ele>
        <time>2021-02-18T14:46:28Z</time>
      </trkpt>
      <trkpt lat="47.6716" lon="6.20276">
        <ele>313.09</ele>
        <time>2021-02-18T14:46:29Z</time>
      </trkpt>
      <trkpt lat="47.67164" lon="6.2028">
        <ele>313.1</ele>
        <time>2021-02-18T14:46:30Z</time>
      </trkpt>
      <trkpt lat="47.67167" lon="6.20285">
        <ele>313.08</ele>
        <time>2021-02-18T14:46:31Z</time>
      </trkpt>
      <trkpt lat="47.67171" lon="6.20289">
        <ele>313.08</ele>
        <time>2021-02-18T14:46:32Z</time>
      </trkpt>
      <trkpt lat="47.67175" lon="6.20292">
        <ele>313.12</ele>
        <time>2021-02-18T14:46:33Z</time>
      </trkpt>
      <trkpt lat="47.67179" lon="6.20295">
        <ele>313.14</ele>
        <time>2021-02-18T14:46:34Z</time>
      </trkpt>
      <trkpt lat="47.67186" lon="6.20302">
        <ele>313.15</ele>
        <time>2021-02-18T14:46:36Z</time>
      </trkpt>
      <trkpt lat="47.67193" lon="6.2031">
        <ele>313.19</ele>
        <time>2021-02-18T14:46:38Z</time>
      </trkpt>
      <trkpt lat="47.67198" lon="6.20314">
        <ele>313.18</ele>
        <time>2021-02-18T14:46:39Z</time>
      </trkpt>
      <trkpt lat="47.67203" lon="6.20315">
        <ele>312.11</ele>
        <time>2021-02-18T14:46:40Z</time>
      </trkpt>
      <trkpt lat="47.67208" lon="6.20314">
        <ele>311.79</ele>
        <time>2021-02-18T14:46:41Z</time>
      </trkpt>
      <trkpt lat="47.67213" lon="6.20311">
        <ele>311.71</ele>
        <time>2021-02-18T14:46:42Z</time>
      </trkpt>
      <trkpt lat="47.67217" lon="6.20308">
        <ele>311.66</ele>
        <time>2021-02-18T14:46:43Z</time>
      </trkpt>
      <trkpt lat="47.67223" lon="6.20303">
        <ele>311.42</ele>
        <time>2021-02-18T14:46:45Z</time>
      </trkpt>
      <trkpt lat="47.67228" lon="6.20298">
        <ele>311.31</ele>
        <time>2021-02-18T14:46:46Z</time>
      </trkpt>
      <trkpt lat="47.67233" lon="6.20293">
        <ele>311.27</ele>
        <time>2021-02-18T14:46:47Z</time>
      </trkpt>
      <trkpt lat="47.67238" lon="6.20289">
        <ele>311.28</ele>
        <time>2021-02-18T14:46:48Z</time>
      </trkpt>
      <trkpt lat="47.67243" lon="6.20285">
        <ele>311.14</ele>
        <time>2021-02-18T14:46:49Z</time>
      </trkpt>
      <trkpt lat="47.67248" lon="6.20282">
        <ele>311.09</ele>
        <time>2021-02-18T14:46:50Z</time>
      </trkpt>
      <trkpt lat="47.67253" lon="6.20279">
        <ele>311.06</ele>
        <time>2021-02-18T14:46:51Z</time>
      </trkpt>
      <trkpt lat="47.67259" lon="6.20276">
        <ele>311.08</ele>
        <time>2021-02-18T14:46:52Z</time>
      </trkpt>
      <trkpt lat="47.67264" lon="6.20273">
        <ele>311.05</ele>
        <time>2021-02-18T14:46:53Z</time>
      </trkpt>
      <trkpt lat="47.67269" lon="6.2027">
        <ele>311.04</ele>
        <time>2021-02-18T14:46:54Z</time>
      </trkpt>
      <trkpt lat="47.67273" lon="6.20267">
        <ele>311.03</ele>
        <time>2021-02-18T14:46:55Z</time>
      </trkpt>
      <trkpt lat="47.67278" lon="6.20264">
        <ele>311.03</ele>
        <time>2021-02-18T14:46:56Z</time>
      </trkpt>
      <trkpt lat="47.67283" lon="6.2026">
        <ele>311.04</ele>
        <time>2021-02-18T14:46:57Z</time>
      </trkpt>
      <trkpt lat="47.67288" lon="6.20257">
        <ele>311.02</ele>
        <time>2021-02-18T14:46:58Z</time>
      </trkpt>
      <trkpt lat="47.67292" lon="6.20253">
        <ele>311.03</ele>
        <time>2021-02-18T14:46:59Z</time>
      </trkpt>
      <trkpt lat="47.67296" lon="6.20249">
        <ele>311.01</ele>
        <time>2021-02-18T14:47:00Z</time>
      </trkpt>
      <trkpt lat="47.673" lon="6.20244">
        <ele>311</ele>
        <time>2021-02-18T14:47:01Z</time>
      </trkpt>
      <trkpt lat="47.67304" lon="6.2024">
        <ele>311.01</ele>
        <time>2021-02-18T14:47:02Z</time>
      </trkpt>
      <trkpt lat="47.67308" lon="6.20236">
        <ele>311</ele>
        <time>2021-02-18T14:47:03Z</time>
      </trkpt>
      <trkpt lat="47.67311" lon="6.20233">
        <ele>311.03</ele>
        <time>2021-02-18T14:47:04Z</time>
      </trkpt>
      <trkpt lat="47.67315" lon="6.20229">
        <ele>311.05</ele>
        <time>2021-02-18T14:47:05Z</time>
      </trkpt>
      <trkpt lat="47.6732" lon="6.20226">
        <ele>311.06</ele>
        <time>2021-02-18T14:47:06Z</time>
      </trkpt>
      <trkpt lat="47.67326" lon="6.20221">
        <ele>311.1</ele>
        <time>2021-02-18T14:47:08Z</time>
      </trkpt>
      <trkpt lat="47.67334" lon="6.20215">
        <ele>311.08</ele>
        <time>2021-02-18T14:47:10Z</time>
      </trkpt>
      <trkpt lat="47.67337" lon="6.20211">
        <ele>311.04</ele>
        <time>2021-02-18T14:47:11Z</time>
      </trkpt>
      <trkpt lat="47.67345" lon="6.20206">
        <ele>310.52</ele>
        <time>2021-02-18T14:47:13Z</time>
      </trkpt>
      <trkpt lat="47.67349" lon="6.20201">
        <ele>310.34</ele>
        <time>2021-02-18T14:47:17Z</time>
      </trkpt>
      <trkpt lat="47.67353" lon="6.20196">
        <ele>310.35</ele>
        <time>2021-02-18T14:47:19Z</time>
      </trkpt>
      <trkpt lat="47.67359" lon="6.20192">
        <ele>310.41</ele>
        <time>2021-02-18T14:47:20Z</time>
      </trkpt>
      <trkpt lat="47.67363" lon="6.20189">
        <ele>310.42</ele>
        <time>2021-02-18T14:47:22Z</time>
      </trkpt>
      <trkpt lat="47.67369" lon="6.20186">
        <ele>310.43</ele>
        <time>2021-02-18T14:47:23Z</time>
      </trkpt>
      <trkpt lat="47.67374" lon="6.20183">
        <ele>310.43</ele>
        <time>2021-02-18T14:47:25Z</time>
      </trkpt>
      <trkpt lat="47.67385" lon="6.20174">
        <ele>310.52</ele>
        <time>2021-02-18T14:47:26Z</time>
      </trkpt>
      <trkpt lat="47.6739" lon="6.2017">
        <ele>310.52</ele>
        <time>2021-02-18T14:47:30Z</time>
      </trkpt>
      <trkpt lat="47.674" lon="6.20164">
        <ele>310.43</ele>
        <time>2021-02-18T14:47:34Z</time>
      </trkpt>
      <trkpt lat="47.67406" lon="6.20161">
        <ele>310.39</ele>
        <time>2021-02-18T14:47:35Z</time>
      </trkpt>
      <trkpt lat="47.67411" lon="6.20159">
        <ele>310.44</ele>
        <time>2021-02-18T14:47:37Z</time>
      </trkpt>
      <trkpt lat="47.67417" lon="6.20156">
        <ele>310.43</ele>
        <time>2021-02-18T14:47:39Z</time>
      </trkpt>
      <trkpt lat="47.67423" lon="6.20155">
        <ele>310.38</ele>
        <time>2021-02-18T14:47:41Z</time>
      </trkpt>
      <trkpt lat="47.67429" lon="6.20155">
        <ele>310.4</ele>
        <time>2021-02-18T14:47:43Z</time>
      </trkpt>
      <trkpt lat="47.67434" lon="6.20155">
        <ele>310.41</ele>
        <time>2021-02-18T14:47:45Z</time>
      </trkpt>
      <trkpt lat="47.6744" lon="6.20154">
        <ele>310.43</ele>
        <time>2021-02-18T14:47:45Z</time>
      </trkpt>
      <trkpt lat="47.67445" lon="6.20156">
        <ele>310.45</ele>
        <time>2021-02-18T14:47:50Z</time>
      </trkpt>
      <trkpt lat="47.6745" lon="6.20157">
        <ele>310.42</ele>
        <time>2021-02-18T14:47:52Z</time>
      </trkpt>
      <trkpt lat="47.67455" lon="6.20159">
        <ele>310.39</ele>
        <time>2021-02-18T14:47:55Z</time>
      </trkpt>
      <trkpt lat="47.67465" lon="6.2016">
        <ele>310.43</ele>
        <time>2021-02-18T14:47:58Z</time>
      </trkpt>
      <trkpt lat="47.6747" lon="6.2016">
        <ele>310.44</ele>
        <time>2021-02-18T14:48:01Z</time>
      </trkpt>
      <trkpt lat="47.67481" lon="6.20161">
        <ele>310.51</ele>
        <time>2021-02-18T14:48:05Z</time>
      </trkpt>
      <trkpt lat="47.67486" lon="6.20162">
        <ele>310.48</ele>
        <time>2021-02-18T14:48:07Z</time>
      </trkpt>
      <trkpt lat="47.67492" lon="6.20162">
        <ele>310.45</ele>
        <time>2021-02-18T14:48:07Z</time>
      </trkpt>
      <trkpt lat="47.67498" lon="6.20162">
        <ele>310.48</ele>
        <time>2021-02-18T14:48:09Z</time>
      </trkpt>
      <trkpt lat="47.67504" lon="6.20163">
        <ele>310.48</ele>
        <time>2021-02-18T14:48:14Z</time>
      </trkpt>
      <trkpt lat="47.6751" lon="6.20164">
        <ele>313.96</ele>
        <time>2021-02-18T14:48:16Z</time>
      </trkpt>
      <trkpt lat="47.67516" lon="6.20165">
        <ele>314.24</ele>
        <time>2021-02-18T14:48:19Z</time>
      </trkpt>
      <trkpt lat="47.67526" lon="6.20166">
        <ele>314.39</ele>
        <time>2021-02-18T14:48:20Z</time>
      </trkpt>
      <trkpt lat="47.67532" lon="6.20165">
        <ele>314.39</ele>
        <time>2021-02-18T14:48:24Z</time>
      </trkpt>
      <trkpt lat="47.67538" lon="6.20165">
        <ele>314.57</ele>
        <time>2021-02-18T14:48:27Z</time>
      </trkpt>
      <trkpt lat="47.67544" lon="6.20166">
        <ele>314.71</ele>
        <time>2021-02-18T14:48:30Z</time>
      </trkpt>
      <trkpt lat="47.67549" lon="6.20166">
        <ele>314.72</ele>
        <time>2021-02-18T14:48:30Z</time>
      </trkpt>
      <trkpt lat="47.67554" lon="6.20166">
        <ele>314.96</ele>
        <time>2021-02-18T14:48:36Z</time>
      </trkpt>
      <trkpt lat="47.6756" lon="6.20167">
        <ele>315.17</ele>
        <time>2021-02-18T14:48:38Z</time>
      </trkpt>
      <trkpt lat="47.67566" lon="6.20169">
        <ele>315.32</ele>
        <time>2021-02-18T14:48:41Z</time>
      </trkpt>
      <trkpt lat="47.67572" lon="6.2017">
        <ele>315.32</ele>
        <time>2021-02-18T14:48:43Z</time>
      </trkpt>
      <trkpt lat="47.67577" lon="6.20173">
        <ele>315.53</ele>
        <time>2021-02-18T14:48:46Z</time>
      </trkpt>
      <trkpt lat="47.67582" lon="6.20175">
        <ele>315.56</ele>
        <time>2021-02-18T14:48:48Z</time>
      </trkpt>
      <trkpt lat="47.67587" lon="6.20179">
        <ele>315.89</ele>
        <time>2021-02-18T14:48:49Z</time>
      </trkpt>
      <trkpt lat="47.67592" lon="6.20182">
        <ele>315.92</ele>
        <time>2021-02-18T14:48:54Z</time>
      </trkpt>
      <trkpt lat="47.67603" lon="6.20189">
        <ele>315.87</ele>
        <time>2021-02-18T14:48:57Z</time>
      </trkpt>
      <trkpt lat="47.67607" lon="6.20192">
        <ele>315.88</ele>
        <time>2021-02-18T14:48:59Z</time>
      </trkpt>
      <trkpt lat="47.67613" lon="6.20195">
        <ele>315.94</ele>
        <time>2021-02-18T14:49:01Z</time>
      </trkpt>
      <trkpt lat="47.67618" lon="6.20199">
        <ele>315.96</ele>
        <time>2021-02-18T14:49:03Z</time>
      </trkpt>
      <trkpt lat="47.67623" lon="6.20203">
        <ele>316</ele>
        <time>2021-02-18T14:49:05Z</time>
      </trkpt>
      <trkpt lat="47.67629" lon="6.20207">
        <ele>315.93</ele>
        <time>2021-02-18T14:49:07Z</time>
      </trkpt>
      <trkpt lat="47.67634" lon="6.20209">
        <ele>315.89</ele>
        <time>2021-02-18T14:49:09Z</time>
      </trkpt>
      <trkpt lat="47.67641" lon="6.20211">
        <ele>315.88</ele>
        <time>2021-02-18T14:49:09Z</time>
      </trkpt>
      <trkpt lat="47.67646" lon="6.20213">
        <ele>315.87</ele>
        <time>2021-02-18T14:49:14Z</time>
      </trkpt>
      <trkpt lat="47.67656" lon="6.20216">
        <ele>315.82</ele>
        <time>2021-02-18T14:49:18Z</time>
      </trkpt>
      <trkpt lat="47.67661" lon="6.20219">
        <ele>315.83</ele>
        <time>2021-02-18T14:49:20Z</time>
      </trkpt>
      <trkpt lat="47.67665" lon="6.2022">
        <ele>315.83</ele>
        <time>2021-02-18T14:49:22Z</time>
      </trkpt>
      <trkpt lat="47.67669" lon="6.20222">
        <ele>315.88</ele>
        <time>2021-02-18T14:49:25Z</time>
      </trkpt>
      <trkpt lat="47.67674" lon="6.20225">
        <ele>315.89</ele>
        <time>2021-02-18T14:49:28Z</time>
      </trkpt>
      <trkpt lat="47.67679" lon="6.20228">
        <ele>315.88</ele>
        <time>2021-02-18T14:49:30Z</time>
      </trkpt>
      <trkpt lat="47.67683" lon="6.20231">
        <ele>315.95</ele>
        <time>2021-02-18T14:49:32Z</time>
      </trkpt>
      <trkpt lat="47.67689" lon="6.20234">
        <ele>315.99</ele>
        <time>2021-02-18T14:49:35Z</time>
      </trkpt>
      <trkpt lat="47.677" lon="6.20243">
        <ele>316</ele>
        <time>2021-02-18T14:49:39Z</time>
      </trkpt>
      <trkpt lat="47.67705" lon="6.20245">
        <ele>315.99</ele>
        <time>2021-02-18T14:49:41Z</time>
      </trkpt>
      <trkpt lat="47.6771" lon="6.20246">
        <ele>315.96</ele>
        <time>2021-02-18T14:49:43Z</time>
      </trkpt>
      <trkpt lat="47.67715" lon="6.20246">
        <ele>315.95</ele>
        <time>2021-02-18T14:49:46Z</time>
      </trkpt>
      <trkpt lat="47.6772" lon="6.20245">
        <ele>315.89</ele>
        <time>2021-02-18T14:49:46Z</time>
      </trkpt>
      <trkpt lat="47.67725" lon="6.20243">
        <ele>315.96</ele>
        <time>2021-02-18T14:49:52Z</time>
      </trkpt>
      <trkpt lat="47.6773" lon="6.20242">
        <ele>315.99</ele>
        <time>2021-02-18T14:49:55Z</time>
      </trkpt>
      <trkpt lat="47.67734" lon="6.20238">
        <ele>316.01</ele>
        <time>2021-02-18T14:50:04Z</time>
      </trkpt>
      <trkpt lat="47.67739" lon="6.20236">
        <ele>316.02</ele>
        <time>2021-02-18T14:50:09Z</time>
      </trkpt>
      <trkpt lat="47.67743" lon="6.20234">
        <ele>315.93</ele>
        <time>2021-02-18T14:50:13Z</time>
      </trkpt>
      <trkpt lat="47.67749" lon="6.20234">
        <ele>315.91</ele>
        <time>2021-02-18T14:50:16Z</time>
      </trkpt>
      <trkpt lat="47.67755" lon="6.20232">
        <ele>315.94</ele>
        <time>2021-02-18T14:50:18Z</time>
      </trkpt>
      <trkpt lat="47.6776" lon="6.20231">
        <ele>315.97</ele>
        <time>2021-02-18T14:50:20Z</time>
      </trkpt>
      <trkpt lat="47.67765" lon="6.20229">
        <ele>315.99</ele>
        <time>2021-02-18T14:50:23Z</time>
      </trkpt>
      <trkpt lat="47.67769" lon="6.20226">
        <ele>315.98</ele>
        <time>2021-02-18T14:50:26Z</time>
      </trkpt>
      <trkpt lat="47.67774" lon="6.20221">
        <ele>316.02</ele>
        <time>2021-02-18T14:50:28Z</time>
      </trkpt>
      <trkpt lat="47.67778" lon="6.20218">
        <ele>316.08</ele>
        <time>2021-02-18T14:50:30Z</time>
      </trkpt>
      <trkpt lat="47.67782" lon="6.20214">
        <ele>316.13</ele>
        <time>2021-02-18T14:50:30Z</time>
      </trkpt>
      <trkpt lat="47.67786" lon="6.20209">
        <ele>316.11</ele>
        <time>2021-02-18T14:50:35Z</time>
      </trkpt>
      <trkpt lat="47.6779" lon="6.20204">
        <ele>316.05</ele>
        <time>2021-02-18T14:50:35Z</time>
      </trkpt>
      <trkpt lat="47.67794" lon="6.20198">
        <ele>316.03</ele>
        <time>2021-02-18T14:50:38Z</time>
      </trkpt>
      <trkpt lat="47.67797" lon="6.20193">
        <ele>316.07</ele>
        <time>2021-02-18T14:50:43Z</time>
      </trkpt>
      <trkpt lat="47.67801" lon="6.20189">
        <ele>316.08</ele>
        <time>2021-02-18T14:50:46Z</time>
      </trkpt>
      <trkpt lat="47.67806" lon="6.20186">
        <ele>316.08</ele>
        <time>2021-02-18T14:50:49Z</time>
      </trkpt>
      <trkpt lat="47.67812" lon="6.20185">
        <ele>316.03</ele>
        <time>2021-02-18T14:50:51Z</time>
      </trkpt>
      <trkpt lat="47.67817" lon="6.20185">
        <ele>316.01</ele>
        <time>2021-02-18T14:50:51Z</time>
      </trkpt>
      <trkpt lat="47.67821" lon="6.20186">
        <ele>329.37</ele>
        <time>2021-02-18T14:50:53Z</time>
      </trkpt>
      <trkpt lat="47.67826" lon="6.20188">
        <ele>335.14</ele>
        <time>2021-02-18T14:50:57Z</time>
      </trkpt>
      <trkpt lat="47.6783" lon="6.20191">
        <ele>335.25</ele>
        <time>2021-02-18T14:51:00Z</time>
      </trkpt>
      <trkpt lat="47.67835" lon="6.20196">
        <ele>335.24</ele>
        <time>2021-02-18T14:51:03Z</time>
      </trkpt>
      <trkpt lat="47.67839" lon="6.202">
        <ele>335.2</ele>
        <time>2021-02-18T14:51:03Z</time>
      </trkpt>
      <trkpt lat="47.67843" lon="6.20204">
        <ele>335.64</ele>
        <time>2021-02-18T14:51:08Z</time>
      </trkpt>
      <trkpt lat="47.67847" lon="6.20208">
        <ele>335.76</ele>
        <time>2021-02-18T14:51:11Z</time>
      </trkpt>
      <trkpt lat="47.67852" lon="6.20211">
        <ele>335.8</ele>
        <time>2021-02-18T14:51:14Z</time>
      </trkpt>
      <trkpt lat="47.67855" lon="6.20215">
        <ele>335.82</ele>
        <time>2021-02-18T14:51:16Z</time>
      </trkpt>
      <trkpt lat="47.6786" lon="6.20219">
        <ele>336.22</ele>
        <time>2021-02-18T14:51:19Z</time>
      </trkpt>
      <trkpt lat="47.67866" lon="6.20223">
        <ele>336.41</ele>
        <time>2021-02-18T14:51:22Z</time>
      </trkpt>
      <trkpt lat="47.6787" lon="6.20227">
        <ele>336.41</ele>
        <time>2021-02-18T14:51:24Z</time>
      </trkpt>
      <trkpt lat="47.67874" lon="6.20231">
        <ele>336.43</ele>
        <time>2021-02-18T14:51:26Z</time>
      </trkpt>
      <trkpt lat="47.67878" lon="6.20235">
        <ele>337.41</ele>
        <time>2021-02-18T14:51:28Z</time>
      </trkpt>
      <trkpt lat="47.67883" lon="6.20239">
        <ele>337.56</ele>
        <time>2021-02-18T14:51:31Z</time>
      </trkpt>
      <trkpt lat="47.67888" lon="6.20242">
        <ele>337.61</ele>
        <time>2021-02-18T14:51:34Z</time>
      </trkpt>
      <trkpt lat="47.67893" lon="6.20247">
        <ele>338.12</ele>
        <time>2021-02-18T14:51:37Z</time>
      </trkpt>
      <trkpt lat="47.67897" lon="6.2025">
        <ele>338.11</ele>
        <time>2021-02-18T14:51:40Z</time>
      </trkpt>
      <trkpt lat="47.67902" lon="6.20254">
        <ele>338.1</ele>
        <time>2021-02-18T14:51:41Z</time>
      </trkpt>
      <trkpt lat="47.67906" lon="6.20258">
        <ele>338.96</ele>
        <time>2021-02-18T14:51:47Z</time>
      </trkpt>
      <trkpt lat="47.67909" lon="6.20262">
        <ele>339</ele>
        <time>2021-02-18T14:51:50Z</time>
      </trkpt>
      <trkpt lat="47.67915" lon="6.20268">
        <ele>339.56</ele>
        <time>2021-02-18T14:51:51Z</time>
      </trkpt>
      <trkpt lat="47.67919" lon="6.20272">
        <ele>339.64</ele>
        <time>2021-02-18T14:51:54Z</time>
      </trkpt>
      <trkpt lat="47.67924" lon="6.20277">
        <ele>339.67</ele>
        <time>2021-02-18T14:51:57Z</time>
      </trkpt>
      <trkpt lat="47.67929" lon="6.20281">
        <ele>341.02</ele>
        <time>2021-02-18T14:52:00Z</time>
      </trkpt>
      <trkpt lat="47.67935" lon="6.20283">
        <ele>341.12</ele>
        <time>2021-02-18T14:52:05Z</time>
      </trkpt>
      <trkpt lat="47.67939" lon="6.20285">
        <ele>341.07</ele>
        <time>2021-02-18T14:52:05Z</time>
      </trkpt>
      <trkpt lat="47.67945" lon="6.20287">
        <ele>341.81</ele>
        <time>2021-02-18T14:52:10Z</time>
      </trkpt>
      <trkpt lat="47.67952" lon="6.2029">
        <ele>341.77</ele>
        <time>2021-02-18T14:52:11Z</time>
      </trkpt>
      <trkpt lat="47.67957" lon="6.20292">
        <ele>341.72</ele>
        <time>2021-02-18T14:52:16Z</time>
      </trkpt>
      <trkpt lat="47.67963" lon="6.20295">
        <ele>341.74</ele>
        <time>2021-02-18T14:52:16Z</time>
      </trkpt>
      <trkpt lat="47.67967" lon="6.20296">
        <ele>341.75</ele>
        <time>2021-02-18T14:52:20Z</time>
      </trkpt>
      <trkpt lat="47.67975" lon="6.203">
        <ele>343.04</ele>
        <time>2021-02-18T14:52:22Z</time>
      </trkpt>
      <trkpt lat="47.67983" lon="6.20303">
        <ele>343.16</ele>
        <time>2021-02-18T14:52:25Z</time>
      </trkpt>
      <trkpt lat="47.6799" lon="6.20306">
        <ele>343.19</ele>
        <time>2021-02-18T14:52:26Z</time>
      </trkpt>
      <trkpt lat="47.67994" lon="6.20308">
        <ele>343.18</ele>
        <time>2021-02-18T14:52:28Z</time>
      </trkpt>
      <trkpt lat="47.68001" lon="6.20311">
        <ele>343.16</ele>
        <time>2021-02-18T14:52:29Z</time>
      </trkpt>
      <trkpt lat="47.68006" lon="6.20313">
        <ele>343.18</ele>
        <time>2021-02-18T14:52:30Z</time>
      </trkpt>
      <trkpt lat="47.68018" lon="6.20318">
        <ele>343.15</ele>
        <time>2021-02-18T14:52:33Z</time>
      </trkpt>
      <trkpt lat="47.68024" lon="6.20322">
        <ele>343.39</ele>
        <time>2021-02-18T14:52:34Z</time>
      </trkpt>
      <trkpt lat="47.68032" lon="6.20326">
        <ele>343.39</ele>
        <time>2021-02-18T14:52:36Z</time>
      </trkpt>
      <trkpt lat="47.68037" lon="6.20327">
        <ele>343.36</ele>
        <time>2021-02-18T14:52:37Z</time>
      </trkpt>
      <trkpt lat="47.68044" lon="6.2033">
        <ele>343.35</ele>
        <time>2021-02-18T14:52:39Z</time>
      </trkpt>
      <trkpt lat="47.68052" lon="6.20332">
        <ele>343.31</ele>
        <time>2021-02-18T14:52:40Z</time>
      </trkpt>
      <trkpt lat="47.68058" lon="6.20335">
        <ele>343.42</ele>
        <time>2021-02-18T14:52:41Z</time>
      </trkpt>
      <trkpt lat="47.68063" lon="6.20337">
        <ele>343.56</ele>
        <time>2021-02-18T14:52:42Z</time>
      </trkpt>
      <trkpt lat="47.68074" lon="6.20341">
        <ele>343.57</ele>
        <time>2021-02-18T14:52:45Z</time>
      </trkpt>
      <trkpt lat="47.68079" lon="6.20343">
        <ele>343.52</ele>
        <time>2021-02-18T14:52:46Z</time>
      </trkpt>
      <trkpt lat="47.68084" lon="6.20345">
        <ele>343.48</ele>
        <time>2021-02-18T14:52:48Z</time>
      </trkpt>
      <trkpt lat="47.68094" lon="6.20349">
        <ele>343.52</ele>
        <time>2021-02-18T14:52:50Z</time>
      </trkpt>
      <trkpt lat="47.68099" lon="6.20351">
        <ele>343.53</ele>
        <time>2021-02-18T14:52:51Z</time>
      </trkpt>
      <trkpt lat="47.68107" lon="6.20354">
        <ele>343.55</ele>
        <time>2021-02-18T14:52:54Z</time>
      </trkpt>
      <trkpt lat="47.68113" lon="6.20356">
        <ele>343.7</ele>
        <time>2021-02-18T14:52:55Z</time>
      </trkpt>
      <trkpt lat="47.68118" lon="6.20358">
        <ele>343.72</ele>
        <time>2021-02-18T14:52:56Z</time>
      </trkpt>
      <trkpt lat="47.68127" lon="6.20361">
        <ele>343.65</ele>
        <time>2021-02-18T14:52:56Z</time>
      </trkpt>
      <trkpt lat="47.68136" lon="6.20364">
        <ele>343.67</ele>
        <time>2021-02-18T14:53:00Z</time>
      </trkpt>
      <trkpt lat="47.68155" lon="6.20373">
        <ele>343.67</ele>
        <time>2021-02-18T14:53:00Z</time>
      </trkpt>
      <trkpt lat="47.68162" lon="6.20376">
        <ele>343.65</ele>
        <time>2021-02-18T14:53:01Z</time>
      </trkpt>
      <trkpt lat="47.68169" lon="6.2038">
        <ele>343.64</ele>
        <time>2021-02-18T14:53:02Z</time>
      </trkpt>
      <trkpt lat="47.68181" lon="6.20387">
        <ele>343.63</ele>
        <time>2021-02-18T14:53:03Z</time>
      </trkpt>
      <trkpt lat="47.6819" lon="6.20392">
        <ele>343.67</ele>
        <time>2021-02-18T14:53:04Z</time>
      </trkpt>
      <trkpt lat="47.68197" lon="6.20397">
        <ele>343.67</ele>
        <time>2021-02-18T14:53:05Z</time>
      </trkpt>
      <trkpt lat="47.68203" lon="6.20402">
        <ele>343.64</ele>
        <time>2021-02-18T14:53:06Z</time>
      </trkpt>
      <trkpt lat="47.6821" lon="6.20407">
        <ele>343.63</ele>
        <time>2021-02-18T14:53:07Z</time>
      </trkpt>
      <trkpt lat="47.68216" lon="6.20412">
        <ele>343.63</ele>
        <time>2021-02-18T14:53:08Z</time>
      </trkpt>
      <trkpt lat="47.68223" lon="6.20417">
        <ele>343.64</ele>
        <time>2021-02-18T14:53:09Z</time>
      </trkpt>
      <trkpt lat="47.68229" lon="6.20421">
        <ele>343.67</ele>
        <time>2021-02-18T14:53:10Z</time>
      </trkpt>
      <trkpt lat="47.68235" lon="6.20426">
        <ele>343.72</ele>
        <time>2021-02-18T14:53:11Z</time>
      </trkpt>
      <trkpt lat="47.68241" lon="6.2043">
        <ele>343.74</ele>
        <time>2021-02-18T14:53:12Z</time>
      </trkpt>
      <trkpt lat="47.68247" lon="6.20433">
        <ele>343.74</ele>
        <time>2021-02-18T14:53:13Z</time>
      </trkpt>
      <trkpt lat="47.68253" lon="6.20436">
        <ele>343.72</ele>
        <time>2021-02-18T14:53:14Z</time>
      </trkpt>
      <trkpt lat="47.68258" lon="6.20438">
        <ele>343.77</ele>
        <time>2021-02-18T14:53:15Z</time>
      </trkpt>
      <trkpt lat="47.68262" lon="6.20441">
        <ele>343.79</ele>
        <time>2021-02-18T14:53:16Z</time>
      </trkpt>
      <trkpt lat="47.68267" lon="6.20443">
        <ele>343.78</ele>
        <time>2021-02-18T14:53:17Z</time>
      </trkpt>
      <trkpt lat="47.68274" lon="6.20447">
        <ele>343.76</ele>
        <time>2021-02-18T14:53:19Z</time>
      </trkpt>
      <trkpt lat="47.68281" lon="6.20451">
        <ele>343.77</ele>
        <time>2021-02-18T14:53:21Z</time>
      </trkpt>
      <trkpt lat="47.68289" lon="6.20455">
        <ele>339.88</ele>
        <time>2021-02-18T14:53:23Z</time>
      </trkpt>
      <trkpt lat="47.683" lon="6.2045">
        <ele>338.28</ele>
        <time>2021-02-18T14:53:25Z</time>
      </trkpt>
      <trkpt lat="47.68304" lon="6.20454">
        <ele>338.14</ele>
        <time>2021-02-18T14:53:29Z</time>
      </trkpt>
      <trkpt lat="47.68315" lon="6.20464">
        <ele>337.82</ele>
        <time>2021-02-18T14:53:33Z</time>
      </trkpt>
      <trkpt lat="47.68319" lon="6.20469">
        <ele>337.78</ele>
        <time>2021-02-18T14:53:34Z</time>
      </trkpt>
      <trkpt lat="47.68325" lon="6.20472">
        <ele>337.76</ele>
        <time>2021-02-18T14:53:35Z</time>
      </trkpt>
      <trkpt lat="47.6833" lon="6.20475">
        <ele>337.8</ele>
        <time>2021-02-18T14:53:36Z</time>
      </trkpt>
      <trkpt lat="47.68347" lon="6.20488">
        <ele>337.85</ele>
        <time>2021-02-18T14:53:36Z</time>
      </trkpt>
      <trkpt lat="47.68354" lon="6.2049">
        <ele>337.88</ele>
        <time>2021-02-18T14:53:41Z</time>
      </trkpt>
      <trkpt lat="47.68366" lon="6.20499">
        <ele>337.9</ele>
        <time>2021-02-18T14:53:44Z</time>
      </trkpt>
      <trkpt lat="47.68372" lon="6.20505">
        <ele>337.91</ele>
        <time>2021-02-18T14:53:45Z</time>
      </trkpt>
      <trkpt lat="47.68378" lon="6.2051">
        <ele>337.93</ele>
        <time>2021-02-18T14:53:46Z</time>
      </trkpt>
      <trkpt lat="47.68385" lon="6.20517">
        <ele>337.94</ele>
        <time>2021-02-18T14:53:48Z</time>
      </trkpt>
      <trkpt lat="47.68391" lon="6.20522">
        <ele>337.94</ele>
        <time>2021-02-18T14:53:49Z</time>
      </trkpt>
      <trkpt lat="47.68397" lon="6.20527">
        <ele>337.9</ele>
        <time>2021-02-18T14:53:51Z</time>
      </trkpt>
      <trkpt lat="47.68402" lon="6.2053">
        <ele>337.91</ele>
        <time>2021-02-18T14:53:52Z</time>
      </trkpt>
      <trkpt lat="47.68407" lon="6.20534">
        <ele>337.91</ele>
        <time>2021-02-18T14:53:53Z</time>
      </trkpt>
      <trkpt lat="47.68411" lon="6.20537">
        <ele>337.86</ele>
        <time>2021-02-18T14:53:54Z</time>
      </trkpt>
      <trkpt lat="47.68421" lon="6.20544">
        <ele>337.88</ele>
        <time>2021-02-18T14:53:57Z</time>
      </trkpt>
      <trkpt lat="47.68427" lon="6.2055">
        <ele>337.9</ele>
        <time>2021-02-18T14:53:57Z</time>
      </trkpt>
      <trkpt lat="47.68432" lon="6.20555">
        <ele>337.9</ele>
        <time>2021-02-18T14:54:01Z</time>
      </trkpt>
      <trkpt lat="47.68437" lon="6.20561">
        <ele>337.85</ele>
        <time>2021-02-18T14:54:03Z</time>
      </trkpt>
      <trkpt lat="47.68444" lon="6.20566">
        <ele>337.87</ele>
        <time>2021-02-18T14:54:05Z</time>
      </trkpt>
      <trkpt lat="47.6845" lon="6.2057">
        <ele>337.87</ele>
        <time>2021-02-18T14:54:05Z</time>
      </trkpt>
      <trkpt lat="47.68454" lon="6.20575">
        <ele>337.88</ele>
        <time>2021-02-18T14:54:07Z</time>
      </trkpt>
      <trkpt lat="47.68458" lon="6.2058">
        <ele>337.91</ele>
        <time>2021-02-18T14:54:12Z</time>
      </trkpt>
      <trkpt lat="47.68466" lon="6.20591">
        <ele>337.93</ele>
        <time>2021-02-18T14:54:13Z</time>
      </trkpt>
      <trkpt lat="47.6847" lon="6.20597">
        <ele>337.86</ele>
        <time>2021-02-18T14:54:15Z</time>
      </trkpt>
      <trkpt lat="47.68474" lon="6.20602">
        <ele>337.83</ele>
        <time>2021-02-18T14:54:19Z</time>
      </trkpt>
      <trkpt lat="47.68481" lon="6.20611">
        <ele>337.79</ele>
        <time>2021-02-18T14:54:22Z</time>
      </trkpt>
      <trkpt lat="47.68491" lon="6.20624">
        <ele>337.76</ele>
        <time>2021-02-18T14:54:25Z</time>
      </trkpt>
      <trkpt lat="47.68494" lon="6.20629">
        <ele>337.8</ele>
        <time>2021-02-18T14:54:27Z</time>
      </trkpt>
      <trkpt lat="47.68498" lon="6.20634">
        <ele>337.82</ele>
        <time>2021-02-18T14:54:28Z</time>
      </trkpt>
      <trkpt lat="47.68504" lon="6.20641">
        <ele>337.87</ele>
        <time>2021-02-18T14:54:30Z</time>
      </trkpt>
      <trkpt lat="47.6851" lon="6.20649">
        <ele>337.79</ele>
        <time>2021-02-18T14:54:30Z</time>
      </trkpt>
      <trkpt lat="47.68515" lon="6.20654">
        <ele>337.7</ele>
        <time>2021-02-18T14:54:35Z</time>
      </trkpt>
      <trkpt lat="47.68519" lon="6.2066">
        <ele>337.66</ele>
        <time>2021-02-18T14:54:36Z</time>
      </trkpt>
      <trkpt lat="47.68523" lon="6.20665">
        <ele>337.69</ele>
        <time>2021-02-18T14:54:38Z</time>
      </trkpt>
      <trkpt lat="47.68529" lon="6.20672">
        <ele>337.69</ele>
        <time>2021-02-18T14:54:40Z</time>
      </trkpt>
      <trkpt lat="47.68533" lon="6.20678">
        <ele>337.68</ele>
        <time>2021-02-18T14:54:42Z</time>
      </trkpt>
      <trkpt lat="47.68537" lon="6.20684">
        <ele>337.64</ele>
        <time>2021-02-18T14:54:44Z</time>
      </trkpt>
      <trkpt lat="47.68541" lon="6.20689">
        <ele>337.68</ele>
        <time>2021-02-18T14:54:46Z</time>
      </trkpt>
      <trkpt lat="47.68547" lon="6.20696">
        <ele>337.74</ele>
        <time>2021-02-18T14:54:49Z</time>
      </trkpt>
      <trkpt lat="47.68552" lon="6.20701">
        <ele>337.75</ele>
        <time>2021-02-18T14:54:50Z</time>
      </trkpt>
      <trkpt lat="47.68556" lon="6.20705">
        <ele>337.75</ele>
        <time>2021-02-18T14:54:52Z</time>
      </trkpt>
      <trkpt lat="47.6856" lon="6.20709">
        <ele>337.74</ele>
        <time>2021-02-18T14:54:53Z</time>
      </trkpt>
      <trkpt lat="47.68563" lon="6.20714">
        <ele>337.82</ele>
        <time>2021-02-18T14:54:57Z</time>
      </trkpt>
      <trkpt lat="47.68567" lon="6.20719">
        <ele>337.82</ele>
        <time>2021-02-18T14:55:00Z</time>
      </trkpt>
      <trkpt lat="47.6857" lon="6.20725">
        <ele>337.81</ele>
        <time>2021-02-18T14:55:01Z</time>
      </trkpt>
      <trkpt lat="47.68573" lon="6.20733">
        <ele>337.8</ele>
        <time>2021-02-18T14:55:05Z</time>
      </trkpt>
      <trkpt lat="47.68577" lon="6.20738">
        <ele>337.77</ele>
        <time>2021-02-18T14:55:07Z</time>
      </trkpt>
      <trkpt lat="47.6858" lon="6.20744">
        <ele>337.74</ele>
        <time>2021-02-18T14:55:08Z</time>
      </trkpt>
      <trkpt lat="47.68584" lon="6.20752">
        <ele>337.82</ele>
        <time>2021-02-18T14:55:10Z</time>
      </trkpt>
      <trkpt lat="47.68587" lon="6.20759">
        <ele>337.83</ele>
        <time>2021-02-18T14:55:12Z</time>
      </trkpt>
      <trkpt lat="47.68591" lon="6.20768">
        <ele>337.85</ele>
        <time>2021-02-18T14:55:13Z</time>
      </trkpt>
      <trkpt lat="47.68594" lon="6.20774">
        <ele>337.82</ele>
        <time>2021-02-18T14:55:14Z</time>
      </trkpt>
      <trkpt lat="47.68597" lon="6.20782">
        <ele>337.81</ele>
        <time>2021-02-18T14:55:16Z</time>
      </trkpt>
      <trkpt lat="47.686" lon="6.20791">
        <ele>337.81</ele>
        <time>2021-02-18T14:55:18Z</time>
      </trkpt>
      <trkpt lat="47.68602" lon="6.20799">
        <ele>337.84</ele>
        <time>2021-02-18T14:55:20Z</time>
      </trkpt>
      <trkpt lat="47.68605" lon="6.20806">
        <ele>337.81</ele>
        <time>2021-02-18T14:55:21Z</time>
      </trkpt>
      <trkpt lat="47.68608" lon="6.20813">
        <ele>337.86</ele>
        <time>2021-02-18T14:55:23Z</time>
      </trkpt>
      <trkpt lat="47.68611" lon="6.20818">
        <ele>337.84</ele>
        <time>2021-02-18T14:55:25Z</time>
      </trkpt>
      <trkpt lat="47.68615" lon="6.20823">
        <ele>337.84</ele>
        <time>2021-02-18T14:55:29Z</time>
      </trkpt>
      <trkpt lat="47.68621" lon="6.20833">
        <ele>337.85</ele>
        <time>2021-02-18T14:55:33Z</time>
      </trkpt>
      <trkpt lat="47.68623" lon="6.20839">
        <ele>337.89</ele>
        <time>2021-02-18T14:55:34Z</time>
      </trkpt>
      <trkpt lat="47.68627" lon="6.20845">
        <ele>337.85</ele>
        <time>2021-02-18T14:55:38Z</time>
      </trkpt>
      <trkpt lat="47.68629" lon="6.20851">
        <ele>337.88</ele>
        <time>2021-02-18T14:55:41Z</time>
      </trkpt>
      <trkpt lat="47.68634" lon="6.20858">
        <ele>337.81</ele>
        <time>2021-02-18T14:55:43Z</time>
      </trkpt>
      <trkpt lat="47.68637" lon="6.20863">
        <ele>337.79</ele>
        <time>2021-02-18T14:55:47Z</time>
      </trkpt>
      <trkpt lat="47.6864" lon="6.20869">
        <ele>337.79</ele>
        <time>2021-02-18T14:55:50Z</time>
      </trkpt>
      <trkpt lat="47.68643" lon="6.20874">
        <ele>337.81</ele>
        <time>2021-02-18T14:55:54Z</time>
      </trkpt>
      <trkpt lat="47.68648" lon="6.20882">
        <ele>337.81</ele>
        <time>2021-02-18T14:55:58Z</time>
      </trkpt>
      <trkpt lat="47.68652" lon="6.20885">
        <ele>341.57</ele>
        <time>2021-02-18T14:56:00Z</time>
      </trkpt>
      <trkpt lat="47.68659" lon="6.2089">
        <ele>342.99</ele>
        <time>2021-02-18T14:56:02Z</time>
      </trkpt>
      <trkpt lat="47.68665" lon="6.20896">
        <ele>343.05</ele>
        <time>2021-02-18T14:56:06Z</time>
      </trkpt>
      <trkpt lat="47.68671" lon="6.20898">
        <ele>343.02</ele>
        <time>2021-02-18T14:56:08Z</time>
      </trkpt>
      <trkpt lat="47.68676" lon="6.20901">
        <ele>342.91</ele>
        <time>2021-02-18T14:56:11Z</time>
      </trkpt>
      <trkpt lat="47.68681" lon="6.20903">
        <ele>342.87</ele>
        <time>2021-02-18T14:56:13Z</time>
      </trkpt>
      <trkpt lat="47.68686" lon="6.20906">
        <ele>342.74</ele>
        <time>2021-02-18T14:56:16Z</time>
      </trkpt>
      <trkpt lat="47.68692" lon="6.20908">
        <ele>342.72</ele>
        <time>2021-02-18T14:56:18Z</time>
      </trkpt>
      <trkpt lat="47.68704" lon="6.20911">
        <ele>342.68</ele>
        <time>2021-02-18T14:56:21Z</time>
      </trkpt>
      <trkpt lat="47.68712" lon="6.20913">
        <ele>342.63</ele>
        <time>2021-02-18T14:56:22Z</time>
      </trkpt>
      <trkpt lat="47.68716" lon="6.20915">
        <ele>342.59</ele>
        <time>2021-02-18T14:56:25Z</time>
      </trkpt>
      <trkpt lat="47.68722" lon="6.20915">
        <ele>342.56</ele>
        <time>2021-02-18T14:56:27Z</time>
      </trkpt>
      <trkpt lat="47.68728" lon="6.20916">
        <ele>342.6</ele>
        <time>2021-02-18T14:56:29Z</time>
      </trkpt>
      <trkpt lat="47.68734" lon="6.20917">
        <ele>342.61</ele>
        <time>2021-02-18T14:56:31Z</time>
      </trkpt>
      <trkpt lat="47.68741" lon="6.20916">
        <ele>342.63</ele>
        <time>2021-02-18T14:56:32Z</time>
      </trkpt>
      <trkpt lat="47.68745" lon="6.20915">
        <ele>342.65</ele>
        <time>2021-02-18T14:56:35Z</time>
      </trkpt>
      <trkpt lat="47.68751" lon="6.20915">
        <ele>342.64</ele>
        <time>2021-02-18T14:56:36Z</time>
      </trkpt>
      <trkpt lat="47.68756" lon="6.20915">
        <ele>342.67</ele>
        <time>2021-02-18T14:56:39Z</time>
      </trkpt>
      <trkpt lat="47.68761" lon="6.20915">
        <ele>342.66</ele>
        <time>2021-02-18T14:56:41Z</time>
      </trkpt>
      <trkpt lat="47.68766" lon="6.20915">
        <ele>342.65</ele>
        <time>2021-02-18T14:56:43Z</time>
      </trkpt>
      <trkpt lat="47.68776" lon="6.20917">
        <ele>342.63</ele>
        <time>2021-02-18T14:56:46Z</time>
      </trkpt>
      <trkpt lat="47.68781" lon="6.20917">
        <ele>342.6</ele>
        <time>2021-02-18T14:56:49Z</time>
      </trkpt>
      <trkpt lat="47.68787" lon="6.2092">
        <ele>342.57</ele>
        <time>2021-02-18T14:56:52Z</time>
      </trkpt>
      <trkpt lat="47.68792" lon="6.20924">
        <ele>342.53</ele>
        <time>2021-02-18T14:56:55Z</time>
      </trkpt>
      <trkpt lat="47.68797" lon="6.20926">
        <ele>342.47</ele>
        <time>2021-02-18T14:56:56Z</time>
      </trkpt>
      <trkpt lat="47.68801" lon="6.20921">
        <ele>338.8</ele>
        <time>2021-02-18T14:57:15Z</time>
      </trkpt>
      <trkpt lat="47.68805" lon="6.20916">
        <ele>338.81</ele>
        <time>2021-02-18T14:57:18Z</time>
      </trkpt>
      <trkpt lat="47.6881" lon="6.20912">
        <ele>339.1</ele>
        <time>2021-02-18T14:57:20Z</time>
      </trkpt>
      <trkpt lat="47.68814" lon="6.20908">
        <ele>339.22</ele>
        <time>2021-02-18T14:57:24Z</time>
      </trkpt>
      <trkpt lat="47.68817" lon="6.20903">
        <ele>339.5</ele>
        <time>2021-02-18T14:57:37Z</time>
      </trkpt>
      <trkpt lat="47.68819" lon="6.20896">
        <ele>339.7</ele>
        <time>2021-02-18T14:57:38Z</time>
      </trkpt>
      <trkpt lat="47.68821" lon="6.20889">
        <ele>339.78</ele>
        <time>2021-02-18T14:57:42Z</time>
      </trkpt>
      <trkpt lat="47.68823" lon="6.20881">
        <ele>339.87</ele>
        <time>2021-02-18T14:57:45Z</time>
      </trkpt>
      <trkpt lat="47.68825" lon="6.20873">
        <ele>339.96</ele>
        <time>2021-02-18T14:57:48Z</time>
      </trkpt>
      <trkpt lat="47.68827" lon="6.20865">
        <ele>340.06</ele>
        <time>2021-02-18T14:57:51Z</time>
      </trkpt>
      <trkpt lat="47.6883" lon="6.20857">
        <ele>340.08</ele>
        <time>2021-02-18T14:57:54Z</time>
      </trkpt>
      <trkpt lat="47.68831" lon="6.20851">
        <ele>340.1</ele>
        <time>2021-02-18T14:57:56Z</time>
      </trkpt>
      <trkpt lat="47.68833" lon="6.20844">
        <ele>340.02</ele>
        <time>2021-02-18T14:57:58Z</time>
      </trkpt>
      <trkpt lat="47.68833" lon="6.20837">
        <ele>340.42</ele>
        <time>2021-02-18T14:58:02Z</time>
      </trkpt>
      <trkpt lat="47.68834" lon="6.20827">
        <ele>340.34</ele>
        <time>2021-02-18T14:58:04Z</time>
      </trkpt>
      <trkpt lat="47.68834" lon="6.2082">
        <ele>340.26</ele>
        <time>2021-02-18T14:58:09Z</time>
      </trkpt>
      <trkpt lat="47.68834" lon="6.20812">
        <ele>340.32</ele>
        <time>2021-02-18T14:58:17Z</time>
      </trkpt>
      <trkpt lat="47.68834" lon="6.20803">
        <ele>340.38</ele>
        <time>2021-02-18T14:58:22Z</time>
      </trkpt>
      <trkpt lat="47.68832" lon="6.20797">
        <ele>340.39</ele>
        <time>2021-02-18T14:58:24Z</time>
      </trkpt>
      <trkpt lat="47.68831" lon="6.2079">
        <ele>340.47</ele>
        <time>2021-02-18T14:58:27Z</time>
      </trkpt>
      <trkpt lat="47.68829" lon="6.20784">
        <ele>340.43</ele>
        <time>2021-02-18T14:58:30Z</time>
      </trkpt>
      <trkpt lat="47.68828" lon="6.20776">
        <ele>340.6</ele>
        <time>2021-02-18T14:58:34Z</time>
      </trkpt>
      <trkpt lat="47.68826" lon="6.2077">
        <ele>340.62</ele>
        <time>2021-02-18T14:58:37Z</time>
      </trkpt>
      <trkpt lat="47.68821" lon="6.20768">
        <ele>340.84</ele>
        <time>2021-02-18T14:58:45Z</time>
      </trkpt>
      <trkpt lat="47.68817" lon="6.20765">
        <ele>341.37</ele>
        <time>2021-02-18T14:58:48Z</time>
      </trkpt>
      <trkpt lat="47.68812" lon="6.20763">
        <ele>341.76</ele>
        <time>2021-02-18T14:58:55Z</time>
      </trkpt>
      <trkpt lat="47.68809" lon="6.20757">
        <ele>342.54</ele>
        <time>2021-02-18T14:59:01Z</time>
      </trkpt>
      <trkpt lat="47.68807" lon="6.20749">
        <ele>342.88</ele>
        <time>2021-02-18T14:59:06Z</time>
      </trkpt>
      <trkpt lat="47.68809" lon="6.20743">
        <ele>343.69</ele>
        <time>2021-02-18T14:59:17Z</time>
      </trkpt>
      <trkpt lat="47.68808" lon="6.20736">
        <ele>226.41</ele>
        <time>2021-02-18T14:59:31Z</time>
      </trkpt>
      <trkpt lat="47.68806" lon="6.20727">
        <ele>226.41</ele>
        <time>2021-02-18T14:59:35Z</time>
      </trkpt>
      <trkpt lat="47.68802" lon="6.20721">
        <ele>226.41</ele>
        <time>2021-02-18T14:59:36Z</time>
      </trkpt>
      <trkpt lat="47.68799" lon="6.20716">
        <ele>226.41</ele>
        <time>2021-02-18T14:59:39Z</time>
      </trkpt>
      <trkpt lat="47.68795" lon="6.20708">
        <ele>226.41</ele>
        <time>2021-02-18T14:59:44Z</time>
      </trkpt>
      <trkpt lat="47.68793" lon="6.20701">
        <ele>226.41</ele>
        <time>2021-02-18T14:59:48Z</time>
      </trkpt>
      <trkpt lat="47.6879" lon="6.20695">
        <ele>226.41</ele>
        <time>2021-02-18T14:59:51Z</time>
      </trkpt>
      <trkpt lat="47.68788" lon="6.20688">
        <ele>226.41</ele>
        <time>2021-02-18T14:59:56Z</time>
      </trkpt>
      <trkpt lat="47.68786" lon="6.2068">
        <ele>226.41</ele>
        <time>2021-02-18T14:59:59Z</time>
      </trkpt>
      <trkpt lat="47.68784" lon="6.20672">
        <ele>226.41</ele>
        <time>2021-02-18T15:00:00Z</time>
      </trkpt>
      <trkpt lat="47.68782" lon="6.20666">
        <ele>226.41</ele>
        <time>2021-02-18T15:00:03Z</time>
      </trkpt>
      <trkpt lat="47.6878" lon="6.20657">
        <ele>226.41</ele>
        <time>2021-02-18T15:00:05Z</time>
      </trkpt>
      <trkpt lat="47.68779" lon="6.20649">
        <ele>226.41</ele>
        <time>2021-02-18T15:00:07Z</time>
      </trkpt>
      <trkpt lat="47.68778" lon="6.20638">
        <ele>226.41</ele>
        <time>2021-02-18T15:00:09Z</time>
      </trkpt>
      <trkpt lat="47.68778" lon="6.20628">
        <ele>226.41</ele>
        <time>2021-02-18T15:00:11Z</time>
      </trkpt>
      <trkpt lat="47.68777" lon="6.20621">
        <ele>226.41</ele>
        <time>2021-02-18T15:00:13Z</time>
      </trkpt>
      <trkpt lat="47.68773" lon="6.20602">
        <ele>226.41</ele>
        <time>2021-02-18T15:00:16Z</time>
      </trkpt>
      <trkpt lat="47.68771" lon="6.20593">
        <ele>226.41</ele>
        <time>2021-02-18T15:00:18Z</time>
      </trkpt>
      <trkpt lat="47.68769" lon="6.20587">
        <ele>226.41</ele>
        <time>2021-02-18T15:00:19Z</time>
      </trkpt>
      <trkpt lat="47.68763" lon="6.20572">
        <ele>226.41</ele>
        <time>2021-02-18T15:00:22Z</time>
      </trkpt>
      <trkpt lat="47.68759" lon="6.20562">
        <ele>226.41</ele>
        <time>2021-02-18T15:00:24Z</time>
      </trkpt>
      <trkpt lat="47.68755" lon="6.20553">
        <ele>226.41</ele>
        <time>2021-02-18T15:00:26Z</time>
      </trkpt>
      <trkpt lat="47.68751" lon="6.20545">
        <ele>226.41</ele>
        <time>2021-02-18T15:00:27Z</time>
      </trkpt>
      <trkpt lat="47.68747" lon="6.20535">
        <ele>226.41</ele>
        <time>2021-02-18T15:00:29Z</time>
      </trkpt>
      <trkpt lat="47.68746" lon="6.20525">
        <ele>226.41</ele>
        <time>2021-02-18T15:00:32Z</time>
      </trkpt>
      <trkpt lat="47.68744" lon="6.20516">
        <ele>226.41</ele>
        <time>2021-02-18T15:00:34Z</time>
      </trkpt>
      <trkpt lat="47.6874" lon="6.20508">
        <ele>226.41</ele>
        <time>2021-02-18T15:00:36Z</time>
      </trkpt>
      <trkpt lat="47.68736" lon="6.205">
        <ele>226.41</ele>
        <time>2021-02-18T15:00:38Z</time>
      </trkpt>
      <trkpt lat="47.68731" lon="6.20489">
        <ele>226.41</ele>
        <time>2021-02-18T15:00:39Z</time>
      </trkpt>
      <trkpt lat="47.68727" lon="6.2048">
        <ele>226.41</ele>
        <time>2021-02-18T15:00:42Z</time>
      </trkpt>
      <trkpt lat="47.68719" lon="6.20467">
        <ele>226.41</ele>
        <time>2021-02-18T15:00:45Z</time>
      </trkpt>
      <trkpt lat="47.68717" lon="6.20461">
        <ele>226.41</ele>
        <time>2021-02-18T15:00:47Z</time>
      </trkpt>
      <trkpt lat="47.68715" lon="6.20455">
        <ele>226.41</ele>
        <time>2021-02-18T15:01:19Z</time>
      </trkpt>
      <trkpt lat="47.68711" lon="6.20453">
        <ele>226.41</ele>
        <time>2021-02-18T15:01:42Z</time>
      </trkpt>
      <trkpt lat="47.68708" lon="6.20446">
        <ele>226.41</ele>
        <time>2021-02-18T15:01:48Z</time>
      </trkpt>
      <trkpt lat="47.68708" lon="6.20438">
        <ele>226.41</ele>
        <time>2021-02-18T15:01:52Z</time>
      </trkpt>
      <trkpt lat="47.687" lon="6.20435">
        <ele>226.41</ele>
        <time>2021-02-18T15:01:53Z</time>
      </trkpt>
      <trkpt lat="47.68684" lon="6.20428">
        <ele>226.41</ele>
        <time>2021-02-18T15:01:56Z</time>
      </trkpt>
      <trkpt lat="47.6868" lon="6.20422">
        <ele>226.41</ele>
        <time>2021-02-18T15:01:59Z</time>
      </trkpt>
      <trkpt lat="47.68678" lon="6.20414">
        <ele>226.41</ele>
        <time>2021-02-18T15:02:01Z</time>
      </trkpt>
      <trkpt lat="47.68676" lon="6.20405">
        <ele>226.41</ele>
        <time>2021-02-18T15:02:03Z</time>
      </trkpt>
      <trkpt lat="47.68675" lon="6.20398">
        <ele>226.41</ele>
        <time>2021-02-18T15:02:05Z</time>
      </trkpt>
      <trkpt lat="47.68673" lon="6.20389">
        <ele>226.41</ele>
        <time>2021-02-18T15:02:07Z</time>
      </trkpt>
      <trkpt lat="47.68671" lon="6.20383">
        <ele>226.41</ele>
        <time>2021-02-18T15:02:09Z</time>
      </trkpt>
      <trkpt lat="47.68669" lon="6.20375">
        <ele>226.41</ele>
        <time>2021-02-18T15:02:14Z</time>
      </trkpt>
      <trkpt lat="47.68661" lon="6.20347">
        <ele>226.41</ele>
        <time>2021-02-18T15:02:17Z</time>
      </trkpt>
      <trkpt lat="47.68659" lon="6.20341">
        <ele>226.41</ele>
        <time>2021-02-18T15:02:20Z</time>
      </trkpt>
      <trkpt lat="47.68657" lon="6.20333">
        <ele>226.41</ele>
        <time>2021-02-18T15:02:21Z</time>
      </trkpt>
      <trkpt lat="47.68658" lon="6.20324">
        <ele>226.41</ele>
        <time>2021-02-18T15:02:24Z</time>
      </trkpt>
      <trkpt lat="47.68656" lon="6.20308">
        <ele>226.41</ele>
        <time>2021-02-18T15:02:28Z</time>
      </trkpt>
      <trkpt lat="47.68655" lon="6.20302">
        <ele>226.41</ele>
        <time>2021-02-18T15:02:29Z</time>
      </trkpt>
      <trkpt lat="47.68649" lon="6.20273">
        <ele>226.41</ele>
        <time>2021-02-18T15:02:31Z</time>
      </trkpt>
      <trkpt lat="47.68647" lon="6.20267">
        <ele>226.41</ele>
        <time>2021-02-18T15:02:35Z</time>
      </trkpt>
      <trkpt lat="47.68646" lon="6.20261">
        <ele>226.41</ele>
        <time>2021-02-18T15:02:37Z</time>
      </trkpt>
      <trkpt lat="47.68644" lon="6.20251">
        <ele>226.41</ele>
        <time>2021-02-18T15:02:39Z</time>
      </trkpt>
      <trkpt lat="47.6864" lon="6.20236">
        <ele>226.41</ele>
        <time>2021-02-18T15:02:41Z</time>
      </trkpt>
      <trkpt lat="47.68637" lon="6.20224">
        <ele>226.41</ele>
        <time>2021-02-18T15:02:43Z</time>
      </trkpt>
      <trkpt lat="47.68634" lon="6.20215">
        <ele>226.41</ele>
        <time>2021-02-18T15:02:44Z</time>
      </trkpt>
      <trkpt lat="47.68631" lon="6.20206">
        <ele>226.41</ele>
        <time>2021-02-18T15:02:46Z</time>
      </trkpt>
      <trkpt lat="47.68627" lon="6.20196">
        <ele>226.41</ele>
        <time>2021-02-18T15:02:47Z</time>
      </trkpt>
      <trkpt lat="47.68622" lon="6.20186">
        <ele>226.41</ele>
        <time>2021-02-18T15:02:49Z</time>
      </trkpt>
      <trkpt lat="47.6862" lon="6.20178">
        <ele>226.41</ele>
        <time>2021-02-18T15:02:50Z</time>
      </trkpt>
      <trkpt lat="47.68618" lon="6.20167">
        <ele>226.41</ele>
        <time>2021-02-18T15:02:52Z</time>
      </trkpt>
      <trkpt lat="47.68617" lon="6.2016">
        <ele>226.41</ele>
        <time>2021-02-18T15:02:54Z</time>
      </trkpt>
      <trkpt lat="47.68615" lon="6.20149">
        <ele>226.41</ele>
        <time>2021-02-18T15:02:55Z</time>
      </trkpt>
      <trkpt lat="47.68613" lon="6.20141">
        <ele>226.41</ele>
        <time>2021-02-18T15:02:58Z</time>
      </trkpt>
      <trkpt lat="47.6861" lon="6.20132">
        <ele>226.41</ele>
        <time>2021-02-18T15:03:00Z</time>
      </trkpt>
      <trkpt lat="47.68604" lon="6.20117">
        <ele>226.41</ele>
        <time>2021-02-18T15:03:03Z</time>
      </trkpt>
      <trkpt lat="47.686" lon="6.20107">
        <ele>226.41</ele>
        <time>2021-02-18T15:03:05Z</time>
      </trkpt>
      <trkpt lat="47.68598" lon="6.20097">
        <ele>226.41</ele>
        <time>2021-02-18T15:03:07Z</time>
      </trkpt>
      <trkpt lat="47.68595" lon="6.2009">
        <ele>226.41</ele>
        <time>2021-02-18T15:03:08Z</time>
      </trkpt>
      <trkpt lat="47.68591" lon="6.20083">
        <ele>226.41</ele>
        <time>2021-02-18T15:03:12Z</time>
      </trkpt>
      <trkpt lat="47.68587" lon="6.20075">
        <ele>226.41</ele>
        <time>2021-02-18T15:03:14Z</time>
      </trkpt>
      <trkpt lat="47.68581" lon="6.20068">
        <ele>226.41</ele>
        <time>2021-02-18T15:03:16Z</time>
      </trkpt>
      <trkpt lat="47.68575" lon="6.2006">
        <ele>226.41</ele>
        <time>2021-02-18T15:03:17Z</time>
      </trkpt>
      <trkpt lat="47.68571" lon="6.20054">
        <ele>226.41</ele>
        <time>2021-02-18T15:03:20Z</time>
      </trkpt>
      <trkpt lat="47.68567" lon="6.20043">
        <ele>226.41</ele>
        <time>2021-02-18T15:03:23Z</time>
      </trkpt>
      <trkpt lat="47.68566" lon="6.20033">
        <ele>226.41</ele>
        <time>2021-02-18T15:03:25Z</time>
      </trkpt>
      <trkpt lat="47.68565" lon="6.20027">
        <ele>226.41</ele>
        <time>2021-02-18T15:03:27Z</time>
      </trkpt>
      <trkpt lat="47.68566" lon="6.2002">
        <ele>226.41</ele>
        <time>2021-02-18T15:03:29Z</time>
      </trkpt>
      <trkpt lat="47.68566" lon="6.20012">
        <ele>226.41</ele>
        <time>2021-02-18T15:03:32Z</time>
      </trkpt>
      <trkpt lat="47.68566" lon="6.20005">
        <ele>226.41</ele>
        <time>2021-02-18T15:03:34Z</time>
      </trkpt>
      <trkpt lat="47.68564" lon="6.19999">
        <ele>226.41</ele>
        <time>2021-02-18T15:03:38Z</time>
      </trkpt>
      <trkpt lat="47.68562" lon="6.19986">
        <ele>226.41</ele>
        <time>2021-02-18T15:03:42Z</time>
      </trkpt>
      <trkpt lat="47.6856" lon="6.19979">
        <ele>226.41</ele>
        <time>2021-02-18T15:03:44Z</time>
      </trkpt>
      <trkpt lat="47.68558" lon="6.19973">
        <ele>226.41</ele>
        <time>2021-02-18T15:03:45Z</time>
      </trkpt>
      <trkpt lat="47.68555" lon="6.19962">
        <ele>226.41</ele>
        <time>2021-02-18T15:03:46Z</time>
      </trkpt>
      <trkpt lat="47.68555" lon="6.19951">
        <ele>226.41</ele>
        <time>2021-02-18T15:03:48Z</time>
      </trkpt>
      <trkpt lat="47.68555" lon="6.19942">
        <ele>226.41</ele>
        <time>2021-02-18T15:03:51Z</time>
      </trkpt>
      <trkpt lat="47.68553" lon="6.1993">
        <ele>226.41</ele>
        <time>2021-02-18T15:03:52Z</time>
      </trkpt>
      <trkpt lat="47.68553" lon="6.19922">
        <ele>226.41</ele>
        <time>2021-02-18T15:03:55Z</time>
      </trkpt>
      <trkpt lat="47.68551" lon="6.19912">
        <ele>226.41</ele>
        <time>2021-02-18T15:03:57Z</time>
      </trkpt>
      <trkpt lat="47.68551" lon="6.19903">
        <ele>226.41</ele>
        <time>2021-02-18T15:03:59Z</time>
      </trkpt>
      <trkpt lat="47.6855" lon="6.19893">
        <ele>226.41</ele>
        <time>2021-02-18T15:04:01Z</time>
      </trkpt>
      <trkpt lat="47.6855" lon="6.19886">
        <ele>226.41</ele>
        <time>2021-02-18T15:04:02Z</time>
      </trkpt>
      <trkpt lat="47.6855" lon="6.19877">
        <ele>226.41</ele>
        <time>2021-02-18T15:04:03Z</time>
      </trkpt>
      <trkpt lat="47.6855" lon="6.19867">
        <ele>226.41</ele>
        <time>2021-02-18T15:04:07Z</time>
      </trkpt>
      <trkpt lat="47.68549" lon="6.19857">
        <ele>226.41</ele>
        <time>2021-02-18T15:04:09Z</time>
      </trkpt>
      <trkpt lat="47.68549" lon="6.19846">
        <ele>226.41</ele>
        <time>2021-02-18T15:04:11Z</time>
      </trkpt>
      <trkpt lat="47.68549" lon="6.19836">
        <ele>226.41</ele>
        <time>2021-02-18T15:04:13Z</time>
      </trkpt>
      <trkpt lat="47.6855" lon="6.19828">
        <ele>226.41</ele>
        <time>2021-02-18T15:04:15Z</time>
      </trkpt>
      <trkpt lat="47.6855" lon="6.19821">
        <ele>226.41</ele>
        <time>2021-02-18T15:04:18Z</time>
      </trkpt>
      <trkpt lat="47.68549" lon="6.19813">
        <ele>226.41</ele>
        <time>2021-02-18T15:04:21Z</time>
      </trkpt>
      <trkpt lat="47.68546" lon="6.19807">
        <ele>226.41</ele>
        <time>2021-02-18T15:04:25Z</time>
      </trkpt>
      <trkpt lat="47.68543" lon="6.19803">
        <ele>226.41</ele>
        <time>2021-02-18T15:04:33Z</time>
      </trkpt>
      <trkpt lat="47.68538" lon="6.19797">
        <ele>226.3</ele>
        <time>2021-02-18T15:04:37Z</time>
      </trkpt>
      <trkpt lat="47.68533" lon="6.19792">
        <ele>226.29</ele>
        <time>2021-02-18T15:04:39Z</time>
      </trkpt>
      <trkpt lat="47.68528" lon="6.19791">
        <ele>226.29</ele>
        <time>2021-02-18T15:04:41Z</time>
      </trkpt>
      <trkpt lat="47.68524" lon="6.19787">
        <ele>226.29</ele>
        <time>2021-02-18T15:04:45Z</time>
      </trkpt>
      <trkpt lat="47.68522" lon="6.19781">
        <ele>226.26</ele>
        <time>2021-02-18T15:04:48Z</time>
      </trkpt>
      <trkpt lat="47.68519" lon="6.19775">
        <ele>226.28</ele>
        <time>2021-02-18T15:04:52Z</time>
      </trkpt>
      <trkpt lat="47.68519" lon="6.19767">
        <ele>226.24</ele>
        <time>2021-02-18T15:04:55Z</time>
      </trkpt>
      <trkpt lat="47.68519" lon="6.19758">
        <ele>226.28</ele>
        <time>2021-02-18T15:05:03Z</time>
      </trkpt>
      <trkpt lat="47.68517" lon="6.19752">
        <ele>226.16</ele>
        <time>2021-02-18T15:05:05Z</time>
      </trkpt>
      <trkpt lat="47.68514" lon="6.19746">
        <ele>226.2</ele>
        <time>2021-02-18T15:05:09Z</time>
      </trkpt>
      <trkpt lat="47.68511" lon="6.19741">
        <ele>226.29</ele>
        <time>2021-02-18T15:05:14Z</time>
      </trkpt>
      <trkpt lat="47.68508" lon="6.19733">
        <ele>226.27</ele>
        <time>2021-02-18T15:05:16Z</time>
      </trkpt>
      <trkpt lat="47.68505" lon="6.19726">
        <ele>226.31</ele>
        <time>2021-02-18T15:05:20Z</time>
      </trkpt>
      <trkpt lat="47.68502" lon="6.1972">
        <ele>226.32</ele>
        <time>2021-02-18T15:05:23Z</time>
      </trkpt>
      <trkpt lat="47.68498" lon="6.19715">
        <ele>226.53</ele>
        <time>2021-02-18T15:05:27Z</time>
      </trkpt>
      <trkpt lat="47.68495" lon="6.19708">
        <ele>226.66</ele>
        <time>2021-02-18T15:05:32Z</time>
      </trkpt>
      <trkpt lat="47.68492" lon="6.197">
        <ele>226.87</ele>
        <time>2021-02-18T15:05:35Z</time>
      </trkpt>
      <trkpt lat="47.68489" lon="6.19693">
        <ele>226.96</ele>
        <time>2021-02-18T15:05:39Z</time>
      </trkpt>
      <trkpt lat="47.68485" lon="6.19688">
        <ele>226.89</ele>
        <time>2021-02-18T15:05:45Z</time>
      </trkpt>
      <trkpt lat="47.68482" lon="6.19683">
        <ele>227.11</ele>
        <time>2021-02-18T15:05:47Z</time>
      </trkpt>
      <trkpt lat="47.68478" lon="6.19678">
        <ele>227.34</ele>
        <time>2021-02-18T15:05:51Z</time>
      </trkpt>
      <trkpt lat="47.68475" lon="6.19673">
        <ele>227.44</ele>
        <time>2021-02-18T15:05:57Z</time>
      </trkpt>
      <trkpt lat="47.6847" lon="6.19669">
        <ele>227.42</ele>
        <time>2021-02-18T15:05:59Z</time>
      </trkpt>
      <trkpt lat="47.68467" lon="6.1966">
        <ele>227.68</ele>
        <time>2021-02-18T15:06:00Z</time>
      </trkpt>
      <trkpt lat="47.68464" lon="6.19653">
        <ele>227.76</ele>
        <time>2021-02-18T15:06:05Z</time>
      </trkpt>
      <trkpt lat="47.68462" lon="6.19645">
        <ele>227.8</ele>
        <time>2021-02-18T15:06:09Z</time>
      </trkpt>
      <trkpt lat="47.68462" lon="6.19637">
        <ele>227.89</ele>
        <time>2021-02-18T15:06:09Z</time>
      </trkpt>
      <trkpt lat="47.68461" lon="6.19629">
        <ele>227.93</ele>
        <time>2021-02-18T15:06:14Z</time>
      </trkpt>
      <trkpt lat="47.68459" lon="6.1962">
        <ele>228.35</ele>
        <time>2021-02-18T15:06:15Z</time>
      </trkpt>
      <trkpt lat="47.68458" lon="6.19612">
        <ele>228.36</ele>
        <time>2021-02-18T15:06:20Z</time>
      </trkpt>
      <trkpt lat="47.68457" lon="6.19605">
        <ele>228.53</ele>
        <time>2021-02-18T15:06:23Z</time>
      </trkpt>
      <trkpt lat="47.68455" lon="6.19598">
        <ele>229.05</ele>
        <time>2021-02-18T15:06:28Z</time>
      </trkpt>
      <trkpt lat="47.68454" lon="6.19591">
        <ele>229.29</ele>
        <time>2021-02-18T15:06:32Z</time>
      </trkpt>
      <trkpt lat="47.68453" lon="6.19583">
        <ele>229.61</ele>
        <time>2021-02-18T15:06:34Z</time>
      </trkpt>
      <trkpt lat="47.68451" lon="6.19576">
        <ele>230.19</ele>
        <time>2021-02-18T15:06:41Z</time>
      </trkpt>
      <trkpt lat="47.68449" lon="6.1957">
        <ele>230.42</ele>
        <time>2021-02-18T15:06:45Z</time>
      </trkpt>
      <trkpt lat="47.68446" lon="6.19563">
        <ele>230.77</ele>
        <time>2021-02-18T15:06:48Z</time>
      </trkpt>
      <trkpt lat="47.68445" lon="6.19557">
        <ele>231.03</ele>
        <time>2021-02-18T15:06:52Z</time>
      </trkpt>
      <trkpt lat="47.68442" lon="6.19549">
        <ele>231.47</ele>
        <time>2021-02-18T15:06:56Z</time>
      </trkpt>
      <trkpt lat="47.6844" lon="6.19541">
        <ele>231.65</ele>
        <time>2021-02-18T15:07:02Z</time>
      </trkpt>
      <trkpt lat="47.68438" lon="6.19534">
        <ele>226.55</ele>
        <time>2021-02-18T15:07:05Z</time>
      </trkpt>
      <trkpt lat="47.68435" lon="6.19527">
        <ele>226.41</ele>
        <time>2021-02-18T15:07:06Z</time>
      </trkpt>
      <trkpt lat="47.68433" lon="6.1952">
        <ele>226.41</ele>
        <time>2021-02-18T15:07:09Z</time>
      </trkpt>
      <trkpt lat="47.68431" lon="6.19514">
        <ele>226.41</ele>
        <time>2021-02-18T15:07:15Z</time>
      </trkpt>
      <trkpt lat="47.68428" lon="6.19507">
        <ele>226.41</ele>
        <time>2021-02-18T15:07:21Z</time>
      </trkpt>
      <trkpt lat="47.68426" lon="6.19501">
        <ele>226.6</ele>
        <time>2021-02-18T15:07:25Z</time>
      </trkpt>
      <trkpt lat="47.68423" lon="6.19494">
        <ele>226.95</ele>
        <time>2021-02-18T15:07:28Z</time>
      </trkpt>
      <trkpt lat="47.68422" lon="6.19486">
        <ele>227.23</ele>
        <time>2021-02-18T15:07:37Z</time>
      </trkpt>
      <trkpt lat="47.6842" lon="6.19479">
        <ele>227.81</ele>
        <time>2021-02-18T15:07:39Z</time>
      </trkpt>
      <trkpt lat="47.68418" lon="6.19472">
        <ele>228.28</ele>
        <time>2021-02-18T15:07:42Z</time>
      </trkpt>
      <trkpt lat="47.68416" lon="6.19466">
        <ele>228.65</ele>
        <time>2021-02-18T15:07:46Z</time>
      </trkpt>
      <trkpt lat="47.68414" lon="6.19458">
        <ele>228.93</ele>
        <time>2021-02-18T15:07:53Z</time>
      </trkpt>
      <trkpt lat="47.68412" lon="6.19452">
        <ele>229.03</ele>
        <time>2021-02-18T15:07:56Z</time>
      </trkpt>
      <trkpt lat="47.6841" lon="6.19446">
        <ele>229.48</ele>
        <time>2021-02-18T15:07:59Z</time>
      </trkpt>
      <trkpt lat="47.68407" lon="6.19441">
        <ele>229.49</ele>
        <time>2021-02-18T15:08:01Z</time>
      </trkpt>
      <trkpt lat="47.68401" lon="6.19432">
        <ele>229.73</ele>
        <time>2021-02-18T15:08:04Z</time>
      </trkpt>
      <trkpt lat="47.68396" lon="6.19428">
        <ele>229.97</ele>
        <time>2021-02-18T15:08:07Z</time>
      </trkpt>
      <trkpt lat="47.68392" lon="6.19423">
        <ele>230.16</ele>
        <time>2021-02-18T15:08:09Z</time>
      </trkpt>
      <trkpt lat="47.68387" lon="6.19421">
        <ele>230.2</ele>
        <time>2021-02-18T15:08:15Z</time>
      </trkpt>
      <trkpt lat="47.68383" lon="6.19419">
        <ele>230.38</ele>
        <time>2021-02-18T15:08:19Z</time>
      </trkpt>
      <trkpt lat="47.68377" lon="6.19416">
        <ele>230.7</ele>
        <time>2021-02-18T15:08:23Z</time>
      </trkpt>
      <trkpt lat="47.68372" lon="6.19413">
        <ele>230.95</ele>
        <time>2021-02-18T15:08:27Z</time>
      </trkpt>
      <trkpt lat="47.68367" lon="6.19412">
        <ele>230.98</ele>
        <time>2021-02-18T15:08:31Z</time>
      </trkpt>
      <trkpt lat="47.68361" lon="6.19412">
        <ele>231.3</ele>
        <time>2021-02-18T15:08:35Z</time>
      </trkpt>
      <trkpt lat="47.68356" lon="6.1941">
        <ele>231.5</ele>
        <time>2021-02-18T15:08:36Z</time>
      </trkpt>
      <trkpt lat="47.68351" lon="6.1941">
        <ele>231.66</ele>
        <time>2021-02-18T15:08:42Z</time>
      </trkpt>
      <trkpt lat="47.68346" lon="6.19411">
        <ele>232.09</ele>
        <time>2021-02-18T15:08:44Z</time>
      </trkpt>
      <trkpt lat="47.68341" lon="6.19413">
        <ele>232.66</ele>
        <time>2021-02-18T15:08:48Z</time>
      </trkpt>
      <trkpt lat="47.68337" lon="6.19416">
        <ele>232.77</ele>
        <time>2021-02-18T15:08:54Z</time>
      </trkpt>
      <trkpt lat="47.68332" lon="6.19418">
        <ele>232.74</ele>
        <time>2021-02-18T15:08:57Z</time>
      </trkpt>
      <trkpt lat="47.68327" lon="6.19419">
        <ele>233.23</ele>
        <time>2021-02-18T15:09:01Z</time>
      </trkpt>
      <trkpt lat="47.68321" lon="6.19419">
        <ele>233.68</ele>
        <time>2021-02-18T15:09:04Z</time>
      </trkpt>
      <trkpt lat="47.68315" lon="6.1942">
        <ele>233.72</ele>
        <time>2021-02-18T15:09:07Z</time>
      </trkpt>
      <trkpt lat="47.6831" lon="6.19423">
        <ele>234.19</ele>
        <time>2021-02-18T15:09:10Z</time>
      </trkpt>
      <trkpt lat="47.68304" lon="6.19424">
        <ele>234.39</ele>
        <time>2021-02-18T15:09:13Z</time>
      </trkpt>
      <trkpt lat="47.68299" lon="6.19424">
        <ele>234.44</ele>
        <time>2021-02-18T15:09:15Z</time>
      </trkpt>
      <trkpt lat="47.68293" lon="6.19423">
        <ele>234.71</ele>
        <time>2021-02-18T15:09:19Z</time>
      </trkpt>
      <trkpt lat="47.68287" lon="6.1942">
        <ele>234.86</ele>
        <time>2021-02-18T15:09:21Z</time>
      </trkpt>
      <trkpt lat="47.68283" lon="6.19417">
        <ele>234.94</ele>
        <time>2021-02-18T15:09:23Z</time>
      </trkpt>
      <trkpt lat="47.68278" lon="6.19412">
        <ele>234.94</ele>
        <time>2021-02-18T15:09:25Z</time>
      </trkpt>
      <trkpt lat="47.68275" lon="6.19407">
        <ele>234.94</ele>
        <time>2021-02-18T15:09:27Z</time>
      </trkpt>
      <trkpt lat="47.68271" lon="6.19401">
        <ele>234.94</ele>
        <time>2021-02-18T15:09:29Z</time>
      </trkpt>
      <trkpt lat="47.68268" lon="6.19394">
        <ele>234.92</ele>
        <time>2021-02-18T15:09:31Z</time>
      </trkpt>
      <trkpt lat="47.68266" lon="6.19388">
        <ele>234.9</ele>
        <time>2021-02-18T15:09:33Z</time>
      </trkpt>
      <trkpt lat="47.68262" lon="6.19372">
        <ele>235.01</ele>
        <time>2021-02-18T15:09:36Z</time>
      </trkpt>
      <trkpt lat="47.6826" lon="6.19364">
        <ele>235</ele>
        <time>2021-02-18T15:09:38Z</time>
      </trkpt>
      <trkpt lat="47.68255" lon="6.1935">
        <ele>234.96</ele>
        <time>2021-02-18T15:09:41Z</time>
      </trkpt>
      <trkpt lat="47.68252" lon="6.19342">
        <ele>234.98</ele>
        <time>2021-02-18T15:09:43Z</time>
      </trkpt>
      <trkpt lat="47.6825" lon="6.19335">
        <ele>234.98</ele>
        <time>2021-02-18T15:09:44Z</time>
      </trkpt>
      <trkpt lat="47.68246" lon="6.19323">
        <ele>235.01</ele>
        <time>2021-02-18T15:09:47Z</time>
      </trkpt>
      <trkpt lat="47.68243" lon="6.19315">
        <ele>234.96</ele>
        <time>2021-02-18T15:09:49Z</time>
      </trkpt>
      <trkpt lat="47.68241" lon="6.19309">
        <ele>234.95</ele>
        <time>2021-02-18T15:09:50Z</time>
      </trkpt>
      <trkpt lat="47.68238" lon="6.19301">
        <ele>234.9</ele>
        <time>2021-02-18T15:09:50Z</time>
      </trkpt>
      <trkpt lat="47.68236" lon="6.19294">
        <ele>234.92</ele>
        <time>2021-02-18T15:09:55Z</time>
      </trkpt>
      <trkpt lat="47.68234" lon="6.19286">
        <ele>234.89</ele>
        <time>2021-02-18T15:09:57Z</time>
      </trkpt>
      <trkpt lat="47.68231" lon="6.19279">
        <ele>234.92</ele>
        <time>2021-02-18T15:10:00Z</time>
      </trkpt>
      <trkpt lat="47.68228" lon="6.19271">
        <ele>234.92</ele>
        <time>2021-02-18T15:10:03Z</time>
      </trkpt>
      <trkpt lat="47.68226" lon="6.19262">
        <ele>234.98</ele>
        <time>2021-02-18T15:10:04Z</time>
      </trkpt>
      <trkpt lat="47.68224" lon="6.19256">
        <ele>235</ele>
        <time>2021-02-18T15:10:08Z</time>
      </trkpt>
      <trkpt lat="47.68221" lon="6.1925">
        <ele>235.02</ele>
        <time>2021-02-18T15:10:10Z</time>
      </trkpt>
      <trkpt lat="47.68219" lon="6.19243">
        <ele>235.03</ele>
        <time>2021-02-18T15:10:10Z</time>
      </trkpt>
      <trkpt lat="47.68216" lon="6.19236">
        <ele>235.03</ele>
        <time>2021-02-18T15:10:15Z</time>
      </trkpt>
      <trkpt lat="47.68214" lon="6.19228">
        <ele>235.05</ele>
        <time>2021-02-18T15:10:15Z</time>
      </trkpt>
      <trkpt lat="47.68212" lon="6.19222">
        <ele>235.06</ele>
        <time>2021-02-18T15:10:19Z</time>
      </trkpt>
      <trkpt lat="47.6821" lon="6.19215">
        <ele>235.02</ele>
        <time>2021-02-18T15:10:21Z</time>
      </trkpt>
      <trkpt lat="47.68208" lon="6.19206">
        <ele>234.96</ele>
        <time>2021-02-18T15:10:23Z</time>
      </trkpt>
      <trkpt lat="47.68205" lon="6.192">
        <ele>234.92</ele>
        <time>2021-02-18T15:10:23Z</time>
      </trkpt>
      <trkpt lat="47.68203" lon="6.19194">
        <ele>234.92</ele>
        <time>2021-02-18T15:10:27Z</time>
      </trkpt>
      <trkpt lat="47.682" lon="6.19185">
        <ele>234.91</ele>
        <time>2021-02-18T15:10:29Z</time>
      </trkpt>
      <trkpt lat="47.68198" lon="6.19179">
        <ele>234.94</ele>
        <time>2021-02-18T15:10:31Z</time>
      </trkpt>
      <trkpt lat="47.68195" lon="6.19169">
        <ele>234.96</ele>
        <time>2021-02-18T15:10:33Z</time>
      </trkpt>
      <trkpt lat="47.68194" lon="6.19162">
        <ele>234.96</ele>
        <time>2021-02-18T15:10:35Z</time>
      </trkpt>
      <trkpt lat="47.68192" lon="6.19152">
        <ele>234.97</ele>
        <time>2021-02-18T15:10:37Z</time>
      </trkpt>
      <trkpt lat="47.6819" lon="6.19141">
        <ele>234.97</ele>
        <time>2021-02-18T15:10:37Z</time>
      </trkpt>
      <trkpt lat="47.68189" lon="6.19134">
        <ele>234.98</ele>
        <time>2021-02-18T15:10:41Z</time>
      </trkpt>
      <trkpt lat="47.68187" lon="6.19125">
        <ele>234.98</ele>
        <time>2021-02-18T15:10:41Z</time>
      </trkpt>
      <trkpt lat="47.68186" lon="6.19117">
        <ele>234.98</ele>
        <time>2021-02-18T15:10:46Z</time>
      </trkpt>
      <trkpt lat="47.68184" lon="6.1911">
        <ele>235.02</ele>
        <time>2021-02-18T15:10:47Z</time>
      </trkpt>
      <trkpt lat="47.68182" lon="6.19102">
        <ele>234.99</ele>
        <time>2021-02-18T15:10:50Z</time>
      </trkpt>
      <trkpt lat="47.68181" lon="6.19094">
        <ele>234.99</ele>
        <time>2021-02-18T15:10:51Z</time>
      </trkpt>
      <trkpt lat="47.68181" lon="6.19084">
        <ele>234.98</ele>
        <time>2021-02-18T15:10:54Z</time>
      </trkpt>
      <trkpt lat="47.68179" lon="6.19076">
        <ele>234.96</ele>
        <time>2021-02-18T15:10:56Z</time>
      </trkpt>
      <trkpt lat="47.68176" lon="6.19066">
        <ele>234.91</ele>
        <time>2021-02-18T15:10:58Z</time>
      </trkpt>
      <trkpt lat="47.68174" lon="6.1906">
        <ele>234.91</ele>
        <time>2021-02-18T15:10:59Z</time>
      </trkpt>
      <trkpt lat="47.68172" lon="6.19051">
        <ele>234.91</ele>
        <time>2021-02-18T15:11:01Z</time>
      </trkpt>
      <trkpt lat="47.68169" lon="6.19043">
        <ele>234.91</ele>
        <time>2021-02-18T15:11:02Z</time>
      </trkpt>
      <trkpt lat="47.68167" lon="6.19037">
        <ele>234.91</ele>
        <time>2021-02-18T15:11:03Z</time>
      </trkpt>
      <trkpt lat="47.68162" lon="6.19019">
        <ele>234.98</ele>
        <time>2021-02-18T15:11:06Z</time>
      </trkpt>
      <trkpt lat="47.6816" lon="6.19012">
        <ele>235.01</ele>
        <time>2021-02-18T15:11:08Z</time>
      </trkpt>
      <trkpt lat="47.68158" lon="6.19004">
        <ele>234.98</ele>
        <time>2021-02-18T15:11:09Z</time>
      </trkpt>
      <trkpt lat="47.68156" lon="6.18994">
        <ele>234.98</ele>
        <time>2021-02-18T15:11:09Z</time>
      </trkpt>
      <trkpt lat="47.68155" lon="6.18987">
        <ele>234.98</ele>
        <time>2021-02-18T15:11:13Z</time>
      </trkpt>
      <trkpt lat="47.68152" lon="6.18979">
        <ele>234.98</ele>
        <time>2021-02-18T15:11:15Z</time>
      </trkpt>
      <trkpt lat="47.68149" lon="6.18972">
        <ele>234.97</ele>
        <time>2021-02-18T15:11:15Z</time>
      </trkpt>
      <trkpt lat="47.68147" lon="6.18964">
        <ele>235.02</ele>
        <time>2021-02-18T15:11:20Z</time>
      </trkpt>
      <trkpt lat="47.68145" lon="6.18957">
        <ele>235.14</ele>
        <time>2021-02-18T15:11:25Z</time>
      </trkpt>
      <trkpt lat="47.68143" lon="6.1895">
        <ele>235.22</ele>
        <time>2021-02-18T15:11:28Z</time>
      </trkpt>
      <trkpt lat="47.68141" lon="6.18944">
        <ele>235.15</ele>
        <time>2021-02-18T15:11:31Z</time>
      </trkpt>
      <trkpt lat="47.68138" lon="6.18938">
        <ele>235.17</ele>
        <time>2021-02-18T15:11:34Z</time>
      </trkpt>
      <trkpt lat="47.68135" lon="6.18932">
        <ele>235.13</ele>
        <time>2021-02-18T15:11:36Z</time>
      </trkpt>
      <trkpt lat="47.68131" lon="6.1892">
        <ele>235.05</ele>
        <time>2021-02-18T15:11:37Z</time>
      </trkpt>
      <trkpt lat="47.68129" lon="6.18912">
        <ele>235.03</ele>
        <time>2021-02-18T15:11:42Z</time>
      </trkpt>
      <trkpt lat="47.68127" lon="6.18904">
        <ele>235.05</ele>
        <time>2021-02-18T15:11:45Z</time>
      </trkpt>
      <trkpt lat="47.68126" lon="6.18896">
        <ele>235.08</ele>
        <time>2021-02-18T15:11:49Z</time>
      </trkpt>
      <trkpt lat="47.68124" lon="6.18889">
        <ele>235.07</ele>
        <time>2021-02-18T15:11:50Z</time>
      </trkpt>
      <trkpt lat="47.68121" lon="6.18883">
        <ele>235.06</ele>
        <time>2021-02-18T15:11:56Z</time>
      </trkpt>
      <trkpt lat="47.68119" lon="6.18875">
        <ele>235.08</ele>
        <time>2021-02-18T15:11:59Z</time>
      </trkpt>
      <trkpt lat="47.68117" lon="6.18868">
        <ele>235.11</ele>
        <time>2021-02-18T15:12:02Z</time>
      </trkpt>
      <trkpt lat="47.68114" lon="6.1886">
        <ele>235.11</ele>
        <time>2021-02-18T15:12:04Z</time>
      </trkpt>
      <trkpt lat="47.68113" lon="6.18853">
        <ele>235.06</ele>
        <time>2021-02-18T15:12:06Z</time>
      </trkpt>
      <trkpt lat="47.68111" lon="6.18847">
        <ele>225.17</ele>
        <time>2021-02-18T15:12:09Z</time>
      </trkpt>
      <trkpt lat="47.68108" lon="6.18837">
        <ele>224.22</ele>
        <time>2021-02-18T15:12:12Z</time>
      </trkpt>
      <trkpt lat="47.68105" lon="6.18829">
        <ele>224.24</ele>
        <time>2021-02-18T15:12:14Z</time>
      </trkpt>
      <trkpt lat="47.68103" lon="6.18821">
        <ele>224.29</ele>
        <time>2021-02-18T15:12:17Z</time>
      </trkpt>
      <trkpt lat="47.68101" lon="6.18815">
        <ele>224.24</ele>
        <time>2021-02-18T15:12:19Z</time>
      </trkpt>
      <trkpt lat="47.68099" lon="6.18805">
        <ele>224.21</ele>
        <time>2021-02-18T15:12:22Z</time>
      </trkpt>
      <trkpt lat="47.68098" lon="6.18797">
        <ele>224.16</ele>
        <time>2021-02-18T15:12:25Z</time>
      </trkpt>
      <trkpt lat="47.68097" lon="6.18789">
        <ele>221.75</ele>
        <time>2021-02-18T15:12:27Z</time>
      </trkpt>
      <trkpt lat="47.68096" lon="6.18782">
        <ele>221.02</ele>
        <time>2021-02-18T15:12:34Z</time>
      </trkpt>
      <trkpt lat="47.68095" lon="6.18775">
        <ele>220.02</ele>
        <time>2021-02-18T15:12:42Z</time>
      </trkpt>
      <trkpt lat="47.68094" lon="6.18766">
        <ele>219.88</ele>
        <time>2021-02-18T15:12:50Z</time>
      </trkpt>
      <trkpt lat="47.68094" lon="6.18758">
        <ele>219.41</ele>
        <time>2021-02-18T15:12:55Z</time>
      </trkpt>
      <trkpt lat="47.68089" lon="6.18753">
        <ele>218.82</ele>
        <time>2021-02-18T15:12:58Z</time>
      </trkpt>
      <trkpt lat="47.68086" lon="6.18748">
        <ele>218.51</ele>
        <time>2021-02-18T15:13:05Z</time>
      </trkpt>
      <trkpt lat="47.68083" lon="6.18741">
        <ele>217.68</ele>
        <time>2021-02-18T15:13:12Z</time>
      </trkpt>
      <trkpt lat="47.68081" lon="6.18736">
        <ele>217.25</ele>
        <time>2021-02-18T15:13:17Z</time>
      </trkpt>
      <trkpt lat="47.68077" lon="6.18733">
        <ele>216.47</ele>
        <time>2021-02-18T15:13:29Z</time>
      </trkpt>
      <trkpt lat="47.6807" lon="6.18736">
        <ele>216.22</ele>
        <time>2021-02-18T15:13:31Z</time>
      </trkpt>
      <trkpt lat="47.68066" lon="6.18742">
        <ele>216.16</ele>
        <time>2021-02-18T15:13:35Z</time>
      </trkpt>
      <trkpt lat="47.6806" lon="6.18747">
        <ele>215.42</ele>
        <time>2021-02-18T15:13:38Z</time>
      </trkpt>
      <trkpt lat="47.68056" lon="6.1875">
        <ele>215.23</ele>
        <time>2021-02-18T15:13:40Z</time>
      </trkpt>
      <trkpt lat="47.68051" lon="6.18754">
        <ele>215.22</ele>
        <time>2021-02-18T15:13:43Z</time>
      </trkpt>
      <trkpt lat="47.68046" lon="6.18758">
        <ele>215.22</ele>
        <time>2021-02-18T15:13:46Z</time>
      </trkpt>
      <trkpt lat="47.68042" lon="6.1876">
        <ele>215.24</ele>
        <time>2021-02-18T15:13:48Z</time>
      </trkpt>
      <trkpt lat="47.68037" lon="6.18763">
        <ele>215.2</ele>
        <time>2021-02-18T15:13:51Z</time>
      </trkpt>
      <trkpt lat="47.68029" lon="6.18764">
        <ele>215.17</ele>
        <time>2021-02-18T15:13:53Z</time>
      </trkpt>
      <trkpt lat="47.68024" lon="6.18763">
        <ele>215.23</ele>
        <time>2021-02-18T15:13:57Z</time>
      </trkpt>
      <trkpt lat="47.6802" lon="6.18766">
        <ele>210.93</ele>
        <time>2021-02-18T15:14:12Z</time>
      </trkpt>
      <trkpt lat="47.68016" lon="6.18769">
        <ele>210.37</ele>
        <time>2021-02-18T15:14:13Z</time>
      </trkpt>
      <trkpt lat="47.68011" lon="6.18771">
        <ele>210.23</ele>
        <time>2021-02-18T15:14:18Z</time>
      </trkpt>
      <trkpt lat="47.68006" lon="6.18773">
        <ele>209.99</ele>
        <time>2021-02-18T15:14:21Z</time>
      </trkpt>
      <trkpt lat="47.68001" lon="6.18775">
        <ele>209.95</ele>
        <time>2021-02-18T15:14:21Z</time>
      </trkpt>
      <trkpt lat="47.67996" lon="6.18778">
        <ele>209.83</ele>
        <time>2021-02-18T15:14:26Z</time>
      </trkpt>
      <trkpt lat="47.6799" lon="6.18781">
        <ele>209.83</ele>
        <time>2021-02-18T15:14:27Z</time>
      </trkpt>
      <trkpt lat="47.67983" lon="6.18786">
        <ele>209.65</ele>
        <time>2021-02-18T15:14:33Z</time>
      </trkpt>
      <trkpt lat="47.67978" lon="6.18789">
        <ele>209.6</ele>
        <time>2021-02-18T15:14:36Z</time>
      </trkpt>
      <trkpt lat="47.67973" lon="6.18793">
        <ele>209.53</ele>
        <time>2021-02-18T15:14:39Z</time>
      </trkpt>
      <trkpt lat="47.67968" lon="6.18797">
        <ele>209.3</ele>
        <time>2021-02-18T15:14:39Z</time>
      </trkpt>
      <trkpt lat="47.67963" lon="6.18801">
        <ele>209.18</ele>
        <time>2021-02-18T15:14:41Z</time>
      </trkpt>
      <trkpt lat="47.67958" lon="6.18804">
        <ele>208.87</ele>
        <time>2021-02-18T15:14:46Z</time>
      </trkpt>
      <trkpt lat="47.67953" lon="6.18806">
        <ele>208.67</ele>
        <time>2021-02-18T15:14:48Z</time>
      </trkpt>
      <trkpt lat="47.67948" lon="6.18809">
        <ele>208.51</ele>
        <time>2021-02-18T15:14:50Z</time>
      </trkpt>
      <trkpt lat="47.67943" lon="6.18812">
        <ele>208.47</ele>
        <time>2021-02-18T15:14:52Z</time>
      </trkpt>
      <trkpt lat="47.67939" lon="6.18814">
        <ele>208.41</ele>
        <time>2021-02-18T15:14:55Z</time>
      </trkpt>
      <trkpt lat="47.67934" lon="6.18816">
        <ele>207.38</ele>
        <time>2021-02-18T15:14:55Z</time>
      </trkpt>
      <trkpt lat="47.67929" lon="6.18818">
        <ele>207.36</ele>
        <time>2021-02-18T15:15:00Z</time>
      </trkpt>
      <trkpt lat="47.67923" lon="6.18821">
        <ele>206.7</ele>
        <time>2021-02-18T15:15:03Z</time>
      </trkpt>
      <trkpt lat="47.67918" lon="6.18823">
        <ele>206.65</ele>
        <time>2021-02-18T15:15:05Z</time>
      </trkpt>
      <trkpt lat="47.67914" lon="6.18823">
        <ele>206.65</ele>
        <time>2021-02-18T15:15:06Z</time>
      </trkpt>
      <trkpt lat="47.67909" lon="6.18821">
        <ele>206.67</ele>
        <time>2021-02-18T15:15:08Z</time>
      </trkpt>
      <trkpt lat="47.67899" lon="6.18818">
        <ele>206.65</ele>
        <time>2021-02-18T15:15:10Z</time>
      </trkpt>
      <trkpt lat="47.67895" lon="6.18814">
        <ele>206.65</ele>
        <time>2021-02-18T15:15:12Z</time>
      </trkpt>
      <trkpt lat="47.67892" lon="6.18808">
        <ele>204.95</ele>
        <time>2021-02-18T15:15:15Z</time>
      </trkpt>
      <trkpt lat="47.67887" lon="6.18799">
        <ele>204.14</ele>
        <time>2021-02-18T15:15:17Z</time>
      </trkpt>
      <trkpt lat="47.67884" lon="6.18791">
        <ele>203.53</ele>
        <time>2021-02-18T15:15:20Z</time>
      </trkpt>
      <trkpt lat="47.67881" lon="6.18785">
        <ele>203.16</ele>
        <time>2021-02-18T15:15:22Z</time>
      </trkpt>
      <trkpt lat="47.67878" lon="6.18778">
        <ele>203.11</ele>
        <time>2021-02-18T15:15:22Z</time>
      </trkpt>
      <trkpt lat="47.67876" lon="6.18771">
        <ele>202.24</ele>
        <time>2021-02-18T15:15:26Z</time>
      </trkpt>
      <trkpt lat="47.67874" lon="6.18763">
        <ele>202.18</ele>
        <time>2021-02-18T15:15:28Z</time>
      </trkpt>
      <trkpt lat="47.67872" lon="6.18755">
        <ele>201.79</ele>
        <time>2021-02-18T15:15:28Z</time>
      </trkpt>
      <trkpt lat="47.6787" lon="6.18749">
        <ele>201.44</ele>
        <time>2021-02-18T15:15:33Z</time>
      </trkpt>
      <trkpt lat="47.67867" lon="6.1874">
        <ele>201.42</ele>
        <time>2021-02-18T15:15:35Z</time>
      </trkpt>
      <trkpt lat="47.67865" lon="6.18731">
        <ele>201.43</ele>
        <time>2021-02-18T15:15:38Z</time>
      </trkpt>
      <trkpt lat="47.67859" lon="6.18724">
        <ele>201.31</ele>
        <time>2021-02-18T15:15:41Z</time>
      </trkpt>
      <trkpt lat="47.67855" lon="6.18723">
        <ele>198.93</ele>
        <time>2021-02-18T15:15:44Z</time>
      </trkpt>
      <trkpt lat="47.67855" lon="6.1873">
        <ele>197.61</ele>
        <time>2021-02-18T15:15:54Z</time>
      </trkpt>
      <trkpt lat="47.67856" lon="6.18738">
        <ele>197.16</ele>
        <time>2021-02-18T15:16:01Z</time>
      </trkpt>
      <trkpt lat="47.67853" lon="6.18744">
        <ele>196.64</ele>
        <time>2021-02-18T15:16:07Z</time>
      </trkpt>
      <trkpt lat="47.6785" lon="6.1875">
        <ele>195.88</ele>
        <time>2021-02-18T15:16:14Z</time>
      </trkpt>
      <trkpt lat="47.67846" lon="6.18755">
        <ele>195.45</ele>
        <time>2021-02-18T15:16:16Z</time>
      </trkpt>
      <trkpt lat="47.67842" lon="6.18759">
        <ele>195.25</ele>
        <time>2021-02-18T15:16:21Z</time>
      </trkpt>
      <trkpt lat="47.67838" lon="6.18764">
        <ele>195.09</ele>
        <time>2021-02-18T15:16:21Z</time>
      </trkpt>
      <trkpt lat="47.67836" lon="6.18769">
        <ele>194.97</ele>
        <time>2021-02-18T15:16:26Z</time>
      </trkpt>
      <trkpt lat="47.67831" lon="6.18774">
        <ele>194.85</ele>
        <time>2021-02-18T15:16:29Z</time>
      </trkpt>
      <trkpt lat="47.67825" lon="6.18778">
        <ele>194.68</ele>
        <time>2021-02-18T15:16:32Z</time>
      </trkpt>
      <trkpt lat="47.67821" lon="6.18782">
        <ele>194.56</ele>
        <time>2021-02-18T15:16:32Z</time>
      </trkpt>
      <trkpt lat="47.67816" lon="6.18788">
        <ele>194.34</ele>
        <time>2021-02-18T15:16:37Z</time>
      </trkpt>
      <trkpt lat="47.67812" lon="6.18793">
        <ele>194.37</ele>
        <time>2021-02-18T15:16:37Z</time>
      </trkpt>
      <trkpt lat="47.67808" lon="6.18797">
        <ele>193.91</ele>
        <time>2021-02-18T15:16:42Z</time>
      </trkpt>
      <trkpt lat="47.67804" lon="6.18802">
        <ele>193.84</ele>
        <time>2021-02-18T15:16:44Z</time>
      </trkpt>
      <trkpt lat="47.678" lon="6.18806">
        <ele>193.67</ele>
        <time>2021-02-18T15:16:44Z</time>
      </trkpt>
      <trkpt lat="47.67795" lon="6.18811">
        <ele>193.63</ele>
        <time>2021-02-18T15:16:49Z</time>
      </trkpt>
      <trkpt lat="47.67791" lon="6.18814">
        <ele>193.19</ele>
        <time>2021-02-18T15:16:51Z</time>
      </trkpt>
      <trkpt lat="47.67785" lon="6.18818">
        <ele>192.9</ele>
        <time>2021-02-18T15:16:51Z</time>
      </trkpt>
      <trkpt lat="47.6778" lon="6.18822">
        <ele>192.89</ele>
        <time>2021-02-18T15:16:54Z</time>
      </trkpt>
      <trkpt lat="47.67776" lon="6.18826">
        <ele>192.93</ele>
        <time>2021-02-18T15:16:57Z</time>
      </trkpt>
      <trkpt lat="47.67772" lon="6.18825">
        <ele>192.36</ele>
        <time>2021-02-18T15:17:15Z</time>
      </trkpt>
      <trkpt lat="47.67767" lon="6.18827">
        <ele>192.16</ele>
        <time>2021-02-18T15:17:19Z</time>
      </trkpt>
      <trkpt lat="47.67763" lon="6.1883">
        <ele>191.89</ele>
        <time>2021-02-18T15:17:22Z</time>
      </trkpt>
      <trkpt lat="47.67759" lon="6.18834">
        <ele>191.57</ele>
        <time>2021-02-18T15:17:28Z</time>
      </trkpt>
      <trkpt lat="47.67754" lon="6.18836">
        <ele>191.37</ele>
        <time>2021-02-18T15:17:31Z</time>
      </trkpt>
      <trkpt lat="47.6775" lon="6.18838">
        <ele>191.26</ele>
        <time>2021-02-18T15:17:37Z</time>
      </trkpt>
      <trkpt lat="47.67745" lon="6.18841">
        <ele>191.06</ele>
        <time>2021-02-18T15:17:42Z</time>
      </trkpt>
      <trkpt lat="47.6774" lon="6.18841">
        <ele>190.85</ele>
        <time>2021-02-18T15:17:48Z</time>
      </trkpt>
      <trkpt lat="47.67735" lon="6.18838">
        <ele>190.73</ele>
        <time>2021-02-18T15:17:51Z</time>
      </trkpt>
      <trkpt lat="47.67731" lon="6.18832">
        <ele>190.53</ele>
        <time>2021-02-18T15:17:56Z</time>
      </trkpt>
      <trkpt lat="47.67726" lon="6.18828">
        <ele>190.47</ele>
        <time>2021-02-18T15:18:02Z</time>
      </trkpt>
      <trkpt lat="47.67722" lon="6.18823">
        <ele>190.49</ele>
        <time>2021-02-18T15:18:06Z</time>
      </trkpt>
      <trkpt lat="47.67718" lon="6.18818">
        <ele>190.48</ele>
        <time>2021-02-18T15:18:11Z</time>
      </trkpt>
      <trkpt lat="47.67714" lon="6.18815">
        <ele>190.46</ele>
        <time>2021-02-18T15:18:15Z</time>
      </trkpt>
      <trkpt lat="47.67711" lon="6.1881">
        <ele>190.47</ele>
        <time>2021-02-18T15:18:20Z</time>
      </trkpt>
      <trkpt lat="47.67706" lon="6.18808">
        <ele>190.31</ele>
        <time>2021-02-18T15:18:34Z</time>
      </trkpt>
      <trkpt lat="47.67703" lon="6.18804">
        <ele>190.26</ele>
        <time>2021-02-18T15:18:47Z</time>
      </trkpt>
      <trkpt lat="47.67703" lon="6.18797">
        <ele>190.23</ele>
        <time>2021-02-18T15:18:56Z</time>
      </trkpt>
      <trkpt lat="47.67703" lon="6.1879">
        <ele>189.94</ele>
        <time>2021-02-18T15:19:17Z</time>
      </trkpt>
      <trkpt lat="47.67698" lon="6.18794">
        <ele>189.96</ele>
        <time>2021-02-18T15:19:37Z</time>
      </trkpt>
      <trkpt lat="47.67693" lon="6.18795">
        <ele>189.94</ele>
        <time>2021-02-18T15:19:42Z</time>
      </trkpt>
      <trkpt lat="47.67688" lon="6.18794">
        <ele>189.93</ele>
        <time>2021-02-18T15:19:44Z</time>
      </trkpt>
      <trkpt lat="47.67683" lon="6.18791">
        <ele>189.95</ele>
        <time>2021-02-18T15:19:48Z</time>
      </trkpt>
      <trkpt lat="47.67679" lon="6.18789">
        <ele>189.94</ele>
        <time>2021-02-18T15:19:54Z</time>
      </trkpt>
      <trkpt lat="47.67674" lon="6.18788">
        <ele>189.93</ele>
        <time>2021-02-18T15:19:59Z</time>
      </trkpt>
      <trkpt lat="47.67669" lon="6.18786">
        <ele>189.89</ele>
        <time>2021-02-18T15:20:04Z</time>
      </trkpt>
      <trkpt lat="47.67664" lon="6.18785">
        <ele>189.85</ele>
        <time>2021-02-18T15:20:06Z</time>
      </trkpt>
      <trkpt lat="47.67659" lon="6.18785">
        <ele>189.83</ele>
        <time>2021-02-18T15:20:09Z</time>
      </trkpt>
      <trkpt lat="47.67654" lon="6.18786">
        <ele>189.8</ele>
        <time>2021-02-18T15:20:12Z</time>
      </trkpt>
      <trkpt lat="47.67648" lon="6.18786">
        <ele>189.86</ele>
        <time>2021-02-18T15:20:16Z</time>
      </trkpt>
      <trkpt lat="47.67643" lon="6.18787">
        <ele>189.77</ele>
        <time>2021-02-18T15:20:23Z</time>
      </trkpt>
      <trkpt lat="47.67639" lon="6.18782">
        <ele>189.72</ele>
        <time>2021-02-18T15:20:29Z</time>
      </trkpt>
      <trkpt lat="47.6764" lon="6.18775">
        <ele>189.58</ele>
        <time>2021-02-18T15:20:34Z</time>
      </trkpt>
      <trkpt lat="47.67639" lon="6.18767">
        <ele>189.54</ele>
        <time>2021-02-18T15:20:39Z</time>
      </trkpt>
      <trkpt lat="47.67639" lon="6.1876">
        <ele>189.44</ele>
        <time>2021-02-18T15:20:42Z</time>
      </trkpt>
      <trkpt lat="47.6764" lon="6.18753">
        <ele>189.47</ele>
        <time>2021-02-18T15:20:47Z</time>
      </trkpt>
      <trkpt lat="47.67642" lon="6.18746">
        <ele>189.58</ele>
        <time>2021-02-18T15:20:52Z</time>
      </trkpt>
      <trkpt lat="47.67643" lon="6.18738">
        <ele>189.76</ele>
        <time>2021-02-18T15:20:56Z</time>
      </trkpt>
      <trkpt lat="47.67643" lon="6.18729">
        <ele>190.09</ele>
        <time>2021-02-18T15:21:04Z</time>
      </trkpt>
      <trkpt lat="47.67644" lon="6.18722">
        <ele>190.32</ele>
        <time>2021-02-18T15:21:07Z</time>
      </trkpt>
      <trkpt lat="47.67643" lon="6.18713">
        <ele>190.71</ele>
        <time>2021-02-18T15:21:18Z</time>
      </trkpt>
      <trkpt lat="47.67642" lon="6.18706">
        <ele>191.19</ele>
        <time>2021-02-18T15:21:23Z</time>
      </trkpt>
      <trkpt lat="47.67642" lon="6.18699">
        <ele>191.64</ele>
        <time>2021-02-18T15:21:28Z</time>
      </trkpt>
      <trkpt lat="47.6764" lon="6.18691">
        <ele>191.97</ele>
        <time>2021-02-18T15:21:33Z</time>
      </trkpt>
      <trkpt lat="47.67636" lon="6.18687">
        <ele>192.51</ele>
        <time>2021-02-18T15:21:42Z</time>
      </trkpt>
      <trkpt lat="47.67631" lon="6.18689">
        <ele>193.25</ele>
        <time>2021-02-18T15:21:54Z</time>
      </trkpt>
      <trkpt lat="47.67626" lon="6.1869">
        <ele>193.38</ele>
        <time>2021-02-18T15:21:57Z</time>
      </trkpt>
      <trkpt lat="47.67621" lon="6.1869">
        <ele>193.45</ele>
        <time>2021-02-18T15:22:00Z</time>
      </trkpt>
      <trkpt lat="47.67615" lon="6.1869">
        <ele>193.58</ele>
        <time>2021-02-18T15:22:02Z</time>
      </trkpt>
      <trkpt lat="47.6761" lon="6.18693">
        <ele>193.53</ele>
        <time>2021-02-18T15:22:04Z</time>
      </trkpt>
      <trkpt lat="47.67605" lon="6.18695">
        <ele>193.53</ele>
        <time>2021-02-18T15:22:07Z</time>
      </trkpt>
      <trkpt lat="47.676" lon="6.18695">
        <ele>193.64</ele>
        <time>2021-02-18T15:22:09Z</time>
      </trkpt>
      <trkpt lat="47.67604" lon="6.18691">
        <ele>193.87</ele>
        <time>2021-02-18T15:22:25Z</time>
      </trkpt>
      <trkpt lat="47.67608" lon="6.18689">
        <ele>193.93</ele>
        <time>2021-02-18T15:22:46Z</time>
      </trkpt>
      <trkpt lat="47.6761" lon="6.18682">
        <ele>194.21</ele>
        <time>2021-02-18T15:23:06Z</time>
      </trkpt>
      <trkpt lat="47.67611" lon="6.18675">
        <ele>194.41</ele>
        <time>2021-02-18T15:23:10Z</time>
      </trkpt>
      <trkpt lat="47.6761" lon="6.18668">
        <ele>194.66</ele>
        <time>2021-02-18T15:23:22Z</time>
      </trkpt>
      <trkpt lat="47.67607" lon="6.18662">
        <ele>194.85</ele>
        <time>2021-02-18T15:23:30Z</time>
      </trkpt>
      <trkpt lat="47.67603" lon="6.18656">
        <ele>195.14</ele>
        <time>2021-02-18T15:23:33Z</time>
      </trkpt>
      <trkpt lat="47.67603" lon="6.18649">
        <ele>195.47</ele>
        <time>2021-02-18T15:23:40Z</time>
      </trkpt>
      <trkpt lat="47.67608" lon="6.18645">
        <ele>195.61</ele>
        <time>2021-02-18T15:23:50Z</time>
      </trkpt>
      <trkpt lat="47.67611" lon="6.1864">
        <ele>195.88</ele>
        <time>2021-02-18T15:23:56Z</time>
      </trkpt>
      <trkpt lat="47.67612" lon="6.18634">
        <ele>196.68</ele>
        <time>2021-02-18T15:24:11Z</time>
      </trkpt>
      <trkpt lat="47.67616" lon="6.18628">
        <ele>197.08</ele>
        <time>2021-02-18T15:24:19Z</time>
      </trkpt>
      <trkpt lat="47.67619" lon="6.18624">
        <ele>197.52</ele>
        <time>2021-02-18T15:24:29Z</time>
      </trkpt>
      <trkpt lat="47.67615" lon="6.18621">
        <ele>198.18</ele>
        <time>2021-02-18T15:24:41Z</time>
      </trkpt>
      <trkpt lat="47.67611" lon="6.18618">
        <ele>198.14</ele>
        <time>2021-02-18T15:24:49Z</time>
      </trkpt>
      <trkpt lat="47.67604" lon="6.18619">
        <ele>198.08</ele>
        <time>2021-02-18T15:24:53Z</time>
      </trkpt>
      <trkpt lat="47.67597" lon="6.18621">
        <ele>198.1</ele>
        <time>2021-02-18T15:24:55Z</time>
      </trkpt>
      <trkpt lat="47.67585" lon="6.18623">
        <ele>198.12</ele>
        <time>2021-02-18T15:24:58Z</time>
      </trkpt>
      <trkpt lat="47.67579" lon="6.18623">
        <ele>198.13</ele>
        <time>2021-02-18T15:25:00Z</time>
      </trkpt>
      <trkpt lat="47.67573" lon="6.18624">
        <ele>198.16</ele>
        <time>2021-02-18T15:25:02Z</time>
      </trkpt>
      <trkpt lat="47.67568" lon="6.18624">
        <ele>198.17</ele>
        <time>2021-02-18T15:25:04Z</time>
      </trkpt>
      <trkpt lat="47.67561" lon="6.18624">
        <ele>198.15</ele>
        <time>2021-02-18T15:25:05Z</time>
      </trkpt>
      <trkpt lat="47.67553" lon="6.18625">
        <ele>198.16</ele>
        <time>2021-02-18T15:25:06Z</time>
      </trkpt>
      <trkpt lat="47.67546" lon="6.18625">
        <ele>198.17</ele>
        <time>2021-02-18T15:25:09Z</time>
      </trkpt>
      <trkpt lat="47.67541" lon="6.18625">
        <ele>198.14</ele>
        <time>2021-02-18T15:25:10Z</time>
      </trkpt>
      <trkpt lat="47.67533" lon="6.18625">
        <ele>198.15</ele>
        <time>2021-02-18T15:25:12Z</time>
      </trkpt>
      <trkpt lat="47.67527" lon="6.18625">
        <ele>198.14</ele>
        <time>2021-02-18T15:25:14Z</time>
      </trkpt>
      <trkpt lat="47.67521" lon="6.18624">
        <ele>198.15</ele>
        <time>2021-02-18T15:25:15Z</time>
      </trkpt>
      <trkpt lat="47.67514" lon="6.18625">
        <ele>198.15</ele>
        <time>2021-02-18T15:25:17Z</time>
      </trkpt>
      <trkpt lat="47.67505" lon="6.18627">
        <ele>198.19</ele>
        <time>2021-02-18T15:25:20Z</time>
      </trkpt>
      <trkpt lat="47.67499" lon="6.18626">
        <ele>198.21</ele>
        <time>2021-02-18T15:25:22Z</time>
      </trkpt>
      <trkpt lat="47.67492" lon="6.18624">
        <ele>198.21</ele>
        <time>2021-02-18T15:25:24Z</time>
      </trkpt>
      <trkpt lat="47.67481" lon="6.18623">
        <ele>198.24</ele>
        <time>2021-02-18T15:25:27Z</time>
      </trkpt>
      <trkpt lat="47.67475" lon="6.18624">
        <ele>198.22</ele>
        <time>2021-02-18T15:25:28Z</time>
      </trkpt>
      <trkpt lat="47.67469" lon="6.18624">
        <ele>198.2</ele>
        <time>2021-02-18T15:25:29Z</time>
      </trkpt>
      <trkpt lat="47.67455" lon="6.18626">
        <ele>198.16</ele>
        <time>2021-02-18T15:25:32Z</time>
      </trkpt>
      <trkpt lat="47.67444" lon="6.18626">
        <ele>198.16</ele>
        <time>2021-02-18T15:25:34Z</time>
      </trkpt>
      <trkpt lat="47.67437" lon="6.18627">
        <ele>198.16</ele>
        <time>2021-02-18T15:25:35Z</time>
      </trkpt>
      <trkpt lat="47.67432" lon="6.18627">
        <ele>198.16</ele>
        <time>2021-02-18T15:25:36Z</time>
      </trkpt>
      <trkpt lat="47.67427" lon="6.18628">
        <ele>198.16</ele>
        <time>2021-02-18T15:25:37Z</time>
      </trkpt>
      <trkpt lat="47.67416" lon="6.18632">
        <ele>198.12</ele>
        <time>2021-02-18T15:25:39Z</time>
      </trkpt>
      <trkpt lat="47.67411" lon="6.18633">
        <ele>198.1</ele>
        <time>2021-02-18T15:25:40Z</time>
      </trkpt>
      <trkpt lat="47.67404" lon="6.18634">
        <ele>198.09</ele>
        <time>2021-02-18T15:25:41Z</time>
      </trkpt>
      <trkpt lat="47.67389" lon="6.18638">
        <ele>198.09</ele>
        <time>2021-02-18T15:25:44Z</time>
      </trkpt>
      <trkpt lat="47.67382" lon="6.18639">
        <ele>198.09</ele>
        <time>2021-02-18T15:25:46Z</time>
      </trkpt>
      <trkpt lat="47.67374" lon="6.18636">
        <ele>198.17</ele>
        <time>2021-02-18T15:25:48Z</time>
      </trkpt>
      <trkpt lat="47.67363" lon="6.18641">
        <ele>198.15</ele>
        <time>2021-02-18T15:25:51Z</time>
      </trkpt>
      <trkpt lat="47.67355" lon="6.18641">
        <ele>198.14</ele>
        <time>2021-02-18T15:25:53Z</time>
      </trkpt>
      <trkpt lat="47.6735" lon="6.18642">
        <ele>198.14</ele>
        <time>2021-02-18T15:25:54Z</time>
      </trkpt>
      <trkpt lat="47.67343" lon="6.18642">
        <ele>198.15</ele>
        <time>2021-02-18T15:25:56Z</time>
      </trkpt>
      <trkpt lat="47.67332" lon="6.18643">
        <ele>198.19</ele>
        <time>2021-02-18T15:25:59Z</time>
      </trkpt>
      <trkpt lat="47.67321" lon="6.18641">
        <ele>198.28</ele>
        <time>2021-02-18T15:26:02Z</time>
      </trkpt>
      <trkpt lat="47.67313" lon="6.1864">
        <ele>198.32</ele>
        <time>2021-02-18T15:26:05Z</time>
      </trkpt>
      <trkpt lat="47.67307" lon="6.18639">
        <ele>198.38</ele>
        <time>2021-02-18T15:26:06Z</time>
      </trkpt>
      <trkpt lat="47.67301" lon="6.18638">
        <ele>198.35</ele>
        <time>2021-02-18T15:26:07Z</time>
      </trkpt>
      <trkpt lat="47.67296" lon="6.18636">
        <ele>198.35</ele>
        <time>2021-02-18T15:26:08Z</time>
      </trkpt>
      <trkpt lat="47.67288" lon="6.18634">
        <ele>198.4</ele>
        <time>2021-02-18T15:26:10Z</time>
      </trkpt>
      <trkpt lat="47.67279" lon="6.18634">
        <ele>198.44</ele>
        <time>2021-02-18T15:26:12Z</time>
      </trkpt>
      <trkpt lat="47.67273" lon="6.18634">
        <ele>198.42</ele>
        <time>2021-02-18T15:26:13Z</time>
      </trkpt>
      <trkpt lat="47.67268" lon="6.18635">
        <ele>198.41</ele>
        <time>2021-02-18T15:26:14Z</time>
      </trkpt>
      <trkpt lat="47.67261" lon="6.18635">
        <ele>198.41</ele>
        <time>2021-02-18T15:26:15Z</time>
      </trkpt>
      <trkpt lat="47.67254" lon="6.18635">
        <ele>198.4</ele>
        <time>2021-02-18T15:26:17Z</time>
      </trkpt>
      <trkpt lat="47.67247" lon="6.18634">
        <ele>198.37</ele>
        <time>2021-02-18T15:26:18Z</time>
      </trkpt>
      <trkpt lat="47.67241" lon="6.18634">
        <ele>198.37</ele>
        <time>2021-02-18T15:26:20Z</time>
      </trkpt>
      <trkpt lat="47.67233" lon="6.18634">
        <ele>198.37</ele>
        <time>2021-02-18T15:26:21Z</time>
      </trkpt>
      <trkpt lat="47.6722" lon="6.18632">
        <ele>198.28</ele>
        <time>2021-02-18T15:26:24Z</time>
      </trkpt>
      <trkpt lat="47.67215" lon="6.18631">
        <ele>198.26</ele>
        <time>2021-02-18T15:26:25Z</time>
      </trkpt>
      <trkpt lat="47.67202" lon="6.18629">
        <ele>198.3</ele>
        <time>2021-02-18T15:26:28Z</time>
      </trkpt>
      <trkpt lat="47.67197" lon="6.18629">
        <ele>198.3</ele>
        <time>2021-02-18T15:26:29Z</time>
      </trkpt>
      <trkpt lat="47.67188" lon="6.1863">
        <ele>198.28</ele>
        <time>2021-02-18T15:26:30Z</time>
      </trkpt>
      <trkpt lat="47.67182" lon="6.18628">
        <ele>198.24</ele>
        <time>2021-02-18T15:26:33Z</time>
      </trkpt>
      <trkpt lat="47.67175" lon="6.18626">
        <ele>198.18</ele>
        <time>2021-02-18T15:26:36Z</time>
      </trkpt>
      <trkpt lat="47.67169" lon="6.18625">
        <ele>198.18</ele>
        <time>2021-02-18T15:26:37Z</time>
      </trkpt>
      <trkpt lat="47.67163" lon="6.18622">
        <ele>198.22</ele>
        <time>2021-02-18T15:26:39Z</time>
      </trkpt>
      <trkpt lat="47.67158" lon="6.18621">
        <ele>198.22</ele>
        <time>2021-02-18T15:26:40Z</time>
      </trkpt>
      <trkpt lat="47.67153" lon="6.18622">
        <ele>198.23</ele>
        <time>2021-02-18T15:26:41Z</time>
      </trkpt>
      <trkpt lat="47.67146" lon="6.18622">
        <ele>198.22</ele>
        <time>2021-02-18T15:26:43Z</time>
      </trkpt>
      <trkpt lat="47.67141" lon="6.18621">
        <ele>198.21</ele>
        <time>2021-02-18T15:26:44Z</time>
      </trkpt>
      <trkpt lat="47.67131" lon="6.18621">
        <ele>198.21</ele>
        <time>2021-02-18T15:26:45Z</time>
      </trkpt>
      <trkpt lat="47.67122" lon="6.18622">
        <ele>198.17</ele>
        <time>2021-02-18T15:26:48Z</time>
      </trkpt>
      <trkpt lat="47.67118" lon="6.18622">
        <ele>198.17</ele>
        <time>2021-02-18T15:26:50Z</time>
      </trkpt>
      <trkpt lat="47.67101" lon="6.18621">
        <ele>198.15</ele>
        <time>2021-02-18T15:26:52Z</time>
      </trkpt>
      <trkpt lat="47.67094" lon="6.18621">
        <ele>198.13</ele>
        <time>2021-02-18T15:26:55Z</time>
      </trkpt>
      <trkpt lat="47.67089" lon="6.1862">
        <ele>198.13</ele>
        <time>2021-02-18T15:26:56Z</time>
      </trkpt>
      <trkpt lat="47.67083" lon="6.1862">
        <ele>198.14</ele>
        <time>2021-02-18T15:26:58Z</time>
      </trkpt>
      <trkpt lat="47.67075" lon="6.18619">
        <ele>198.18</ele>
        <time>2021-02-18T15:27:00Z</time>
      </trkpt>
      <trkpt lat="47.67068" lon="6.18619">
        <ele>198.13</ele>
        <time>2021-02-18T15:27:02Z</time>
      </trkpt>
      <trkpt lat="47.6706" lon="6.18618">
        <ele>198.16</ele>
        <time>2021-02-18T15:27:04Z</time>
      </trkpt>
      <trkpt lat="47.67052" lon="6.18617">
        <ele>198.2</ele>
        <time>2021-02-18T15:27:06Z</time>
      </trkpt>
      <trkpt lat="47.67045" lon="6.18615">
        <ele>198.15</ele>
        <time>2021-02-18T15:27:09Z</time>
      </trkpt>
      <trkpt lat="47.67038" lon="6.18614">
        <ele>198.15</ele>
        <time>2021-02-18T15:27:10Z</time>
      </trkpt>
      <trkpt lat="47.67027" lon="6.18611">
        <ele>198.14</ele>
        <time>2021-02-18T15:27:13Z</time>
      </trkpt>
      <trkpt lat="47.67022" lon="6.18608">
        <ele>198.11</ele>
        <time>2021-02-18T15:27:15Z</time>
      </trkpt>
      <trkpt lat="47.67016" lon="6.18607">
        <ele>198.12</ele>
        <time>2021-02-18T15:27:17Z</time>
      </trkpt>
      <trkpt lat="47.6701" lon="6.18607">
        <ele>198.16</ele>
        <time>2021-02-18T15:27:19Z</time>
      </trkpt>
      <trkpt lat="47.67003" lon="6.18604">
        <ele>198.12</ele>
        <time>2021-02-18T15:27:21Z</time>
      </trkpt>
      <trkpt lat="47.66991" lon="6.18601">
        <ele>198.07</ele>
        <time>2021-02-18T15:27:24Z</time>
      </trkpt>
      <trkpt lat="47.66984" lon="6.18599">
        <ele>198.09</ele>
        <time>2021-02-18T15:27:26Z</time>
      </trkpt>
      <trkpt lat="47.66977" lon="6.18597">
        <ele>198.09</ele>
        <time>2021-02-18T15:27:28Z</time>
      </trkpt>
      <trkpt lat="47.66972" lon="6.18596">
        <ele>198.09</ele>
        <time>2021-02-18T15:27:30Z</time>
      </trkpt>
      <trkpt lat="47.66959" lon="6.18591">
        <ele>198.09</ele>
        <time>2021-02-18T15:27:33Z</time>
      </trkpt>
      <trkpt lat="47.66955" lon="6.1859">
        <ele>198.06</ele>
        <time>2021-02-18T15:27:34Z</time>
      </trkpt>
      <trkpt lat="47.66942" lon="6.18589">
        <ele>198.09</ele>
        <time>2021-02-18T15:27:37Z</time>
      </trkpt>
      <trkpt lat="47.66934" lon="6.18588">
        <ele>198.1</ele>
        <time>2021-02-18T15:27:38Z</time>
      </trkpt>
      <trkpt lat="47.66929" lon="6.18588">
        <ele>198.08</ele>
        <time>2021-02-18T15:27:39Z</time>
      </trkpt>
      <trkpt lat="47.66921" lon="6.18586">
        <ele>198.08</ele>
        <time>2021-02-18T15:27:40Z</time>
      </trkpt>
      <trkpt lat="47.66915" lon="6.18585">
        <ele>198.08</ele>
        <time>2021-02-18T15:27:41Z</time>
      </trkpt>
      <trkpt lat="47.66896" lon="6.18576">
        <ele>198.09</ele>
        <time>2021-02-18T15:27:42Z</time>
      </trkpt>
      <trkpt lat="47.6689" lon="6.18573">
        <ele>198.11</ele>
        <time>2021-02-18T15:27:43Z</time>
      </trkpt>
      <trkpt lat="47.66885" lon="6.18569">
        <ele>198.11</ele>
        <time>2021-02-18T15:27:44Z</time>
      </trkpt>
      <trkpt lat="47.6688" lon="6.18566">
        <ele>198.12</ele>
        <time>2021-02-18T15:27:45Z</time>
      </trkpt>
      <trkpt lat="47.66875" lon="6.18562">
        <ele>198.11</ele>
        <time>2021-02-18T15:27:46Z</time>
      </trkpt>
      <trkpt lat="47.6687" lon="6.18559">
        <ele>198.1</ele>
        <time>2021-02-18T15:27:47Z</time>
      </trkpt>
      <trkpt lat="47.66865" lon="6.18556">
        <ele>198.1</ele>
        <time>2021-02-18T15:27:48Z</time>
      </trkpt>
      <trkpt lat="47.66861" lon="6.18552">
        <ele>198.11</ele>
        <time>2021-02-18T15:27:49Z</time>
      </trkpt>
      <trkpt lat="47.66858" lon="6.18548">
        <ele>198.13</ele>
        <time>2021-02-18T15:27:50Z</time>
      </trkpt>
      <trkpt lat="47.66853" lon="6.18544">
        <ele>198.13</ele>
        <time>2021-02-18T15:27:51Z</time>
      </trkpt>
      <trkpt lat="47.66849" lon="6.18541">
        <ele>198.16</ele>
        <time>2021-02-18T15:27:52Z</time>
      </trkpt>
      <trkpt lat="47.66844" lon="6.18537">
        <ele>198.15</ele>
        <time>2021-02-18T15:27:53Z</time>
      </trkpt>
      <trkpt lat="47.66839" lon="6.18533">
        <ele>198.16</ele>
        <time>2021-02-18T15:27:54Z</time>
      </trkpt>
      <trkpt lat="47.66835" lon="6.18529">
        <ele>198.18</ele>
        <time>2021-02-18T15:27:55Z</time>
      </trkpt>
      <trkpt lat="47.66831" lon="6.18527">
        <ele>198.16</ele>
        <time>2021-02-18T15:27:56Z</time>
      </trkpt>
      <trkpt lat="47.66826" lon="6.18524">
        <ele>198.14</ele>
        <time>2021-02-18T15:27:57Z</time>
      </trkpt>
      <trkpt lat="47.66819" lon="6.1852">
        <ele>198.16</ele>
        <time>2021-02-18T15:27:59Z</time>
      </trkpt>
      <trkpt lat="47.66812" lon="6.18515">
        <ele>198.2</ele>
        <time>2021-02-18T15:28:01Z</time>
      </trkpt>
      <trkpt lat="47.66804" lon="6.18512">
        <ele>185.45</ele>
        <time>2021-02-18T15:28:03Z</time>
      </trkpt>
      <trkpt lat="47.66795" lon="6.18526">
        <ele>180.45</ele>
        <time>2021-02-18T15:28:06Z</time>
      </trkpt>
      <trkpt lat="47.6679" lon="6.1852">
        <ele>180.04</ele>
        <time>2021-02-18T15:28:07Z</time>
      </trkpt>
      <trkpt lat="47.66785" lon="6.18516">
        <ele>180</ele>
        <time>2021-02-18T15:28:08Z</time>
      </trkpt>
      <trkpt lat="47.66779" lon="6.18511">
        <ele>180.01</ele>
        <time>2021-02-18T15:28:09Z</time>
      </trkpt>
      <trkpt lat="47.66772" lon="6.18505">
        <ele>180.01</ele>
        <time>2021-02-18T15:28:11Z</time>
      </trkpt>
      <trkpt lat="47.66767" lon="6.18502">
        <ele>180.04</ele>
        <time>2021-02-18T15:28:12Z</time>
      </trkpt>
      <trkpt lat="47.66761" lon="6.18499">
        <ele>180.07</ele>
        <time>2021-02-18T15:28:13Z</time>
      </trkpt>
      <trkpt lat="47.66751" lon="6.18492">
        <ele>180.05</ele>
        <time>2021-02-18T15:28:15Z</time>
      </trkpt>
      <trkpt lat="47.6674" lon="6.18488">
        <ele>180.08</ele>
        <time>2021-02-18T15:28:17Z</time>
      </trkpt>
      <trkpt lat="47.66725" lon="6.1848">
        <ele>180.11</ele>
        <time>2021-02-18T15:28:20Z</time>
      </trkpt>
      <trkpt lat="47.66719" lon="6.18477">
        <ele>180.1</ele>
        <time>2021-02-18T15:28:21Z</time>
      </trkpt>
      <trkpt lat="47.66713" lon="6.18475">
        <ele>180.1</ele>
        <time>2021-02-18T15:28:22Z</time>
      </trkpt>
      <trkpt lat="47.66696" lon="6.18468">
        <ele>180.14</ele>
        <time>2021-02-18T15:28:22Z</time>
      </trkpt>
      <trkpt lat="47.66691" lon="6.18464">
        <ele>180.15</ele>
        <time>2021-02-18T15:28:23Z</time>
      </trkpt>
      <trkpt lat="47.66687" lon="6.1846">
        <ele>180.11</ele>
        <time>2021-02-18T15:28:24Z</time>
      </trkpt>
      <trkpt lat="47.66682" lon="6.18455">
        <ele>180.08</ele>
        <time>2021-02-18T15:28:25Z</time>
      </trkpt>
      <trkpt lat="47.66678" lon="6.18451">
        <ele>180.06</ele>
        <time>2021-02-18T15:28:26Z</time>
      </trkpt>
      <trkpt lat="47.66673" lon="6.18447">
        <ele>180.03</ele>
        <time>2021-02-18T15:28:27Z</time>
      </trkpt>
      <trkpt lat="47.66668" lon="6.18443">
        <ele>180</ele>
        <time>2021-02-18T15:28:28Z</time>
      </trkpt>
      <trkpt lat="47.66663" lon="6.18439">
        <ele>179.98</ele>
        <time>2021-02-18T15:28:29Z</time>
      </trkpt>
      <trkpt lat="47.66658" lon="6.18435">
        <ele>179.96</ele>
        <time>2021-02-18T15:28:30Z</time>
      </trkpt>
      <trkpt lat="47.66654" lon="6.18432">
        <ele>179.95</ele>
        <time>2021-02-18T15:28:31Z</time>
      </trkpt>
      <trkpt lat="47.66649" lon="6.18429">
        <ele>179.95</ele>
        <time>2021-02-18T15:28:32Z</time>
      </trkpt>
      <trkpt lat="47.66644" lon="6.18425">
        <ele>179.95</ele>
        <time>2021-02-18T15:28:33Z</time>
      </trkpt>
      <trkpt lat="47.66639" lon="6.18421">
        <ele>179.92</ele>
        <time>2021-02-18T15:28:34Z</time>
      </trkpt>
      <trkpt lat="47.66634" lon="6.18417">
        <ele>179.91</ele>
        <time>2021-02-18T15:28:35Z</time>
      </trkpt>
      <trkpt lat="47.6663" lon="6.18413">
        <ele>179.96</ele>
        <time>2021-02-18T15:28:36Z</time>
      </trkpt>
      <trkpt lat="47.66625" lon="6.18409">
        <ele>179.98</ele>
        <time>2021-02-18T15:28:37Z</time>
      </trkpt>
      <trkpt lat="47.6662" lon="6.18405">
        <ele>180.01</ele>
        <time>2021-02-18T15:28:38Z</time>
      </trkpt>
      <trkpt lat="47.66615" lon="6.18401">
        <ele>180</ele>
        <time>2021-02-18T15:28:39Z</time>
      </trkpt>
      <trkpt lat="47.66611" lon="6.18397">
        <ele>179.99</ele>
        <time>2021-02-18T15:28:40Z</time>
      </trkpt>
      <trkpt lat="47.66607" lon="6.18393">
        <ele>179.96</ele>
        <time>2021-02-18T15:28:41Z</time>
      </trkpt>
      <trkpt lat="47.66603" lon="6.18389">
        <ele>179.95</ele>
        <time>2021-02-18T15:28:42Z</time>
      </trkpt>
      <trkpt lat="47.66599" lon="6.18386">
        <ele>179.93</ele>
        <time>2021-02-18T15:28:43Z</time>
      </trkpt>
      <trkpt lat="47.66594" lon="6.18382">
        <ele>179.93</ele>
        <time>2021-02-18T15:28:44Z</time>
      </trkpt>
      <trkpt lat="47.6659" lon="6.18377">
        <ele>179.93</ele>
        <time>2021-02-18T15:28:45Z</time>
      </trkpt>
      <trkpt lat="47.66586" lon="6.18373">
        <ele>179.93</ele>
        <time>2021-02-18T15:28:46Z</time>
      </trkpt>
      <trkpt lat="47.66582" lon="6.18369">
        <ele>179.93</ele>
        <time>2021-02-18T15:28:47Z</time>
      </trkpt>
      <trkpt lat="47.66577" lon="6.18366">
        <ele>179.95</ele>
        <time>2021-02-18T15:28:48Z</time>
      </trkpt>
      <trkpt lat="47.66573" lon="6.18362">
        <ele>179.94</ele>
        <time>2021-02-18T15:28:49Z</time>
      </trkpt>
      <trkpt lat="47.6657" lon="6.18358">
        <ele>179.95</ele>
        <time>2021-02-18T15:28:50Z</time>
      </trkpt>
      <trkpt lat="47.66566" lon="6.18353">
        <ele>179.94</ele>
        <time>2021-02-18T15:28:51Z</time>
      </trkpt>
      <trkpt lat="47.66561" lon="6.18349">
        <ele>179.95</ele>
        <time>2021-02-18T15:28:52Z</time>
      </trkpt>
      <trkpt lat="47.66556" lon="6.18344">
        <ele>179.94</ele>
        <time>2021-02-18T15:28:53Z</time>
      </trkpt>
      <trkpt lat="47.66553" lon="6.18339">
        <ele>179.94</ele>
        <time>2021-02-18T15:28:54Z</time>
      </trkpt>
      <trkpt lat="47.66549" lon="6.18334">
        <ele>179.9</ele>
        <time>2021-02-18T15:28:55Z</time>
      </trkpt>
      <trkpt lat="47.66545" lon="6.1833">
        <ele>179.89</ele>
        <time>2021-02-18T15:28:56Z</time>
      </trkpt>
      <trkpt lat="47.66541" lon="6.18325">
        <ele>179.86</ele>
        <time>2021-02-18T15:28:57Z</time>
      </trkpt>
      <trkpt lat="47.66534" lon="6.18317">
        <ele>179.87</ele>
        <time>2021-02-18T15:28:59Z</time>
      </trkpt>
      <trkpt lat="47.66531" lon="6.18313">
        <ele>179.85</ele>
        <time>2021-02-18T15:29:00Z</time>
      </trkpt>
      <trkpt lat="47.66524" lon="6.18305">
        <ele>179.87</ele>
        <time>2021-02-18T15:29:02Z</time>
      </trkpt>
      <trkpt lat="47.66518" lon="6.18297">
        <ele>179.89</ele>
        <time>2021-02-18T15:29:04Z</time>
      </trkpt>
      <trkpt lat="47.66515" lon="6.18291">
        <ele>179.93</ele>
        <time>2021-02-18T15:29:05Z</time>
      </trkpt>
      <trkpt lat="47.6651" lon="6.18285">
        <ele>179.97</ele>
        <time>2021-02-18T15:29:06Z</time>
      </trkpt>
      <trkpt lat="47.66505" lon="6.18278">
        <ele>180</ele>
        <time>2021-02-18T15:29:07Z</time>
      </trkpt>
      <trkpt lat="47.665" lon="6.18272">
        <ele>178.03</ele>
        <time>2021-02-18T15:29:08Z</time>
      </trkpt>
      <trkpt lat="47.66496" lon="6.18266">
        <ele>177.45</ele>
        <time>2021-02-18T15:29:09Z</time>
      </trkpt>
      <trkpt lat="47.66492" lon="6.18261">
        <ele>177.31</ele>
        <time>2021-02-18T15:29:10Z</time>
      </trkpt>
      <trkpt lat="47.66489" lon="6.18255">
        <ele>177.29</ele>
        <time>2021-02-18T15:29:11Z</time>
      </trkpt>
      <trkpt lat="47.66489" lon="6.18245">
        <ele>177.29</ele>
        <time>2021-02-18T15:29:15Z</time>
      </trkpt>
      <trkpt lat="47.66482" lon="6.18236">
        <ele>177.34</ele>
        <time>2021-02-18T15:29:15Z</time>
      </trkpt>
      <trkpt lat="47.66478" lon="6.18232">
        <ele>177.35</ele>
        <time>2021-02-18T15:29:19Z</time>
      </trkpt>
      <trkpt lat="47.66473" lon="6.18226">
        <ele>177.03</ele>
        <time>2021-02-18T15:29:20Z</time>
      </trkpt>
      <trkpt lat="47.66468" lon="6.18217">
        <ele>176.86</ele>
        <time>2021-02-18T15:29:21Z</time>
      </trkpt>
      <trkpt lat="47.66458" lon="6.18199">
        <ele>176.82</ele>
        <time>2021-02-18T15:29:21Z</time>
      </trkpt>
      <trkpt lat="47.66455" lon="6.18193">
        <ele>176.84</ele>
        <time>2021-02-18T15:29:22Z</time>
      </trkpt>
      <trkpt lat="47.6645" lon="6.18187">
        <ele>176.86</ele>
        <time>2021-02-18T15:29:26Z</time>
      </trkpt>
      <trkpt lat="47.66443" lon="6.18166">
        <ele>176.85</ele>
        <time>2021-02-18T15:29:26Z</time>
      </trkpt>
      <trkpt lat="47.6644" lon="6.18159">
        <ele>176.85</ele>
        <time>2021-02-18T15:29:27Z</time>
      </trkpt>
      <trkpt lat="47.66436" lon="6.18152">
        <ele>176.78</ele>
        <time>2021-02-18T15:29:28Z</time>
      </trkpt>
      <trkpt lat="47.66431" lon="6.18147">
        <ele>176.75</ele>
        <time>2021-02-18T15:29:29Z</time>
      </trkpt>
      <trkpt lat="47.66427" lon="6.18143">
        <ele>176.73</ele>
        <time>2021-02-18T15:29:30Z</time>
      </trkpt>
      <trkpt lat="47.66423" lon="6.18138">
        <ele>176.78</ele>
        <time>2021-02-18T15:29:31Z</time>
      </trkpt>
      <trkpt lat="47.66419" lon="6.18133">
        <ele>176.8</ele>
        <time>2021-02-18T15:29:32Z</time>
      </trkpt>
      <trkpt lat="47.66415" lon="6.18129">
        <ele>176.84</ele>
        <time>2021-02-18T15:29:33Z</time>
      </trkpt>
      <trkpt lat="47.6641" lon="6.18124">
        <ele>176.84</ele>
        <time>2021-02-18T15:29:34Z</time>
      </trkpt>
      <trkpt lat="47.66406" lon="6.18119">
        <ele>176.82</ele>
        <time>2021-02-18T15:29:35Z</time>
      </trkpt>
      <trkpt lat="47.66402" lon="6.18114">
        <ele>176.84</ele>
        <time>2021-02-18T15:29:36Z</time>
      </trkpt>
      <trkpt lat="47.66398" lon="6.1811">
        <ele>176.85</ele>
        <time>2021-02-18T15:29:37Z</time>
      </trkpt>
      <trkpt lat="47.66394" lon="6.18105">
        <ele>176.85</ele>
        <time>2021-02-18T15:29:38Z</time>
      </trkpt>
      <trkpt lat="47.6639" lon="6.181">
        <ele>176.87</ele>
        <time>2021-02-18T15:29:39Z</time>
      </trkpt>
      <trkpt lat="47.66387" lon="6.18096">
        <ele>176.88</ele>
        <time>2021-02-18T15:29:40Z</time>
      </trkpt>
      <trkpt lat="47.66383" lon="6.18092">
        <ele>176.88</ele>
        <time>2021-02-18T15:29:41Z</time>
      </trkpt>
      <trkpt lat="47.6638" lon="6.18087">
        <ele>176.89</ele>
        <time>2021-02-18T15:29:42Z</time>
      </trkpt>
      <trkpt lat="47.66376" lon="6.18082">
        <ele>176.87</ele>
        <time>2021-02-18T15:29:43Z</time>
      </trkpt>
      <trkpt lat="47.66372" lon="6.18078">
        <ele>176.86</ele>
        <time>2021-02-18T15:29:44Z</time>
      </trkpt>
      <trkpt lat="47.66369" lon="6.18073">
        <ele>176.83</ele>
        <time>2021-02-18T15:29:45Z</time>
      </trkpt>
      <trkpt lat="47.66365" lon="6.18068">
        <ele>176.84</ele>
        <time>2021-02-18T15:29:46Z</time>
      </trkpt>
      <trkpt lat="47.66362" lon="6.18063">
        <ele>176.85</ele>
        <time>2021-02-18T15:29:47Z</time>
      </trkpt>
      <trkpt lat="47.66359" lon="6.18058">
        <ele>176.87</ele>
        <time>2021-02-18T15:29:48Z</time>
      </trkpt>
      <trkpt lat="47.66355" lon="6.18053">
        <ele>176.86</ele>
        <time>2021-02-18T15:29:49Z</time>
      </trkpt>
      <trkpt lat="47.66352" lon="6.18047">
        <ele>176.88</ele>
        <time>2021-02-18T15:29:50Z</time>
      </trkpt>
      <trkpt lat="47.66349" lon="6.18042">
        <ele>176.91</ele>
        <time>2021-02-18T15:29:51Z</time>
      </trkpt>
      <trkpt lat="47.66346" lon="6.18037">
        <ele>176.94</ele>
        <time>2021-02-18T15:29:52Z</time>
      </trkpt>
      <trkpt lat="47.66341" lon="6.18025">
        <ele>176.94</ele>
        <time>2021-02-18T15:29:54Z</time>
      </trkpt>
      <trkpt lat="47.66337" lon="6.18016">
        <ele>177.02</ele>
        <time>2021-02-18T15:29:56Z</time>
      </trkpt>
      <trkpt lat="47.66335" lon="6.1801">
        <ele>177.05</ele>
        <time>2021-02-18T15:29:57Z</time>
      </trkpt>
      <trkpt lat="47.66332" lon="6.18003">
        <ele>176.2</ele>
        <time>2021-02-18T15:29:58Z</time>
      </trkpt>
      <trkpt lat="47.6633" lon="6.17996">
        <ele>175.98</ele>
        <time>2021-02-18T15:29:59Z</time>
      </trkpt>
      <trkpt lat="47.66327" lon="6.17986">
        <ele>175.87</ele>
        <time>2021-02-18T15:30:00Z</time>
      </trkpt>
      <trkpt lat="47.66321" lon="6.17977">
        <ele>175.82</ele>
        <time>2021-02-18T15:30:02Z</time>
      </trkpt>
      <trkpt lat="47.66313" lon="6.17973">
        <ele>175.81</ele>
        <time>2021-02-18T15:30:04Z</time>
      </trkpt>
      <trkpt lat="47.66307" lon="6.17973">
        <ele>175.77</ele>
        <time>2021-02-18T15:30:08Z</time>
      </trkpt>
      <trkpt lat="47.66298" lon="6.17972">
        <ele>175.8</ele>
        <time>2021-02-18T15:30:08Z</time>
      </trkpt>
      <trkpt lat="47.66289" lon="6.1797">
        <ele>175.79</ele>
        <time>2021-02-18T15:30:10Z</time>
      </trkpt>
      <trkpt lat="47.66285" lon="6.1797">
        <ele>175.79</ele>
        <time>2021-02-18T15:30:11Z</time>
      </trkpt>
      <trkpt lat="47.6628" lon="6.17969">
        <ele>175.84</ele>
        <time>2021-02-18T15:30:12Z</time>
      </trkpt>
      <trkpt lat="47.66275" lon="6.17969">
        <ele>175.84</ele>
        <time>2021-02-18T15:30:13Z</time>
      </trkpt>
      <trkpt lat="47.66266" lon="6.17968">
        <ele>175.83</ele>
        <time>2021-02-18T15:30:15Z</time>
      </trkpt>
      <trkpt lat="47.66262" lon="6.17968">
        <ele>175.82</ele>
        <time>2021-02-18T15:30:16Z</time>
      </trkpt>
      <trkpt lat="47.66257" lon="6.17966">
        <ele>175.81</ele>
        <time>2021-02-18T15:30:20Z</time>
      </trkpt>
      <trkpt lat="47.66246" lon="6.1797">
        <ele>175.82</ele>
        <time>2021-02-18T15:30:23Z</time>
      </trkpt>
      <trkpt lat="47.66235" lon="6.17966">
        <ele>175.89</ele>
        <time>2021-02-18T15:30:26Z</time>
      </trkpt>
      <trkpt lat="47.66231" lon="6.17965">
        <ele>175.88</ele>
        <time>2021-02-18T15:30:27Z</time>
      </trkpt>
      <trkpt lat="47.66222" lon="6.17963">
        <ele>175.85</ele>
        <time>2021-02-18T15:30:30Z</time>
      </trkpt>
      <trkpt lat="47.66214" lon="6.17962">
        <ele>175.85</ele>
        <time>2021-02-18T15:30:31Z</time>
      </trkpt>
      <trkpt lat="47.66207" lon="6.17961">
        <ele>175.9</ele>
        <time>2021-02-18T15:30:33Z</time>
      </trkpt>
      <trkpt lat="47.662" lon="6.1796">
        <ele>175.92</ele>
        <time>2021-02-18T15:30:35Z</time>
      </trkpt>
      <trkpt lat="47.6619" lon="6.17959">
        <ele>175.96</ele>
        <time>2021-02-18T15:30:38Z</time>
      </trkpt>
      <trkpt lat="47.66178" lon="6.17957">
        <ele>175.98</ele>
        <time>2021-02-18T15:30:41Z</time>
      </trkpt>
      <trkpt lat="47.66173" lon="6.17957">
        <ele>175.96</ele>
        <time>2021-02-18T15:30:42Z</time>
      </trkpt>
      <trkpt lat="47.66167" lon="6.17956">
        <ele>176</ele>
        <time>2021-02-18T15:30:44Z</time>
      </trkpt>
      <trkpt lat="47.6616" lon="6.17955">
        <ele>176</ele>
        <time>2021-02-18T15:30:46Z</time>
      </trkpt>
      <trkpt lat="47.66147" lon="6.17953">
        <ele>176.01</ele>
        <time>2021-02-18T15:30:47Z</time>
      </trkpt>
      <trkpt lat="47.66142" lon="6.17953">
        <ele>176.01</ele>
        <time>2021-02-18T15:30:51Z</time>
      </trkpt>
      <trkpt lat="47.66137" lon="6.17953">
        <ele>176</ele>
        <time>2021-02-18T15:30:52Z</time>
      </trkpt>
      <trkpt lat="47.66132" lon="6.17953">
        <ele>175.98</ele>
        <time>2021-02-18T15:30:53Z</time>
      </trkpt>
      <trkpt lat="47.6612" lon="6.17952">
        <ele>176.03</ele>
        <time>2021-02-18T15:30:56Z</time>
      </trkpt>
      <trkpt lat="47.66107" lon="6.17954">
        <ele>175.95</ele>
        <time>2021-02-18T15:30:56Z</time>
      </trkpt>
      <trkpt lat="47.66103" lon="6.17953">
        <ele>175.95</ele>
        <time>2021-02-18T15:30:57Z</time>
      </trkpt>
      <trkpt lat="47.66098" lon="6.17953">
        <ele>175.98</ele>
        <time>2021-02-18T15:30:58Z</time>
      </trkpt>
      <trkpt lat="47.66093" lon="6.17953">
        <ele>175.99</ele>
        <time>2021-02-18T15:30:59Z</time>
      </trkpt>
      <trkpt lat="47.66089" lon="6.17953">
        <ele>175.99</ele>
        <time>2021-02-18T15:31:00Z</time>
      </trkpt>
      <trkpt lat="47.66084" lon="6.17953">
        <ele>175.99</ele>
        <time>2021-02-18T15:31:01Z</time>
      </trkpt>
      <trkpt lat="47.66079" lon="6.17953">
        <ele>176</ele>
        <time>2021-02-18T15:31:02Z</time>
      </trkpt>
      <trkpt lat="47.66075" lon="6.17953">
        <ele>176.01</ele>
        <time>2021-02-18T15:31:03Z</time>
      </trkpt>
      <trkpt lat="47.6607" lon="6.17953">
        <ele>176.02</ele>
        <time>2021-02-18T15:31:04Z</time>
      </trkpt>
      <trkpt lat="47.66065" lon="6.17953">
        <ele>176</ele>
        <time>2021-02-18T15:31:05Z</time>
      </trkpt>
      <trkpt lat="47.6606" lon="6.17953">
        <ele>175.99</ele>
        <time>2021-02-18T15:31:06Z</time>
      </trkpt>
      <trkpt lat="47.66055" lon="6.17952">
        <ele>175.94</ele>
        <time>2021-02-18T15:31:07Z</time>
      </trkpt>
      <trkpt lat="47.66049" lon="6.17952">
        <ele>175.94</ele>
        <time>2021-02-18T15:31:08Z</time>
      </trkpt>
      <trkpt lat="47.66044" lon="6.17952">
        <ele>175.91</ele>
        <time>2021-02-18T15:31:09Z</time>
      </trkpt>
      <trkpt lat="47.66039" lon="6.17952">
        <ele>175.89</ele>
        <time>2021-02-18T15:31:10Z</time>
      </trkpt>
      <trkpt lat="47.66035" lon="6.17952">
        <ele>175.87</ele>
        <time>2021-02-18T15:31:11Z</time>
      </trkpt>
      <trkpt lat="47.6603" lon="6.17952">
        <ele>175.85</ele>
        <time>2021-02-18T15:31:12Z</time>
      </trkpt>
      <trkpt lat="47.66025" lon="6.17952">
        <ele>175.84</ele>
        <time>2021-02-18T15:31:13Z</time>
      </trkpt>
      <trkpt lat="47.66017" lon="6.17952">
        <ele>175.8</ele>
        <time>2021-02-18T15:31:15Z</time>
      </trkpt>
      <trkpt lat="47.66009" lon="6.17953">
        <ele>175.76</ele>
        <time>2021-02-18T15:31:17Z</time>
      </trkpt>
      <trkpt lat="47.66002" lon="6.17953">
        <ele>175.77</ele>
        <time>2021-02-18T15:31:19Z</time>
      </trkpt>
      <trkpt lat="47.65995" lon="6.17952">
        <ele>174.83</ele>
        <time>2021-02-18T15:31:21Z</time>
      </trkpt>
      <trkpt lat="47.65988" lon="6.1794">
        <ele>174.47</ele>
        <time>2021-02-18T15:31:25Z</time>
      </trkpt>
      <trkpt lat="47.65982" lon="6.17943">
        <ele>174.41</ele>
        <time>2021-02-18T15:31:27Z</time>
      </trkpt>
      <trkpt lat="47.65978" lon="6.17945">
        <ele>174.43</ele>
        <time>2021-02-18T15:31:28Z</time>
      </trkpt>
      <trkpt lat="47.65972" lon="6.17946">
        <ele>174.35</ele>
        <time>2021-02-18T15:31:28Z</time>
      </trkpt>
      <trkpt lat="47.65966" lon="6.17946">
        <ele>174.34</ele>
        <time>2021-02-18T15:31:30Z</time>
      </trkpt>
      <trkpt lat="47.65961" lon="6.17946">
        <ele>174.36</ele>
        <time>2021-02-18T15:31:34Z</time>
      </trkpt>
      <trkpt lat="47.65954" lon="6.17946">
        <ele>174.34</ele>
        <time>2021-02-18T15:31:37Z</time>
      </trkpt>
      <trkpt lat="47.65949" lon="6.17946">
        <ele>174.34</ele>
        <time>2021-02-18T15:31:38Z</time>
      </trkpt>
      <trkpt lat="47.65943" lon="6.17946">
        <ele>174.29</ele>
        <time>2021-02-18T15:31:41Z</time>
      </trkpt>
      <trkpt lat="47.65939" lon="6.17946">
        <ele>174.29</ele>
        <time>2021-02-18T15:31:42Z</time>
      </trkpt>
      <trkpt lat="47.65933" lon="6.17946">
        <ele>174.24</ele>
        <time>2021-02-18T15:31:44Z</time>
      </trkpt>
      <trkpt lat="47.65927" lon="6.17946">
        <ele>174.29</ele>
        <time>2021-02-18T15:31:44Z</time>
      </trkpt>
      <trkpt lat="47.6592" lon="6.17947">
        <ele>174.28</ele>
        <time>2021-02-18T15:31:47Z</time>
      </trkpt>
      <trkpt lat="47.65915" lon="6.17948">
        <ele>174.26</ele>
        <time>2021-02-18T15:31:50Z</time>
      </trkpt>
      <trkpt lat="47.6591" lon="6.17947">
        <ele>174.34</ele>
        <time>2021-02-18T15:31:55Z</time>
      </trkpt>
      <trkpt lat="47.65905" lon="6.17948">
        <ele>174.39</ele>
        <time>2021-02-18T15:31:58Z</time>
      </trkpt>
      <trkpt lat="47.659" lon="6.17948">
        <ele>174.42</ele>
        <time>2021-02-18T15:32:02Z</time>
      </trkpt>
      <trkpt lat="47.65895" lon="6.17951">
        <ele>174.42</ele>
        <time>2021-02-18T15:32:05Z</time>
      </trkpt>
      <trkpt lat="47.6589" lon="6.17957">
        <ele>174.41</ele>
        <time>2021-02-18T15:32:08Z</time>
      </trkpt>
      <trkpt lat="47.65885" lon="6.17954">
        <ele>174.39</ele>
        <time>2021-02-18T15:32:11Z</time>
      </trkpt>
      <trkpt lat="47.65879" lon="6.17954">
        <ele>174.41</ele>
        <time>2021-02-18T15:32:11Z</time>
      </trkpt>
      <trkpt lat="47.65874" lon="6.17954">
        <ele>174.4</ele>
        <time>2021-02-18T15:32:13Z</time>
      </trkpt>
      <trkpt lat="47.65868" lon="6.17956">
        <ele>174.39</ele>
        <time>2021-02-18T15:32:18Z</time>
      </trkpt>
      <trkpt lat="47.65863" lon="6.17958">
        <ele>174.38</ele>
        <time>2021-02-18T15:32:18Z</time>
      </trkpt>
      <trkpt lat="47.65857" lon="6.17962">
        <ele>174.33</ele>
        <time>2021-02-18T15:32:21Z</time>
      </trkpt>
      <trkpt lat="47.65852" lon="6.17964">
        <ele>174.28</ele>
        <time>2021-02-18T15:32:26Z</time>
      </trkpt>
      <trkpt lat="47.65848" lon="6.17967">
        <ele>174.28</ele>
        <time>2021-02-18T15:32:26Z</time>
      </trkpt>
      <trkpt lat="47.65843" lon="6.17971">
        <ele>174.24</ele>
        <time>2021-02-18T15:32:29Z</time>
      </trkpt>
      <trkpt lat="47.65838" lon="6.17974">
        <ele>174.25</ele>
        <time>2021-02-18T15:32:34Z</time>
      </trkpt>
      <trkpt lat="47.65833" lon="6.1798">
        <ele>174.26</ele>
        <time>2021-02-18T15:32:35Z</time>
      </trkpt>
      <trkpt lat="47.65828" lon="6.17984">
        <ele>174.24</ele>
        <time>2021-02-18T15:32:38Z</time>
      </trkpt>
      <trkpt lat="47.65824" lon="6.17988">
        <ele>174.27</ele>
        <time>2021-02-18T15:32:41Z</time>
      </trkpt>
      <trkpt lat="47.65818" lon="6.17991">
        <ele>174.26</ele>
        <time>2021-02-18T15:32:45Z</time>
      </trkpt>
      <trkpt lat="47.65812" lon="6.17994">
        <ele>174.28</ele>
        <time>2021-02-18T15:32:50Z</time>
      </trkpt>
      <trkpt lat="47.65808" lon="6.17996">
        <ele>174.23</ele>
        <time>2021-02-18T15:32:50Z</time>
      </trkpt>
      <trkpt lat="47.65803" lon="6.18">
        <ele>174.22</ele>
        <time>2021-02-18T15:32:56Z</time>
      </trkpt>
      <trkpt lat="47.65797" lon="6.18003">
        <ele>174.25</ele>
        <time>2021-02-18T15:32:56Z</time>
      </trkpt>
      <trkpt lat="47.65792" lon="6.18008">
        <ele>174.25</ele>
        <time>2021-02-18T15:32:59Z</time>
      </trkpt>
      <trkpt lat="47.65788" lon="6.18012">
        <ele>174.26</ele>
        <time>2021-02-18T15:33:04Z</time>
      </trkpt>
      <trkpt lat="47.65784" lon="6.18016">
        <ele>174.33</ele>
        <time>2021-02-18T15:33:04Z</time>
      </trkpt>
      <trkpt lat="47.6578" lon="6.18019">
        <ele>174.32</ele>
        <time>2021-02-18T15:33:06Z</time>
      </trkpt>
      <trkpt lat="47.65775" lon="6.18023">
        <ele>174.34</ele>
        <time>2021-02-18T15:33:10Z</time>
      </trkpt>
      <trkpt lat="47.65769" lon="6.18026">
        <ele>174.34</ele>
        <time>2021-02-18T15:33:12Z</time>
      </trkpt>
      <trkpt lat="47.65763" lon="6.18029">
        <ele>174.36</ele>
        <time>2021-02-18T15:33:13Z</time>
      </trkpt>
      <trkpt lat="47.65755" lon="6.18034">
        <ele>174.39</ele>
        <time>2021-02-18T15:33:15Z</time>
      </trkpt>
      <trkpt lat="47.65737" lon="6.18045">
        <ele>174.45</ele>
        <time>2021-02-18T15:33:18Z</time>
      </trkpt>
      <trkpt lat="47.6573" lon="6.1805">
        <ele>174.49</ele>
        <time>2021-02-18T15:33:20Z</time>
      </trkpt>
      <trkpt lat="47.65725" lon="6.18054">
        <ele>174.49</ele>
        <time>2021-02-18T15:33:20Z</time>
      </trkpt>
      <trkpt lat="47.65708" lon="6.18072">
        <ele>174.46</ele>
        <time>2021-02-18T15:33:20Z</time>
      </trkpt>
      <trkpt lat="47.65702" lon="6.1808">
        <ele>174.45</ele>
        <time>2021-02-18T15:33:21Z</time>
      </trkpt>
      <trkpt lat="47.65697" lon="6.18087">
        <ele>174.47</ele>
        <time>2021-02-18T15:33:22Z</time>
      </trkpt>
      <trkpt lat="47.65693" lon="6.18095">
        <ele>174.5</ele>
        <time>2021-02-18T15:33:23Z</time>
      </trkpt>
      <trkpt lat="47.65689" lon="6.18104">
        <ele>174.51</ele>
        <time>2021-02-18T15:33:24Z</time>
      </trkpt>
      <trkpt lat="47.65685" lon="6.18113">
        <ele>174.53</ele>
        <time>2021-02-18T15:33:25Z</time>
      </trkpt>
      <trkpt lat="47.65681" lon="6.18122">
        <ele>174.52</ele>
        <time>2021-02-18T15:33:26Z</time>
      </trkpt>
      <trkpt lat="47.65677" lon="6.18129">
        <ele>174.49</ele>
        <time>2021-02-18T15:33:27Z</time>
      </trkpt>
      <trkpt lat="47.65673" lon="6.18135">
        <ele>174.46</ele>
        <time>2021-02-18T15:33:28Z</time>
      </trkpt>
      <trkpt lat="47.65669" lon="6.1814">
        <ele>174.46</ele>
        <time>2021-02-18T15:33:29Z</time>
      </trkpt>
      <trkpt lat="47.65665" lon="6.18144">
        <ele>174.44</ele>
        <time>2021-02-18T15:33:30Z</time>
      </trkpt>
      <trkpt lat="47.65658" lon="6.18151">
        <ele>174.43</ele>
        <time>2021-02-18T15:33:32Z</time>
      </trkpt>
      <trkpt lat="47.65654" lon="6.18154">
        <ele>174.44</ele>
        <time>2021-02-18T15:33:33Z</time>
      </trkpt>
      <trkpt lat="47.65649" lon="6.18157">
        <ele>174.42</ele>
        <time>2021-02-18T15:33:34Z</time>
      </trkpt>
      <trkpt lat="47.65643" lon="6.18163">
        <ele>174.41</ele>
        <time>2021-02-18T15:33:36Z</time>
      </trkpt>
      <trkpt lat="47.65635" lon="6.18169">
        <ele>174.4</ele>
        <time>2021-02-18T15:33:38Z</time>
      </trkpt>
      <trkpt lat="47.6563" lon="6.18171">
        <ele>174.4</ele>
        <time>2021-02-18T15:33:39Z</time>
      </trkpt>
      <trkpt lat="47.65624" lon="6.18169">
        <ele>179.68</ele>
        <time>2021-02-18T15:33:40Z</time>
      </trkpt>
      <trkpt lat="47.65618" lon="6.18169">
        <ele>181.27</ele>
        <time>2021-02-18T15:33:41Z</time>
      </trkpt>
      <trkpt lat="47.65611" lon="6.18171">
        <ele>181.76</ele>
        <time>2021-02-18T15:33:42Z</time>
      </trkpt>
      <trkpt lat="47.65605" lon="6.18174">
        <ele>181.91</ele>
        <time>2021-02-18T15:33:43Z</time>
      </trkpt>
      <trkpt lat="47.656" lon="6.18178">
        <ele>181.95</ele>
        <time>2021-02-18T15:33:44Z</time>
      </trkpt>
      <trkpt lat="47.65596" lon="6.18182">
        <ele>181.96</ele>
        <time>2021-02-18T15:33:45Z</time>
      </trkpt>
      <trkpt lat="47.65594" lon="6.18189">
        <ele>181.98</ele>
        <time>2021-02-18T15:33:49Z</time>
      </trkpt>
      <trkpt lat="47.6559" lon="6.18196">
        <ele>181.97</ele>
        <time>2021-02-18T15:33:51Z</time>
      </trkpt>
      <trkpt lat="47.65587" lon="6.18202">
        <ele>181.94</ele>
        <time>2021-02-18T15:33:53Z</time>
      </trkpt>
      <trkpt lat="47.65582" lon="6.18206">
        <ele>182.14</ele>
        <time>2021-02-18T15:33:54Z</time>
      </trkpt>
      <trkpt lat="47.65578" lon="6.1821">
        <ele>182.11</ele>
        <time>2021-02-18T15:33:56Z</time>
      </trkpt>
      <trkpt lat="47.65574" lon="6.18216">
        <ele>182.08</ele>
        <time>2021-02-18T15:33:58Z</time>
      </trkpt>
      <trkpt lat="47.65569" lon="6.18221">
        <ele>182.08</ele>
        <time>2021-02-18T15:33:59Z</time>
      </trkpt>
      <trkpt lat="47.6556" lon="6.18231">
        <ele>182.12</ele>
        <time>2021-02-18T15:34:02Z</time>
      </trkpt>
      <trkpt lat="47.65555" lon="6.18235">
        <ele>182.15</ele>
        <time>2021-02-18T15:34:04Z</time>
      </trkpt>
      <trkpt lat="47.65546" lon="6.18241">
        <ele>182.18</ele>
        <time>2021-02-18T15:34:07Z</time>
      </trkpt>
      <trkpt lat="47.65533" lon="6.18246">
        <ele>182.21</ele>
        <time>2021-02-18T15:34:11Z</time>
      </trkpt>
      <trkpt lat="47.65526" lon="6.18249">
        <ele>182.24</ele>
        <time>2021-02-18T15:34:12Z</time>
      </trkpt>
      <trkpt lat="47.65512" lon="6.18254">
        <ele>182.23</ele>
        <time>2021-02-18T15:34:12Z</time>
      </trkpt>
      <trkpt lat="47.65507" lon="6.18256">
        <ele>182.21</ele>
        <time>2021-02-18T15:34:13Z</time>
      </trkpt>
      <trkpt lat="47.65502" lon="6.18258">
        <ele>182.21</ele>
        <time>2021-02-18T15:34:14Z</time>
      </trkpt>
      <trkpt lat="47.65496" lon="6.1826">
        <ele>182.2</ele>
        <time>2021-02-18T15:34:15Z</time>
      </trkpt>
      <trkpt lat="47.65491" lon="6.18261">
        <ele>182.19</ele>
        <time>2021-02-18T15:34:16Z</time>
      </trkpt>
      <trkpt lat="47.65486" lon="6.18263">
        <ele>182.21</ele>
        <time>2021-02-18T15:34:17Z</time>
      </trkpt>
      <trkpt lat="47.6548" lon="6.18264">
        <ele>182.25</ele>
        <time>2021-02-18T15:34:18Z</time>
      </trkpt>
      <trkpt lat="47.65475" lon="6.18265">
        <ele>182.26</ele>
        <time>2021-02-18T15:34:19Z</time>
      </trkpt>
      <trkpt lat="47.65469" lon="6.18265">
        <ele>182.28</ele>
        <time>2021-02-18T15:34:20Z</time>
      </trkpt>
      <trkpt lat="47.65463" lon="6.18265">
        <ele>182.3</ele>
        <time>2021-02-18T15:34:21Z</time>
      </trkpt>
      <trkpt lat="47.65456" lon="6.18265">
        <ele>182.28</ele>
        <time>2021-02-18T15:34:22Z</time>
      </trkpt>
      <trkpt lat="47.6545" lon="6.18263">
        <ele>182.23</ele>
        <time>2021-02-18T15:34:23Z</time>
      </trkpt>
      <trkpt lat="47.65443" lon="6.18261">
        <ele>182.21</ele>
        <time>2021-02-18T15:34:24Z</time>
      </trkpt>
      <trkpt lat="47.65436" lon="6.18258">
        <ele>182.19</ele>
        <time>2021-02-18T15:34:25Z</time>
      </trkpt>
      <trkpt lat="47.65429" lon="6.18255">
        <ele>182.21</ele>
        <time>2021-02-18T15:34:26Z</time>
      </trkpt>
      <trkpt lat="47.65422" lon="6.18252">
        <ele>182.17</ele>
        <time>2021-02-18T15:34:27Z</time>
      </trkpt>
      <trkpt lat="47.65415" lon="6.18248">
        <ele>182.15</ele>
        <time>2021-02-18T15:34:28Z</time>
      </trkpt>
      <trkpt lat="47.65409" lon="6.18244">
        <ele>182.13</ele>
        <time>2021-02-18T15:34:29Z</time>
      </trkpt>
      <trkpt lat="47.65402" lon="6.1824">
        <ele>182.11</ele>
        <time>2021-02-18T15:34:30Z</time>
      </trkpt>
      <trkpt lat="47.65396" lon="6.18235">
        <ele>182.12</ele>
        <time>2021-02-18T15:34:31Z</time>
      </trkpt>
      <trkpt lat="47.65389" lon="6.18231">
        <ele>182.14</ele>
        <time>2021-02-18T15:34:32Z</time>
      </trkpt>
      <trkpt lat="47.65383" lon="6.18226">
        <ele>182.14</ele>
        <time>2021-02-18T15:34:33Z</time>
      </trkpt>
      <trkpt lat="47.65378" lon="6.18221">
        <ele>182.15</ele>
        <time>2021-02-18T15:34:34Z</time>
      </trkpt>
      <trkpt lat="47.65372" lon="6.18215">
        <ele>182.18</ele>
        <time>2021-02-18T15:34:35Z</time>
      </trkpt>
      <trkpt lat="47.65367" lon="6.1821">
        <ele>182.19</ele>
        <time>2021-02-18T15:34:36Z</time>
      </trkpt>
      <trkpt lat="47.65361" lon="6.18205">
        <ele>182.17</ele>
        <time>2021-02-18T15:34:37Z</time>
      </trkpt>
      <trkpt lat="47.65356" lon="6.18199">
        <ele>182.16</ele>
        <time>2021-02-18T15:34:38Z</time>
      </trkpt>
      <trkpt lat="47.65352" lon="6.18194">
        <ele>182.2</ele>
        <time>2021-02-18T15:34:39Z</time>
      </trkpt>
      <trkpt lat="47.65347" lon="6.18188">
        <ele>182.19</ele>
        <time>2021-02-18T15:34:40Z</time>
      </trkpt>
      <trkpt lat="47.65343" lon="6.18182">
        <ele>182.19</ele>
        <time>2021-02-18T15:34:41Z</time>
      </trkpt>
      <trkpt lat="47.65339" lon="6.18176">
        <ele>182.18</ele>
        <time>2021-02-18T15:34:42Z</time>
      </trkpt>
      <trkpt lat="47.65335" lon="6.18171">
        <ele>182.19</ele>
        <time>2021-02-18T15:34:43Z</time>
      </trkpt>
      <trkpt lat="47.65331" lon="6.18165">
        <ele>182.2</ele>
        <time>2021-02-18T15:34:44Z</time>
      </trkpt>
      <trkpt lat="47.65328" lon="6.1816">
        <ele>182.21</ele>
        <time>2021-02-18T15:34:45Z</time>
      </trkpt>
      <trkpt lat="47.65325" lon="6.18154">
        <ele>182.25</ele>
        <time>2021-02-18T15:34:46Z</time>
      </trkpt>
      <trkpt lat="47.65321" lon="6.18148">
        <ele>182.26</ele>
        <time>2021-02-18T15:34:47Z</time>
      </trkpt>
      <trkpt lat="47.65319" lon="6.18142">
        <ele>182.26</ele>
        <time>2021-02-18T15:34:48Z</time>
      </trkpt>
      <trkpt lat="47.65314" lon="6.18131">
        <ele>182.27</ele>
        <time>2021-02-18T15:34:50Z</time>
      </trkpt>
      <trkpt lat="47.6531" lon="6.18119">
        <ele>182.28</ele>
        <time>2021-02-18T15:34:52Z</time>
      </trkpt>
      <trkpt lat="47.65306" lon="6.18109">
        <ele>182.25</ele>
        <time>2021-02-18T15:34:54Z</time>
      </trkpt>
      <trkpt lat="47.65305" lon="6.18102">
        <ele>177.97</ele>
        <time>2021-02-18T15:34:55Z</time>
      </trkpt>
      <trkpt lat="47.65302" lon="6.1809">
        <ele>213.66</ele>
        <time>2021-02-18T15:34:57Z</time>
      </trkpt>
      <trkpt lat="47.653" lon="6.18083">
        <ele>228.08</ele>
        <time>2021-02-18T15:35:01Z</time>
      </trkpt>
      <trkpt lat="47.65299" lon="6.18075">
        <ele>229.38</ele>
        <time>2021-02-18T15:35:02Z</time>
      </trkpt>
      <trkpt lat="47.65297" lon="6.18058">
        <ele>229.51</ele>
        <time>2021-02-18T15:35:05Z</time>
      </trkpt>
      <trkpt lat="47.65296" lon="6.1805">
        <ele>229.51</ele>
        <time>2021-02-18T15:35:07Z</time>
      </trkpt>
      <trkpt lat="47.65291" lon="6.1803">
        <ele>229.51</ele>
        <time>2021-02-18T15:35:10Z</time>
      </trkpt>
      <trkpt lat="47.65289" lon="6.18024">
        <ele>229.51</ele>
        <time>2021-02-18T15:35:11Z</time>
      </trkpt>
      <trkpt lat="47.65286" lon="6.18016">
        <ele>229.51</ele>
        <time>2021-02-18T15:35:13Z</time>
      </trkpt>
      <trkpt lat="47.65278" lon="6.18001">
        <ele>229.51</ele>
        <time>2021-02-18T15:35:13Z</time>
      </trkpt>
      <trkpt lat="47.65274" lon="6.17994">
        <ele>229.51</ele>
        <time>2021-02-18T15:35:17Z</time>
      </trkpt>
      <trkpt lat="47.65267" lon="6.17985">
        <ele>229.51</ele>
        <time>2021-02-18T15:35:17Z</time>
      </trkpt>
      <trkpt lat="47.65261" lon="6.17981">
        <ele>229.51</ele>
        <time>2021-02-18T15:35:21Z</time>
      </trkpt>
      <trkpt lat="47.65255" lon="6.17979">
        <ele>229.51</ele>
        <time>2021-02-18T15:35:23Z</time>
      </trkpt>
      <trkpt lat="47.6525" lon="6.17977">
        <ele>229.51</ele>
        <time>2021-02-18T15:35:24Z</time>
      </trkpt>
      <trkpt lat="47.65242" lon="6.17973">
        <ele>229.51</ele>
        <time>2021-02-18T15:35:24Z</time>
      </trkpt>
      <trkpt lat="47.65234" lon="6.17973">
        <ele>229.51</ele>
        <time>2021-02-18T15:35:26Z</time>
      </trkpt>
      <trkpt lat="47.65228" lon="6.17975">
        <ele>229.51</ele>
        <time>2021-02-18T15:35:30Z</time>
      </trkpt>
      <trkpt lat="47.65217" lon="6.17981">
        <ele>229.51</ele>
        <time>2021-02-18T15:35:33Z</time>
      </trkpt>
      <trkpt lat="47.65213" lon="6.17984">
        <ele>229.51</ele>
        <time>2021-02-18T15:35:34Z</time>
      </trkpt>
      <trkpt lat="47.65208" lon="6.17988">
        <ele>229.51</ele>
        <time>2021-02-18T15:35:36Z</time>
      </trkpt>
      <trkpt lat="47.65199" lon="6.17999">
        <ele>229.51</ele>
        <time>2021-02-18T15:35:39Z</time>
      </trkpt>
      <trkpt lat="47.6519" lon="6.18013">
        <ele>229.51</ele>
        <time>2021-02-18T15:35:42Z</time>
      </trkpt>
      <trkpt lat="47.65187" lon="6.1802">
        <ele>229.51</ele>
        <time>2021-02-18T15:35:43Z</time>
      </trkpt>
      <trkpt lat="47.65176" lon="6.18037">
        <ele>229.51</ele>
        <time>2021-02-18T15:35:43Z</time>
      </trkpt>
      <trkpt lat="47.65172" lon="6.18043">
        <ele>229.51</ele>
        <time>2021-02-18T15:35:44Z</time>
      </trkpt>
      <trkpt lat="47.65168" lon="6.1805">
        <ele>229.51</ele>
        <time>2021-02-18T15:35:45Z</time>
      </trkpt>
      <trkpt lat="47.65164" lon="6.18057">
        <ele>229.51</ele>
        <time>2021-02-18T15:35:46Z</time>
      </trkpt>
      <trkpt lat="47.65159" lon="6.18064">
        <ele>229.51</ele>
        <time>2021-02-18T15:35:50Z</time>
      </trkpt>
      <trkpt lat="47.65155" lon="6.1807">
        <ele>229.51</ele>
        <time>2021-02-18T15:35:51Z</time>
      </trkpt>
      <trkpt lat="47.65146" lon="6.18078">
        <ele>229.51</ele>
        <time>2021-02-18T15:35:51Z</time>
      </trkpt>
      <trkpt lat="47.65142" lon="6.18082">
        <ele>229.51</ele>
        <time>2021-02-18T15:35:52Z</time>
      </trkpt>
      <trkpt lat="47.65138" lon="6.18085">
        <ele>229.51</ele>
        <time>2021-02-18T15:35:53Z</time>
      </trkpt>
      <trkpt lat="47.65134" lon="6.18088">
        <ele>229.51</ele>
        <time>2021-02-18T15:35:54Z</time>
      </trkpt>
      <trkpt lat="47.65129" lon="6.18091">
        <ele>229.51</ele>
        <time>2021-02-18T15:35:55Z</time>
      </trkpt>
      <trkpt lat="47.65125" lon="6.18093">
        <ele>229.51</ele>
        <time>2021-02-18T15:35:56Z</time>
      </trkpt>
      <trkpt lat="47.65121" lon="6.18095">
        <ele>229.51</ele>
        <time>2021-02-18T15:35:57Z</time>
      </trkpt>
      <trkpt lat="47.65116" lon="6.181">
        <ele>229.51</ele>
        <time>2021-02-18T15:36:01Z</time>
      </trkpt>
      <trkpt lat="47.65107" lon="6.18102">
        <ele>229.51</ele>
        <time>2021-02-18T15:36:03Z</time>
      </trkpt>
      <trkpt lat="47.6509" lon="6.181">
        <ele>229.51</ele>
        <time>2021-02-18T15:36:03Z</time>
      </trkpt>
      <trkpt lat="47.65085" lon="6.181">
        <ele>229.51</ele>
        <time>2021-02-18T15:36:04Z</time>
      </trkpt>
      <trkpt lat="47.6508" lon="6.18099">
        <ele>229.51</ele>
        <time>2021-02-18T15:36:05Z</time>
      </trkpt>
      <trkpt lat="47.65073" lon="6.18099">
        <ele>229.51</ele>
        <time>2021-02-18T15:36:09Z</time>
      </trkpt>
      <trkpt lat="47.65063" lon="6.18096">
        <ele>229.51</ele>
        <time>2021-02-18T15:36:12Z</time>
      </trkpt>
      <trkpt lat="47.65049" lon="6.18093">
        <ele>229.51</ele>
        <time>2021-02-18T15:36:15Z</time>
      </trkpt>
      <trkpt lat="47.65043" lon="6.18093">
        <ele>229.51</ele>
        <time>2021-02-18T15:36:16Z</time>
      </trkpt>
      <trkpt lat="47.65037" lon="6.18093">
        <ele>229.51</ele>
        <time>2021-02-18T15:36:18Z</time>
      </trkpt>
      <trkpt lat="47.6503" lon="6.18093">
        <ele>229.51</ele>
        <time>2021-02-18T15:36:20Z</time>
      </trkpt>
      <trkpt lat="47.65018" lon="6.18093">
        <ele>229.51</ele>
        <time>2021-02-18T15:36:24Z</time>
      </trkpt>
      <trkpt lat="47.65012" lon="6.18093">
        <ele>229.51</ele>
        <time>2021-02-18T15:36:25Z</time>
      </trkpt>
      <trkpt lat="47.65004" lon="6.18093">
        <ele>229.51</ele>
        <time>2021-02-18T15:36:25Z</time>
      </trkpt>
      <trkpt lat="47.64998" lon="6.18092">
        <ele>229.51</ele>
        <time>2021-02-18T15:36:29Z</time>
      </trkpt>
      <trkpt lat="47.64988" lon="6.18093">
        <ele>229.51</ele>
        <time>2021-02-18T15:36:32Z</time>
      </trkpt>
      <trkpt lat="47.64984" lon="6.18094">
        <ele>229.51</ele>
        <time>2021-02-18T15:36:33Z</time>
      </trkpt>
      <trkpt lat="47.64977" lon="6.18095">
        <ele>229.51</ele>
        <time>2021-02-18T15:36:35Z</time>
      </trkpt>
      <trkpt lat="47.64969" lon="6.18096">
        <ele>229.51</ele>
        <time>2021-02-18T15:36:37Z</time>
      </trkpt>
      <trkpt lat="47.64958" lon="6.18095">
        <ele>229.51</ele>
        <time>2021-02-18T15:36:40Z</time>
      </trkpt>
      <trkpt lat="47.64952" lon="6.18095">
        <ele>229.51</ele>
        <time>2021-02-18T15:36:42Z</time>
      </trkpt>
      <trkpt lat="47.64946" lon="6.18095">
        <ele>229.51</ele>
        <time>2021-02-18T15:36:43Z</time>
      </trkpt>
      <trkpt lat="47.64939" lon="6.18094">
        <ele>229.51</ele>
        <time>2021-02-18T15:36:44Z</time>
      </trkpt>
      <trkpt lat="47.64931" lon="6.18093">
        <ele>229.51</ele>
        <time>2021-02-18T15:36:46Z</time>
      </trkpt>
      <trkpt lat="47.64926" lon="6.18092">
        <ele>229.51</ele>
        <time>2021-02-18T15:36:47Z</time>
      </trkpt>
      <trkpt lat="47.64918" lon="6.18091">
        <ele>229.51</ele>
        <time>2021-02-18T15:36:49Z</time>
      </trkpt>
      <trkpt lat="47.64911" lon="6.18088">
        <ele>229.51</ele>
        <time>2021-02-18T15:36:51Z</time>
      </trkpt>
      <trkpt lat="47.64906" lon="6.18088">
        <ele>229.51</ele>
        <time>2021-02-18T15:36:52Z</time>
      </trkpt>
      <trkpt lat="47.64901" lon="6.18087">
        <ele>229.51</ele>
        <time>2021-02-18T15:36:53Z</time>
      </trkpt>
      <trkpt lat="47.64897" lon="6.18086">
        <ele>229.51</ele>
        <time>2021-02-18T15:36:54Z</time>
      </trkpt>
      <trkpt lat="47.64883" lon="6.18081">
        <ele>229.51</ele>
        <time>2021-02-18T15:36:58Z</time>
      </trkpt>
      <trkpt lat="47.64877" lon="6.18079">
        <ele>229.51</ele>
        <time>2021-02-18T15:36:59Z</time>
      </trkpt>
      <trkpt lat="47.64871" lon="6.18077">
        <ele>229.51</ele>
        <time>2021-02-18T15:37:01Z</time>
      </trkpt>
      <trkpt lat="47.64864" lon="6.18076">
        <ele>229.51</ele>
        <time>2021-02-18T15:37:02Z</time>
      </trkpt>
      <trkpt lat="47.64856" lon="6.18074">
        <ele>229.51</ele>
        <time>2021-02-18T15:37:04Z</time>
      </trkpt>
      <trkpt lat="47.64849" lon="6.18073">
        <ele>229.51</ele>
        <time>2021-02-18T15:37:04Z</time>
      </trkpt>
      <trkpt lat="47.64844" lon="6.18072">
        <ele>229.51</ele>
        <time>2021-02-18T15:37:08Z</time>
      </trkpt>
      <trkpt lat="47.64835" lon="6.18068">
        <ele>229.51</ele>
        <time>2021-02-18T15:37:10Z</time>
      </trkpt>
      <trkpt lat="47.64828" lon="6.18067">
        <ele>229.51</ele>
        <time>2021-02-18T15:37:12Z</time>
      </trkpt>
      <trkpt lat="47.64822" lon="6.18066">
        <ele>229.51</ele>
        <time>2021-02-18T15:37:14Z</time>
      </trkpt>
      <trkpt lat="47.64817" lon="6.18065">
        <ele>229.51</ele>
        <time>2021-02-18T15:37:15Z</time>
      </trkpt>
      <trkpt lat="47.64798" lon="6.1806">
        <ele>229.51</ele>
        <time>2021-02-18T15:37:16Z</time>
      </trkpt>
      <trkpt lat="47.64793" lon="6.18063">
        <ele>229.51</ele>
        <time>2021-02-18T15:37:20Z</time>
      </trkpt>
      <trkpt lat="47.64783" lon="6.18058">
        <ele>229.51</ele>
        <time>2021-02-18T15:37:20Z</time>
      </trkpt>
      <trkpt lat="47.64776" lon="6.1805">
        <ele>229.51</ele>
        <time>2021-02-18T15:37:24Z</time>
      </trkpt>
      <trkpt lat="47.64772" lon="6.18045">
        <ele>229.51</ele>
        <time>2021-02-18T15:37:26Z</time>
      </trkpt>
      <trkpt lat="47.64767" lon="6.18039">
        <ele>229.51</ele>
        <time>2021-02-18T15:37:27Z</time>
      </trkpt>
      <trkpt lat="47.64763" lon="6.18035">
        <ele>229.51</ele>
        <time>2021-02-18T15:37:28Z</time>
      </trkpt>
      <trkpt lat="47.64754" lon="6.18022">
        <ele>229.51</ele>
        <time>2021-02-18T15:37:29Z</time>
      </trkpt>
      <trkpt lat="47.64749" lon="6.18014">
        <ele>229.51</ele>
        <time>2021-02-18T15:37:33Z</time>
      </trkpt>
      <trkpt lat="47.64744" lon="6.18006">
        <ele>229.51</ele>
        <time>2021-02-18T15:37:35Z</time>
      </trkpt>
      <trkpt lat="47.64738" lon="6.17997">
        <ele>229.51</ele>
        <time>2021-02-18T15:37:35Z</time>
      </trkpt>
      <trkpt lat="47.64733" lon="6.17989">
        <ele>229.51</ele>
        <time>2021-02-18T15:37:40Z</time>
      </trkpt>
      <trkpt lat="47.64728" lon="6.17982">
        <ele>229.51</ele>
        <time>2021-02-18T15:37:41Z</time>
      </trkpt>
      <trkpt lat="47.64724" lon="6.17975">
        <ele>229.51</ele>
        <time>2021-02-18T15:37:43Z</time>
      </trkpt>
      <trkpt lat="47.64722" lon="6.1797">
        <ele>229.51</ele>
        <time>2021-02-18T15:37:44Z</time>
      </trkpt>
      <trkpt lat="47.64718" lon="6.17963">
        <ele>229.51</ele>
        <time>2021-02-18T15:37:46Z</time>
      </trkpt>
      <trkpt lat="47.64712" lon="6.17952">
        <ele>229.51</ele>
        <time>2021-02-18T15:37:46Z</time>
      </trkpt>
      <trkpt lat="47.64707" lon="6.17945">
        <ele>229.51</ele>
        <time>2021-02-18T15:37:51Z</time>
      </trkpt>
      <trkpt lat="47.64703" lon="6.17939">
        <ele>229.51</ele>
        <time>2021-02-18T15:37:52Z</time>
      </trkpt>
      <trkpt lat="47.64697" lon="6.17931">
        <ele>229.51</ele>
        <time>2021-02-18T15:37:54Z</time>
      </trkpt>
      <trkpt lat="47.64693" lon="6.17926">
        <ele>229.51</ele>
        <time>2021-02-18T15:37:55Z</time>
      </trkpt>
      <trkpt lat="47.64687" lon="6.17918">
        <ele>229.51</ele>
        <time>2021-02-18T15:37:55Z</time>
      </trkpt>
      <trkpt lat="47.64682" lon="6.17913">
        <ele>229.51</ele>
        <time>2021-02-18T15:37:59Z</time>
      </trkpt>
      <trkpt lat="47.64677" lon="6.17909">
        <ele>229.51</ele>
        <time>2021-02-18T15:38:01Z</time>
      </trkpt>
      <trkpt lat="47.64663" lon="6.17901">
        <ele>229.51</ele>
        <time>2021-02-18T15:38:04Z</time>
      </trkpt>
      <trkpt lat="47.64655" lon="6.17897">
        <ele>229.51</ele>
        <time>2021-02-18T15:38:04Z</time>
      </trkpt>
      <trkpt lat="47.64649" lon="6.17893">
        <ele>229.51</ele>
        <time>2021-02-18T15:38:08Z</time>
      </trkpt>
      <trkpt lat="47.64638" lon="6.17888">
        <ele>229.51</ele>
        <time>2021-02-18T15:38:11Z</time>
      </trkpt>
      <trkpt lat="47.64634" lon="6.17886">
        <ele>229.51</ele>
        <time>2021-02-18T15:38:12Z</time>
      </trkpt>
      <trkpt lat="47.64628" lon="6.17884">
        <ele>229.51</ele>
        <time>2021-02-18T15:38:14Z</time>
      </trkpt>
      <trkpt lat="47.64613" lon="6.17886">
        <ele>229.51</ele>
        <time>2021-02-18T15:38:17Z</time>
      </trkpt>
      <trkpt lat="47.64602" lon="6.17893">
        <ele>229.51</ele>
        <time>2021-02-18T15:38:21Z</time>
      </trkpt>
      <trkpt lat="47.64597" lon="6.17896">
        <ele>229.51</ele>
        <time>2021-02-18T15:38:22Z</time>
      </trkpt>
      <trkpt lat="47.64588" lon="6.17905">
        <ele>229.51</ele>
        <time>2021-02-18T15:38:25Z</time>
      </trkpt>
      <trkpt lat="47.64584" lon="6.17909">
        <ele>229.51</ele>
        <time>2021-02-18T15:38:27Z</time>
      </trkpt>
      <trkpt lat="47.64579" lon="6.17915">
        <ele>229.51</ele>
        <time>2021-02-18T15:38:30Z</time>
      </trkpt>
      <trkpt lat="47.64572" lon="6.17926">
        <ele>229.51</ele>
        <time>2021-02-18T15:38:33Z</time>
      </trkpt>
      <trkpt lat="47.64567" lon="6.17936">
        <ele>229.51</ele>
        <time>2021-02-18T15:38:33Z</time>
      </trkpt>
      <trkpt lat="47.64565" lon="6.17945">
        <ele>229.51</ele>
        <time>2021-02-18T15:38:35Z</time>
      </trkpt>
      <trkpt lat="47.64562" lon="6.17955">
        <ele>229.51</ele>
        <time>2021-02-18T15:38:37Z</time>
      </trkpt>
      <trkpt lat="47.64559" lon="6.17965">
        <ele>229.51</ele>
        <time>2021-02-18T15:38:39Z</time>
      </trkpt>
      <trkpt lat="47.64556" lon="6.17972">
        <ele>229.51</ele>
        <time>2021-02-18T15:38:43Z</time>
      </trkpt>
      <trkpt lat="47.64554" lon="6.17979">
        <ele>229.51</ele>
        <time>2021-02-18T15:38:44Z</time>
      </trkpt>
      <trkpt lat="47.64552" lon="6.17986">
        <ele>229.51</ele>
        <time>2021-02-18T15:38:46Z</time>
      </trkpt>
      <trkpt lat="47.64549" lon="6.17994">
        <ele>229.51</ele>
        <time>2021-02-18T15:38:48Z</time>
      </trkpt>
      <trkpt lat="47.64546" lon="6.18003">
        <ele>229.51</ele>
        <time>2021-02-18T15:38:51Z</time>
      </trkpt>
      <trkpt lat="47.64543" lon="6.18012">
        <ele>229.51</ele>
        <time>2021-02-18T15:38:53Z</time>
      </trkpt>
      <trkpt lat="47.6454" lon="6.18019">
        <ele>229.51</ele>
        <time>2021-02-18T15:38:55Z</time>
      </trkpt>
      <trkpt lat="47.64535" lon="6.18028">
        <ele>229.51</ele>
        <time>2021-02-18T15:38:57Z</time>
      </trkpt>
      <trkpt lat="47.64531" lon="6.18033">
        <ele>229.51</ele>
        <time>2021-02-18T15:38:59Z</time>
      </trkpt>
      <trkpt lat="47.64525" lon="6.18037">
        <ele>229.51</ele>
        <time>2021-02-18T15:39:00Z</time>
      </trkpt>
      <trkpt lat="47.64518" lon="6.1804">
        <ele>229.51</ele>
        <time>2021-02-18T15:39:01Z</time>
      </trkpt>
      <trkpt lat="47.64513" lon="6.18041">
        <ele>229.51</ele>
        <time>2021-02-18T15:39:02Z</time>
      </trkpt>
      <trkpt lat="47.64507" lon="6.18042">
        <ele>229.51</ele>
        <time>2021-02-18T15:39:03Z</time>
      </trkpt>
      <trkpt lat="47.64486" lon="6.18038">
        <ele>229.51</ele>
        <time>2021-02-18T15:39:03Z</time>
      </trkpt>
      <trkpt lat="47.6448" lon="6.18034">
        <ele>229.51</ele>
        <time>2021-02-18T15:39:04Z</time>
      </trkpt>
      <trkpt lat="47.64476" lon="6.1803">
        <ele>229.51</ele>
        <time>2021-02-18T15:39:05Z</time>
      </trkpt>
      <trkpt lat="47.64471" lon="6.18031">
        <ele>229.51</ele>
        <time>2021-02-18T15:39:09Z</time>
      </trkpt>
      <trkpt lat="47.64467" lon="6.18029">
        <ele>229.51</ele>
        <time>2021-02-18T15:39:11Z</time>
      </trkpt>
      <trkpt lat="47.64464" lon="6.18037">
        <ele>229.51</ele>
        <time>2021-02-18T15:39:14Z</time>
      </trkpt>
      <trkpt lat="47.64469" lon="6.18041">
        <ele>223.86</ele>
        <time>2021-02-18T15:39:26Z</time>
      </trkpt>
      <trkpt lat="47.64473" lon="6.18045">
        <ele>223.82</ele>
        <time>2021-02-18T15:39:29Z</time>
      </trkpt>
      <trkpt lat="47.64482" lon="6.18048">
        <ele>223.81</ele>
        <time>2021-02-18T15:39:32Z</time>
      </trkpt>
      <trkpt lat="47.64487" lon="6.18049">
        <ele>223.81</ele>
        <time>2021-02-18T15:39:33Z</time>
      </trkpt>
      <trkpt lat="47.64501" lon="6.18054">
        <ele>223.81</ele>
        <time>2021-02-18T15:39:37Z</time>
      </trkpt>
      <trkpt lat="47.64504" lon="6.18059">
        <ele>223.81</ele>
        <time>2021-02-18T15:39:38Z</time>
      </trkpt>
      <trkpt lat="47.64504" lon="6.18068">
        <ele>223.81</ele>
        <time>2021-02-18T15:39:40Z</time>
      </trkpt>
      <trkpt lat="47.64503" lon="6.18075">
        <ele>223.81</ele>
        <time>2021-02-18T15:39:42Z</time>
      </trkpt>
      <trkpt lat="47.64499" lon="6.1809">
        <ele>223.81</ele>
        <time>2021-02-18T15:39:45Z</time>
      </trkpt>
      <trkpt lat="47.64498" lon="6.18098">
        <ele>223.81</ele>
        <time>2021-02-18T15:39:46Z</time>
      </trkpt>
      <trkpt lat="47.64496" lon="6.18111">
        <ele>223.81</ele>
        <time>2021-02-18T15:39:47Z</time>
      </trkpt>
      <trkpt lat="47.64494" lon="6.18121">
        <ele>223.81</ele>
        <time>2021-02-18T15:39:50Z</time>
      </trkpt>
      <trkpt lat="47.64493" lon="6.1813">
        <ele>223.81</ele>
        <time>2021-02-18T15:39:51Z</time>
      </trkpt>
      <trkpt lat="47.64493" lon="6.18141">
        <ele>223.81</ele>
        <time>2021-02-18T15:39:53Z</time>
      </trkpt>
      <trkpt lat="47.64493" lon="6.18152">
        <ele>223.81</ele>
        <time>2021-02-18T15:39:55Z</time>
      </trkpt>
      <trkpt lat="47.64495" lon="6.18159">
        <ele>223.81</ele>
        <time>2021-02-18T15:39:56Z</time>
      </trkpt>
      <trkpt lat="47.64498" lon="6.18168">
        <ele>223.81</ele>
        <time>2021-02-18T15:39:58Z</time>
      </trkpt>
      <trkpt lat="47.64499" lon="6.18175">
        <ele>223.81</ele>
        <time>2021-02-18T15:39:59Z</time>
      </trkpt>
      <trkpt lat="47.64497" lon="6.1819">
        <ele>223.81</ele>
        <time>2021-02-18T15:40:01Z</time>
      </trkpt>
      <trkpt lat="47.64495" lon="6.18197">
        <ele>223.81</ele>
        <time>2021-02-18T15:40:04Z</time>
      </trkpt>
      <trkpt lat="47.64493" lon="6.18205">
        <ele>223.81</ele>
        <time>2021-02-18T15:40:06Z</time>
      </trkpt>
      <trkpt lat="47.64491" lon="6.18213">
        <ele>223.81</ele>
        <time>2021-02-18T15:40:07Z</time>
      </trkpt>
      <trkpt lat="47.64489" lon="6.18221">
        <ele>223.81</ele>
        <time>2021-02-18T15:40:10Z</time>
      </trkpt>
      <trkpt lat="47.64486" lon="6.18228">
        <ele>223.81</ele>
        <time>2021-02-18T15:40:12Z</time>
      </trkpt>
      <trkpt lat="47.64482" lon="6.18236">
        <ele>223.81</ele>
        <time>2021-02-18T15:40:14Z</time>
      </trkpt>
      <trkpt lat="47.64479" lon="6.18242">
        <ele>223.81</ele>
        <time>2021-02-18T15:40:15Z</time>
      </trkpt>
      <trkpt lat="47.64477" lon="6.18249">
        <ele>223.81</ele>
        <time>2021-02-18T15:40:16Z</time>
      </trkpt>
      <trkpt lat="47.64473" lon="6.18256">
        <ele>223.81</ele>
        <time>2021-02-18T15:40:18Z</time>
      </trkpt>
      <trkpt lat="47.6447" lon="6.18263">
        <ele>223.81</ele>
        <time>2021-02-18T15:40:20Z</time>
      </trkpt>
      <trkpt lat="47.64466" lon="6.18269">
        <ele>223.81</ele>
        <time>2021-02-18T15:40:21Z</time>
      </trkpt>
      <trkpt lat="47.64461" lon="6.18274">
        <ele>223.81</ele>
        <time>2021-02-18T15:40:24Z</time>
      </trkpt>
      <trkpt lat="47.64457" lon="6.18279">
        <ele>223.81</ele>
        <time>2021-02-18T15:40:27Z</time>
      </trkpt>
      <trkpt lat="47.64453" lon="6.18284">
        <ele>223.81</ele>
        <time>2021-02-18T15:40:31Z</time>
      </trkpt>
      <trkpt lat="47.64448" lon="6.18289">
        <ele>223.81</ele>
        <time>2021-02-18T15:40:33Z</time>
      </trkpt>
      <trkpt lat="47.64444" lon="6.18294">
        <ele>223.81</ele>
        <time>2021-02-18T15:40:35Z</time>
      </trkpt>
      <trkpt lat="47.64439" lon="6.18301">
        <ele>223.81</ele>
        <time>2021-02-18T15:40:36Z</time>
      </trkpt>
      <trkpt lat="47.64434" lon="6.18307">
        <ele>223.81</ele>
        <time>2021-02-18T15:40:39Z</time>
      </trkpt>
      <trkpt lat="47.6443" lon="6.18311">
        <ele>223.81</ele>
        <time>2021-02-18T15:40:41Z</time>
      </trkpt>
      <trkpt lat="47.64426" lon="6.18314">
        <ele>223.81</ele>
        <time>2021-02-18T15:40:43Z</time>
      </trkpt>
      <trkpt lat="47.64421" lon="6.18318">
        <ele>223.81</ele>
        <time>2021-02-18T15:40:46Z</time>
      </trkpt>
      <trkpt lat="47.64417" lon="6.18322">
        <ele>223.81</ele>
        <time>2021-02-18T15:40:48Z</time>
      </trkpt>
      <trkpt lat="47.64413" lon="6.18328">
        <ele>223.81</ele>
        <time>2021-02-18T15:40:50Z</time>
      </trkpt>
      <trkpt lat="47.64409" lon="6.18332">
        <ele>223.81</ele>
        <time>2021-02-18T15:40:51Z</time>
      </trkpt>
      <trkpt lat="47.64405" lon="6.18336">
        <ele>223.81</ele>
        <time>2021-02-18T15:40:53Z</time>
      </trkpt>
      <trkpt lat="47.64401" lon="6.1834">
        <ele>223.81</ele>
        <time>2021-02-18T15:40:55Z</time>
      </trkpt>
      <trkpt lat="47.64397" lon="6.18344">
        <ele>223.81</ele>
        <time>2021-02-18T15:40:58Z</time>
      </trkpt>
      <trkpt lat="47.64393" lon="6.18349">
        <ele>223.81</ele>
        <time>2021-02-18T15:41:00Z</time>
      </trkpt>
      <trkpt lat="47.64388" lon="6.18354">
        <ele>223.81</ele>
        <time>2021-02-18T15:41:01Z</time>
      </trkpt>
      <trkpt lat="47.64383" lon="6.18358">
        <ele>223.81</ele>
        <time>2021-02-18T15:41:03Z</time>
      </trkpt>
      <trkpt lat="47.64378" lon="6.18361">
        <ele>223.81</ele>
        <time>2021-02-18T15:41:05Z</time>
      </trkpt>
      <trkpt lat="47.64373" lon="6.18365">
        <ele>223.81</ele>
        <time>2021-02-18T15:41:07Z</time>
      </trkpt>
      <trkpt lat="47.64368" lon="6.18368">
        <ele>223.81</ele>
        <time>2021-02-18T15:41:09Z</time>
      </trkpt>
      <trkpt lat="47.64363" lon="6.18373">
        <ele>223.81</ele>
        <time>2021-02-18T15:41:11Z</time>
      </trkpt>
      <trkpt lat="47.64358" lon="6.18379">
        <ele>223.81</ele>
        <time>2021-02-18T15:41:13Z</time>
      </trkpt>
      <trkpt lat="47.64354" lon="6.18385">
        <ele>223.81</ele>
        <time>2021-02-18T15:41:15Z</time>
      </trkpt>
      <trkpt lat="47.64352" lon="6.18391">
        <ele>223.81</ele>
        <time>2021-02-18T15:41:17Z</time>
      </trkpt>
      <trkpt lat="47.64349" lon="6.18399">
        <ele>223.81</ele>
        <time>2021-02-18T15:41:20Z</time>
      </trkpt>
      <trkpt lat="47.64345" lon="6.18405">
        <ele>223.81</ele>
        <time>2021-02-18T15:41:22Z</time>
      </trkpt>
      <trkpt lat="47.64342" lon="6.18411">
        <ele>223.81</ele>
        <time>2021-02-18T15:41:24Z</time>
      </trkpt>
      <trkpt lat="47.64339" lon="6.18418">
        <ele>223.81</ele>
        <time>2021-02-18T15:41:26Z</time>
      </trkpt>
      <trkpt lat="47.64336" lon="6.18425">
        <ele>223.81</ele>
        <time>2021-02-18T15:41:28Z</time>
      </trkpt>
      <trkpt lat="47.64332" lon="6.18432">
        <ele>223.81</ele>
        <time>2021-02-18T15:41:31Z</time>
      </trkpt>
      <trkpt lat="47.6433" lon="6.18439">
        <ele>223.81</ele>
        <time>2021-02-18T15:41:34Z</time>
      </trkpt>
      <trkpt lat="47.64327" lon="6.18445">
        <ele>223.81</ele>
        <time>2021-02-18T15:41:37Z</time>
      </trkpt>
      <trkpt lat="47.64324" lon="6.1845">
        <ele>223.81</ele>
        <time>2021-02-18T15:41:39Z</time>
      </trkpt>
      <trkpt lat="47.6432" lon="6.18453">
        <ele>223.81</ele>
        <time>2021-02-18T15:41:41Z</time>
      </trkpt>
      <trkpt lat="47.64317" lon="6.18458">
        <ele>223.81</ele>
        <time>2021-02-18T15:41:43Z</time>
      </trkpt>
      <trkpt lat="47.64321" lon="6.18458">
        <ele>223.81</ele>
        <time>2021-02-18T15:41:48Z</time>
      </trkpt>
      <trkpt lat="47.64324" lon="6.18452">
        <ele>223.81</ele>
        <time>2021-02-18T15:41:50Z</time>
      </trkpt>
      <trkpt lat="47.64327" lon="6.18446">
        <ele>223.81</ele>
        <time>2021-02-18T15:41:52Z</time>
      </trkpt>
      <trkpt lat="47.6433" lon="6.18439">
        <ele>223.81</ele>
        <time>2021-02-18T15:41:54Z</time>
      </trkpt>
      <trkpt lat="47.64333" lon="6.18434">
        <ele>223.81</ele>
        <time>2021-02-18T15:41:56Z</time>
      </trkpt>
      <trkpt lat="47.64337" lon="6.18428">
        <ele>223.81</ele>
        <time>2021-02-18T15:42:01Z</time>
      </trkpt>
      <trkpt lat="47.6434" lon="6.1842">
        <ele>223.81</ele>
        <time>2021-02-18T15:42:03Z</time>
      </trkpt>
      <trkpt lat="47.64344" lon="6.18413">
        <ele>223.81</ele>
        <time>2021-02-18T15:42:05Z</time>
      </trkpt>
      <trkpt lat="47.64347" lon="6.18406">
        <ele>223.81</ele>
        <time>2021-02-18T15:42:07Z</time>
      </trkpt>
      <trkpt lat="47.6435" lon="6.18399">
        <ele>223.81</ele>
        <time>2021-02-18T15:42:09Z</time>
      </trkpt>
      <trkpt lat="47.64353" lon="6.18393">
        <ele>223.81</ele>
        <time>2021-02-18T15:42:11Z</time>
      </trkpt>
      <trkpt lat="47.64356" lon="6.18387">
        <ele>223.81</ele>
        <time>2021-02-18T15:42:13Z</time>
      </trkpt>
      <trkpt lat="47.6436" lon="6.18381">
        <ele>223.81</ele>
        <time>2021-02-18T15:42:14Z</time>
      </trkpt>
      <trkpt lat="47.64364" lon="6.18375">
        <ele>223.81</ele>
        <time>2021-02-18T15:42:16Z</time>
      </trkpt>
      <trkpt lat="47.6437" lon="6.18372">
        <ele>223.81</ele>
        <time>2021-02-18T15:42:18Z</time>
      </trkpt>
      <trkpt lat="47.64375" lon="6.18369">
        <ele>223.81</ele>
        <time>2021-02-18T15:42:20Z</time>
      </trkpt>
      <trkpt lat="47.6438" lon="6.18365">
        <ele>223.81</ele>
        <time>2021-02-18T15:42:22Z</time>
      </trkpt>
      <trkpt lat="47.64386" lon="6.18359">
        <ele>223.81</ele>
        <time>2021-02-18T15:42:25Z</time>
      </trkpt>
      <trkpt lat="47.64396" lon="6.18352">
        <ele>223.81</ele>
        <time>2021-02-18T15:42:27Z</time>
      </trkpt>
      <trkpt lat="47.644" lon="6.18347">
        <ele>223.81</ele>
        <time>2021-02-18T15:42:29Z</time>
      </trkpt>
      <trkpt lat="47.64404" lon="6.18342">
        <ele>223.81</ele>
        <time>2021-02-18T15:42:33Z</time>
      </trkpt>
      <trkpt lat="47.64409" lon="6.18337">
        <ele>223.81</ele>
        <time>2021-02-18T15:42:34Z</time>
      </trkpt>
      <trkpt lat="47.64413" lon="6.18332">
        <ele>223.81</ele>
        <time>2021-02-18T15:42:38Z</time>
      </trkpt>
      <trkpt lat="47.64417" lon="6.18327">
        <ele>223.81</ele>
        <time>2021-02-18T15:42:39Z</time>
      </trkpt>
      <trkpt lat="47.64422" lon="6.18322">
        <ele>223.81</ele>
        <time>2021-02-18T15:42:42Z</time>
      </trkpt>
      <trkpt lat="47.64426" lon="6.18318">
        <ele>223.81</ele>
        <time>2021-02-18T15:42:45Z</time>
      </trkpt>
      <trkpt lat="47.64429" lon="6.18311">
        <ele>223.81</ele>
        <time>2021-02-18T15:42:51Z</time>
      </trkpt>
      <trkpt lat="47.64426" lon="6.18316">
        <ele>211.43</ele>
        <time>2021-02-18T15:44:17Z</time>
      </trkpt>
      <trkpt lat="47.64432" lon="6.18311">
        <ele>211.46</ele>
        <time>2021-02-18T15:44:22Z</time>
      </trkpt>
      <trkpt lat="47.64436" lon="6.18306">
        <ele>211.52</ele>
        <time>2021-02-18T15:44:27Z</time>
      </trkpt>
      <trkpt lat="47.64437" lon="6.18315">
        <ele>211.63</ele>
        <time>2021-02-18T15:44:31Z</time>
      </trkpt>
    </trkseg>
  </trk>
</gpx>